[[{"header":{"parameterUnit":"m.s-1","parameterCategory":1,"la1":30.6,"la2":29.2853,"lo1":-89.7004,"lo2":-87.6739,"dy":0.0162,"dx":0.0183,"nx":112,"ny":82,"refTime":"2024-04-05T00:00:00:Z","depth":0,"parameterNumber":2,"parameterNumberName":"U-component_of_WINDS"},"data":[0.0,0.0,0.0,0.0,0.0,0.0,0.0,0.0,0.0,0.0,0.0,0.0,0.0,0.0,0.0,0.0,0.0,0.0,0.0,0.0,0.0,0.0,0.0,0.0,0.0,0.0,0.0,0.0,0.0,0.0,0.0,0.0,0.0,0.0,0.0,0.0,0.0,0.0,0.0,0.0,0.0,0.0,0.0,0.0,0.0,0.0,0.0,0.0,0.0,0.0,0.0,0.0,0.0,0.0,0.0,0.0,0.0,0.0,0.0,0.0,0.0,0.0,0.0,0.0,0.0,0.0,0.0,0.0,0.0,0.0,0.0,0.0,0.0,0.0,0.0,0.0,0.0,0.0,0.0,0.0,0.0,0.0,0.0,0.0,0.0,0.0,0.0,0.0,0.0,0.0,0.0,2.4697,2.4591,2.4155,2.3282,2.2835,2.2275,2.1535,0.0,0.0,0.0,0.0,0.0,0.0,0.0,0.0,0.0,0.0,0.0,0.0,0.0,0.0,0.0,0.0,0.0,0.0,0.0,0.0,0.0,0.0,0.0,0.0,0.0,0.0,0.0,0.0,0.0,0.0,0.0,0.0,0.0,0.0,0.0,0.0,0.0,0.0,0.0,0.0,0.0,0.0,0.0,0.0,0.0,0.0,0.0,0.0,0.0,0.0,0.0,0.0,0.0,0.0,0.0,0.0,0.0,0.0,0.0,0.0,0.0,0.0,0.0,0.0,0.0,0.0,0.0,0.0,0.0,0.0,0.0,0.0,0.0,0.0,0.0,0.0,0.0,0.0,0.0,0.0,0.0,0.0,0.0,0.0,0.0,0.0,0.0,0.0,0.0,0.0,0.0,0.0,0.0,0.0,0.0,0.0,0.0,0.0,0.0,0.0,0.0,0.0,0.0,0.0,2.4155,2.451,2.4528,2.4155,2.3282,2.2835,2.2167,2.1134,0.0,0.0,0.0,0.0,0.0,0.0,0.0,0.0,0.0,0.0,0.0,0.0,0.0,0.0,0.0,0.0,0.0,0.0,0.0,0.0,0.0,0.0,0.0,0.0,0.0,0.0,0.0,0.0,0.0,0.0,0.0,0.0,0.0,0.0,0.0,0.0,0.0,0.0,0.0,0.0,0.0,0.0,0.0,0.0,0.0,0.0,0.0,0.0,0.0,0.0,0.0,0.0,0.0,0.0,0.0,0.0,0.0,0.0,0.0,0.0,0.0,0.0,0.0,0.0,0.0,0.0,0.0,0.0,0.0,0.0,0.0,0.0,0.0,0.0,0.0,0.0,0.0,0.0,0.0,0.0,0.0,0.0,0.0,0.0,0.0,0.0,0.0,0.0,0.0,0.0,0.0,0.0,0.0,0.0,0.0,0.0,0.0,0.0,0.0,0.0,0.0,0.0,0.0,2.4416,2.4454,2.4512,2.4495,2.4155,2.3282,2.3034,2.2373,2.107,2.0991,0.0,0.0,0.0,0.0,0.0,0.0,0.0,0.0,0.0,0.0,0.0,0.0,0.0,0.0,0.0,0.0,0.0,0.0,0.0,0.0,0.0,0.0,0.0,0.0,0.0,0.0,0.0,0.0,0.0,0.0,0.0,0.0,0.0,0.0,0.0,0.0,0.0,0.0,0.0,0.0,0.0,0.0,0.0,0.0,0.0,0.0,0.0,0.0,0.0,0.0,0.0,0.0,0.0,0.0,0.0,0.0,0.0,0.0,0.0,0.0,0.0,0.0,0.0,0.0,0.0,0.0,0.0,0.0,0.0,0.0,0.0,0.0,0.0,0.0,0.0,0.0,0.0,0.0,0.0,0.0,0.0,0.0,0.0,0.0,0.0,0.0,0.0,0.0,0.0,0.0,0.0,0.0,0.0,0.0,0.0,0.0,0.0,0.0,0.0,0.0,0.0,0.0,2.4832,2.4746,2.4575,2.4478,2.4099,2.3259,2.3189,2.2617,2.1228,2.1055,0.0,0.0,0.0,0.0,0.0,0.0,0.0,0.0,0.0,0.0,0.0,0.0,0.0,0.0,0.0,0.0,0.0,0.0,0.0,0.0,0.0,0.0,0.0,0.0,0.0,0.0,0.0,0.0,0.0,0.0,0.0,0.0,0.0,0.0,0.0,0.0,0.0,0.0,0.0,0.0,0.0,0.0,0.0,0.0,0.0,0.0,0.0,0.0,0.0,0.0,0.0,0.0,0.0,0.0,0.0,0.0,0.0,0.0,0.0,0.0,0.0,0.0,0.0,0.0,0.0,0.0,0.0,0.0,0.0,0.0,0.0,0.0,0.0,0.0,0.0,0.0,0.0,0.0,0.0,0.0,0.0,0.0,0.0,0.0,0.0,0.0,0.0,0.0,0.0,0.0,0.0,0.0,0.0,0.0,0.0,0.0,0.0,0.0,0.0,0.0,0.0,0.0,2.4883,2.479,2.4775,2.4444,2.3937,2.3259,2.3189,2.2712,2.1642,2.1213,0.0,0.0,0.0,0.0,0.0,0.0,0.0,0.0,0.0,0.0,0.0,0.0,0.0,0.0,0.0,0.0,0.0,0.0,0.0,0.0,0.0,0.0,0.0,0.0,0.0,0.0,0.0,0.0,0.0,0.0,0.0,0.0,0.0,0.0,0.0,0.0,0.0,0.0,0.0,0.0,0.0,0.0,0.0,0.0,0.0,0.0,0.0,0.0,0.0,0.0,0.0,0.0,0.0,0.0,0.0,0.0,0.0,0.0,0.0,0.0,0.0,0.0,0.0,0.0,0.0,0.0,0.0,0.0,0.0,0.0,0.0,0.0,0.0,0.0,0.0,0.0,0.0,0.0,0.0,0.0,0.0,0.0,0.0,0.0,0.0,0.0,0.0,0.0,0.0,0.0,0.0,0.0,0.0,0.0,0.0,0.0,0.0,0.0,0.0,0.0,0.0,0.0,2.4962,2.4804,0.0,2.4543,2.406,2.3259,2.3189,2.2737,2.1672,0.0,0.0,0.0,0.0,0.0,0.0,0.0,0.0,0.0,0.0,0.0,0.0,0.0,0.0,0.0,0.0,0.0,0.0,0.0,0.0,0.0,0.0,0.0,0.0,0.0,0.0,0.0,0.0,0.0,0.0,0.0,0.0,0.0,0.0,0.0,0.0,0.0,0.0,0.0,0.0,0.0,0.0,0.0,0.0,0.0,0.0,0.0,0.0,0.0,0.0,0.0,0.0,0.0,0.0,0.0,0.0,0.0,0.0,0.0,0.0,0.0,0.0,0.0,0.0,0.0,0.0,0.0,0.0,0.0,0.0,0.0,0.0,0.0,0.0,0.0,0.0,0.0,0.0,0.0,0.0,0.0,0.0,0.0,0.0,0.0,0.0,0.0,0.0,0.0,0.0,0.0,0.0,0.0,0.0,0.0,0.0,0.0,0.0,0.0,0.0,0.0,0.0,2.5243,2.5037,2.4842,0.0,2.4623,2.4155,2.3282,2.3189,2.2822,2.1882,0.0,0.0,0.0,0.0,0.0,0.0,0.0,0.0,0.0,0.0,0.0,0.0,0.0,0.0,0.0,0.0,0.0,0.0,0.0,0.0,0.0,0.0,0.0,0.0,0.0,0.0,0.0,0.0,0.0,0.0,0.0,0.0,0.0,0.0,0.0,0.0,0.0,0.0,0.0,0.0,0.0,0.0,0.0,0.0,0.0,0.0,0.0,0.0,0.0,0.0,0.0,0.0,0.0,0.0,0.0,0.0,0.0,0.0,0.0,0.0,0.0,0.0,0.0,0.0,0.0,0.0,0.0,0.0,0.0,0.0,0.0,0.0,0.0,0.0,0.0,0.0,0.0,0.0,0.0,0.0,0.0,0.0,0.0,0.0,0.0,0.0,0.0,0.0,0.0,0.0,0.0,0.0,0.0,0.0,0.0,0.0,0.0,0.0,0.0,0.0,0.0,0.0,2.5274,2.5141,2.4949,2.4799,2.4623,2.4137,2.3282,2.3189,2.2958,0.0,0.0,0.0,0.0,0.0,0.0,0.0,0.0,0.0,0.0,0.0,0.0,0.0,0.0,0.0,0.0,0.0,0.0,0.0,0.0,0.0,0.0,0.0,0.0,0.0,0.0,0.0,0.0,0.0,0.0,0.0,0.0,0.0,0.0,0.0,0.0,0.0,0.0,0.0,0.0,0.0,0.0,0.0,0.0,0.0,0.0,0.0,0.0,0.0,0.0,0.0,0.0,0.0,0.0,0.0,0.0,0.0,0.0,0.0,0.0,0.0,0.0,0.0,0.0,0.0,0.0,0.0,0.0,0.0,0.0,0.0,0.0,0.0,0.0,0.0,0.0,0.0,0.0,0.0,0.0,0.0,0.0,0.0,0.0,0.0,0.0,0.0,0.0,0.0,0.0,0.0,0.0,0.0,0.0,0.0,0.0,0.0,0.0,0.0,0.0,0.0,0.0,0.0,2.5274,2.5253,2.5115,2.4832,2.4746,2.4386,2.3631,2.3346,2.2905,2.2203,0.0,0.0,0.0,0.0,0.0,0.0,0.0,0.0,0.0,0.0,0.0,0.0,0.0,0.0,0.0,0.0,0.0,0.0,0.0,0.0,0.0,0.0,0.0,0.0,0.0,0.0,0.0,0.0,0.0,0.0,0.0,0.0,0.0,0.0,0.0,0.0,0.0,0.0,0.0,0.0,0.0,0.0,0.0,0.0,0.0,0.0,0.0,0.0,0.0,0.0,0.0,0.0,0.0,0.0,0.0,0.0,0.0,0.0,0.0,0.0,0.0,0.0,0.0,0.0,0.0,0.0,0.0,0.0,0.0,0.0,0.0,0.0,0.0,0.0,0.0,0.0,0.0,0.0,0.0,0.0,0.0,0.0,0.0,0.0,0.0,0.0,0.0,0.0,0.0,0.0,0.0,0.0,0.0,0.0,0.0,0.0,0.0,0.0,0.0,0.0,0.0,0.0,2.5274,2.5303,2.516,2.4847,2.4804,2.4487,2.3759,2.3392,2.2905,2.2152,0.0,0.0,0.0,0.0,0.0,0.0,0.0,0.0,0.0,0.0,0.0,0.0,0.0,0.0,0.0,0.0,0.0,0.0,0.0,0.0,0.0,0.0,0.0,0.0,0.0,0.0,0.0,0.0,0.0,0.0,0.0,0.0,0.0,0.0,0.0,0.0,0.0,0.0,0.0,0.0,0.0,0.0,0.0,0.0,0.0,0.0,0.0,0.0,0.0,0.0,0.0,0.0,0.0,0.0,0.0,0.0,0.0,0.0,0.0,0.0,0.0,0.0,0.0,0.0,0.0,0.0,0.0,0.0,0.0,0.0,0.0,0.0,0.0,0.0,0.0,0.0,0.0,0.0,0.0,0.0,0.0,0.0,0.0,0.0,0.0,0.0,0.0,0.0,0.0,0.0,0.0,0.0,0.0,0.0,0.0,0.0,0.0,0.0,0.0,0.0,0.0,0.0,2.5303,2.5303,2.516,2.4847,2.4804,2.4503,2.3798,2.3414,2.2888,2.2135,0.0,0.0,0.0,0.0,0.0,0.0,0.0,0.0,0.0,0.0,0.0,0.0,0.0,0.0,0.0,0.0,0.0,0.0,0.0,0.0,0.0,0.0,0.0,0.0,0.0,0.0,0.0,0.0,0.0,0.0,0.0,0.0,0.0,0.0,0.0,0.0,0.0,0.0,0.0,0.0,0.0,0.0,0.0,0.0,0.0,0.0,0.0,0.0,0.0,0.0,0.0,0.0,0.0,0.0,0.0,0.0,0.0,0.0,0.0,0.0,2.5726,0.0,0.0,0.0,0.0,0.0,0.0,0.0,0.0,0.0,0.0,0.0,0.0,0.0,0.0,0.0,0.0,0.0,0.0,0.0,0.0,0.0,0.0,0.0,0.0,0.0,0.0,0.0,0.0,0.0,0.0,0.0,0.0,0.0,0.0,0.0,0.0,0.0,0.0,0.0,0.0,0.0,2.537,2.5322,2.516,2.4847,2.4804,2.4623,2.4114,2.3544,2.2853,2.2,2.1423,0.0,0.0,0.0,0.0,0.0,0.0,0.0,0.0,0.0,0.0,0.0,0.0,0.0,0.0,0.0,0.0,0.0,0.0,0.0,0.0,0.0,0.0,0.0,0.0,0.0,0.0,0.0,0.0,0.0,0.0,0.0,0.0,0.0,0.0,0.0,0.0,0.0,0.0,0.0,0.0,0.0,0.0,0.0,0.0,0.0,0.0,0.0,0.0,0.0,0.0,0.0,0.0,0.0,0.0,0.0,0.0,0.0,0.0,0.0,0.0,2.4926,0.0,0.0,0.0,0.0,0.0,0.0,0.0,0.0,0.0,0.0,0.0,0.0,0.0,0.0,0.0,0.0,0.0,0.0,0.0,0.0,0.0,0.0,0.0,0.0,0.0,0.0,0.0,0.0,0.0,0.0,0.0,0.0,0.0,0.0,0.0,0.0,0.0,0.0,0.0,0.0,2.539,2.5341,2.516,2.4847,2.4804,2.4639,2.4228,2.3588,2.2902,2.2287,2.1453,0.0,0.0,0.0,0.0,0.0,0.0,0.0,0.0,0.0,0.0,0.0,0.0,0.0,0.0,0.0,0.0,0.0,0.0,0.0,0.0,0.0,0.0,0.0,0.0,0.0,0.0,0.0,0.0,0.0,0.0,0.0,0.0,0.0,0.0,0.0,0.0,0.0,0.0,0.0,0.0,0.0,0.0,0.0,0.0,0.0,0.0,0.0,0.0,0.0,0.0,0.0,0.0,0.0,2.4905,2.4812,2.4561,2.4528,2.441,2.4228,2.3966,2.3871,2.3852,0.0,0.0,0.0,0.0,0.0,0.0,0.0,0.0,0.0,0.0,0.0,0.0,0.0,0.0,0.0,0.0,0.0,0.0,0.0,0.0,0.0,0.0,0.0,0.0,0.0,2.2334,2.1861,0.0,0.0,0.0,0.0,0.0,0.0,0.0,0.0,0.0,0.0,0.0,0.0,2.5409,2.537,2.5179,2.4847,2.4804,2.4639,2.4228,2.3588,2.3034,2.2625,2.1573,2.0797,0.0,0.0,0.0,0.0,0.0,0.0,0.0,0.0,0.0,0.0,0.0,0.0,0.0,0.0,0.0,0.0,0.0,0.0,0.0,0.0,0.0,0.0,0.0,0.0,0.0,0.0,0.0,0.0,0.0,0.0,0.0,0.0,2.6143,2.5241,0.0,0.0,0.0,0.0,0.0,0.0,0.0,0.0,0.0,0.0,0.0,0.0,0.0,2.487,2.4762,2.4794,2.4787,2.479,2.4816,2.4788,2.476,2.4575,2.4478,2.4426,2.3642,0.0,2.3287,2.3264,0.0,0.0,0.0,0.0,0.0,0.0,0.0,0.0,0.0,0.0,0.0,0.0,0.0,0.0,0.0,0.0,0.0,0.0,0.0,0.0,0.0,0.0,2.3117,2.2848,2.2186,2.1642,0.0,2.1707,2.1657,2.1716,2.1905,0.0,0.0,0.0,0.0,0.0,0.0,0.0,2.5486,2.5428,2.5248,2.4847,2.4804,2.4639,2.4228,2.3588,2.3034,2.2625,2.1573,2.0797,2.0314,1.9909,0.0,0.0,0.0,0.0,0.0,0.0,0.0,0.0,0.0,0.0,0.0,0.0,0.0,0.0,0.0,0.0,0.0,0.0,0.0,0.0,0.0,0.0,0.0,0.0,0.0,0.0,0.0,0.0,0.0,2.5926,2.5418,2.4842,2.4907,2.4974,0.0,0.0,0.0,0.0,0.0,0.0,0.0,0.0,0.0,2.5022,2.4921,2.4907,2.5032,2.5023,2.5069,2.5149,2.5146,2.5061,2.4917,2.4818,2.4678,2.4478,2.3908,2.3472,2.3165,2.2832,2.2607,2.2527,0.0,0.0,0.0,0.0,2.4505,2.4623,2.4623,2.4561,0.0,2.4229,0.0,0.0,0.0,0.0,0.0,0.0,0.0,0.0,0.0,0.0,0.0,2.31,2.2424,2.1845,2.1642,2.1397,2.1227,0.0,2.1301,2.1599,2.2211,0.0,0.0,0.0,0.0,0.0,2.5447,2.5428,2.5248,2.4847,2.4804,2.4639,2.4228,2.3588,2.3124,2.2944,2.191,2.1134,2.0715,2.0261,1.9788,0.0,0.0,0.0,0.0,0.0,0.0,0.0,0.0,0.0,0.0,0.0,0.0,0.0,0.0,0.0,0.0,0.0,0.0,0.0,0.0,0.0,0.0,0.0,0.0,0.0,0.0,0.0,0.0,2.513,2.4965,2.4679,2.4856,2.4937,0.0,0.0,0.0,0.0,0.0,0.0,2.541,2.5241,2.5163,2.5247,2.5116,2.5126,2.5297,2.5297,2.536,2.545,2.5421,2.532,2.5096,2.5022,2.4872,2.4601,2.4173,2.3771,2.3356,2.2669,2.2398,2.2453,2.289,2.3302,2.3678,2.4192,2.4458,2.4559,2.4528,2.441,2.4228,2.3937,0.0,2.3753,2.3346,0.0,0.0,0.0,0.0,2.4974,2.4828,2.44,2.3911,2.3494,2.2895,2.2262,2.1816,2.1488,2.1197,0.0,2.0926,2.1165,2.1724,0.0,0.0,0.0,0.0,2.5428,2.5434,2.5428,2.5267,2.4847,2.4804,2.4639,2.4228,2.3671,2.33,2.3212,2.2262,2.1565,2.1181,2.0616,1.9954,1.9288,0.0,0.0,0.0,0.0,0.0,0.0,0.0,0.0,0.0,0.0,0.0,0.0,0.0,0.0,0.0,0.0,0.0,0.0,0.0,0.0,0.0,0.0,0.0,0.0,0.0,0.0,0.0,0.0,0.0,2.481,2.4911,0.0,0.0,0.0,0.0,2.539,2.5284,2.5263,2.5387,2.5275,2.5252,2.5391,2.5435,2.5511,2.5591,2.5582,2.5583,2.5585,2.5531,2.5437,2.537,2.5126,2.4998,2.4943,2.4293,2.3988,2.3873,2.3041,2.2669,2.2669,2.2721,2.3234,2.3988,2.4007,2.4349,2.476,2.4578,2.4495,2.4444,2.4247,2.417,2.4036,2.3392,2.3949,0.0,0.0,2.4747,2.4974,2.4828,2.44,2.3988,2.3969,2.3541,2.2954,2.2235,2.2068,2.1707,0.0,2.0698,2.0991,2.1055,0.0,2.3381,2.3952,2.485,2.5492,2.5482,2.5492,2.5324,2.4847,2.4804,2.4639,2.4228,2.3876,2.3544,2.3212,2.2487,2.1915,2.1582,2.0765,2.028,2.023,1.9859,0.0,0.0,0.0,0.0,0.0,0.0,0.0,0.0,0.0,0.0,0.0,0.0,0.0,0.0,0.0,0.0,0.0,0.0,0.0,0.0,0.0,0.0,0.0,0.0,0.0,0.0,0.0,0.0,2.5015,2.5152,0.0,2.5004,2.5244,2.5416,2.546,2.5428,2.5434,2.5515,2.545,2.5456,2.5599,2.5577,2.5603,2.5652,2.5652,2.5642,2.5605,2.5522,2.5461,2.5399,2.5262,2.5111,2.4998,2.4761,2.447,2.417,2.3858,2.3536,2.3244,2.3462,2.3797,2.4223,2.4433,2.4648,2.479,2.4716,2.47,2.462,2.421,2.3844,2.3588,2.3687,2.4082,2.4542,2.4757,2.5005,2.5152,2.4962,2.4714,2.4435,2.4082,2.3767,2.3392,2.2912,2.2813,2.2539,2.1615,2.1195,2.1134,2.1622,2.2541,2.3424,2.408,2.4896,2.5414,2.5379,2.5407,2.5267,2.4847,2.4804,2.4639,2.4228,2.3896,2.3649,2.3522,2.288,2.2334,2.1943,2.118,2.0483,1.9869,1.9398,1.9006,0.0,0.0,0.0,0.0,0.0,0.0,0.0,0.0,0.0,0.0,0.0,0.0,0.0,0.0,0.0,0.0,0.0,0.0,0.0,0.0,0.0,0.0,0.0,0.0,0.0,0.0,2.5312,2.5143,2.5303,2.5342,2.5151,2.5312,2.5457,2.5499,2.5508,2.551,2.5525,2.5508,2.5527,2.56,2.5586,2.56,2.5664,2.5664,2.5664,2.5625,2.5566,2.5502,2.5466,2.537,2.5262,2.5138,2.5053,2.4828,2.4531,2.4489,2.429,2.4008,2.41,2.4317,2.4591,2.4832,2.4983,2.5019,2.4943,2.4864,2.4727,2.4261,2.3891,2.3705,2.4007,2.4276,2.4538,2.4898,2.5152,2.5264,2.5141,2.4981,2.478,2.4383,2.4118,2.3883,2.3538,2.3419,2.3218,2.2667,2.2187,2.19,2.2079,2.2962,2.3823,2.4269,2.4943,2.539,2.5341,2.532,2.5168,2.4832,2.4746,2.4559,2.4228,2.3996,2.3816,2.3714,2.3165,2.2703,2.2317,2.1592,2.0846,2.0078,1.9471,1.8817,1.8106,0.0,0.0,0.0,0.0,0.0,0.0,0.0,0.0,0.0,0.0,0.0,0.0,0.0,0.0,0.0,0.0,0.0,0.0,0.0,0.0,0.0,0.0,0.0,2.5053,2.5128,2.5118,2.5196,2.5372,2.5414,2.5224,2.5385,2.5508,2.5508,2.5506,2.548,2.5418,2.546,2.5473,2.5409,2.546,2.5538,2.5605,2.5605,2.5625,2.5703,2.5625,2.56,2.5611,2.5467,2.5399,2.5399,2.5138,2.501,2.4998,2.4869,2.491,2.4974,2.4571,2.469,2.5114,2.5177,2.5329,2.5466,2.5207,2.4965,2.4737,2.4441,2.4416,2.4493,2.436,2.4542,2.4847,2.4974,2.5152,2.5303,2.5303,2.5152,2.4974,2.4842,2.4654,2.4424,2.41,2.3866,2.3678,2.3533,2.3536,2.3258,2.2319,2.3513,2.4557,2.4436,2.4993,0.0,2.5409,2.5229,2.5018,2.4818,2.4623,2.4428,2.4209,2.419,2.4054,2.3714,2.3392,2.3045,2.2721,2.1989,2.1399,2.1007,2.0139,1.9169,1.8106,0.0,0.0,0.0,0.0,0.0,0.0,0.0,0.0,0.0,0.0,0.0,0.0,0.0,0.0,0.0,0.0,0.0,0.0,0.0,0.0,0.0,0.0,2.378,2.4712,2.4812,2.4936,2.5301,2.5443,2.5489,2.5426,2.5478,2.5492,2.5499,2.5503,2.5483,2.5466,2.5436,2.5436,2.5466,2.5436,2.5476,2.5594,2.5601,2.5625,2.5703,2.5583,2.5559,2.5593,2.5468,2.5434,2.5466,2.5388,2.5358,2.5348,2.5316,2.5297,2.525,2.4949,2.5006,2.525,2.5267,2.531,2.5341,2.5264,2.5122,2.4937,2.4847,2.4776,2.4727,2.4793,2.491,2.5057,2.5248,2.536,2.5447,2.5447,2.5264,2.5069,2.5026,2.4866,2.4682,2.4598,2.4422,2.4211,2.3912,2.4172,2.4242,2.3596,2.3989,2.4482,2.4782,2.5118,0.0,2.5322,2.5138,2.4962,2.4818,2.4623,2.4428,2.4209,2.419,2.4054,2.3714,2.3392,2.3045,2.2721,2.1989,2.1259,2.0516,1.9919,1.9111,0.0,0.0,0.0,0.0,0.0,0.0,0.0,0.0,0.0,0.0,0.0,0.0,0.0,0.0,0.0,0.0,0.0,0.0,0.0,0.0,0.0,0.0,2.3189,2.3354,2.419,2.4558,2.4928,2.5396,2.5473,2.55,2.5539,2.5496,2.5451,2.5467,2.5774,2.5967,2.5967,2.6274,2.6467,2.6505,2.6496,2.6545,2.6651,2.6675,2.673,2.6797,2.6704,2.65,2.6186,2.6074,2.5853,0.0,2.5517,2.5499,2.5499,2.5499,2.548,0.0,0.0,0.0,0.0,0.0,2.537,2.5341,2.5341,2.5262,2.5141,2.5141,2.5018,2.4917,2.5077,2.5091,2.5094,2.5301,2.539,2.5428,2.5428,2.5303,2.5158,2.5077,2.4979,2.4877,2.4877,2.4741,2.457,2.4444,2.4625,0.0,2.4476,2.4595,2.4782,2.4967,2.5163,2.5303,2.5303,2.5111,2.4949,2.4799,2.4623,2.4428,2.4209,2.419,0.0,0.0,0.0,2.3014,2.2537,2.1936,0.0,0.0,0.0,1.9498,1.8736,0.0,0.0,0.0,1.6608,1.6213,0.0,0.0,0.0,0.0,0.0,0.0,0.0,0.0,0.0,0.0,0.0,0.0,0.0,0.0,0.0,0.0,2.2995,2.3263,2.415,2.4729,2.5203,2.56,2.5718,2.581,2.5852,2.5755,2.5687,2.5678,2.6351,2.6755,2.6755,0.0,0.0,0.0,0.0,2.8019,2.8097,2.8174,2.8223,2.8301,2.8281,2.7894,2.7138,2.6984,2.6482,2.5742,2.5587,2.5511,2.5511,2.5517,2.5522,2.5515,2.5492,2.5466,2.5428,2.5486,2.5466,2.5409,2.5409,0.0,0.0,2.5322,2.5192,2.5077,2.5253,2.5192,2.5077,2.5253,2.5322,2.5322,2.5322,2.5322,2.5283,2.5088,2.5034,2.5034,2.5034,2.4917,2.4869,2.4974,2.4904,2.4869,2.4986,2.5152,2.5214,2.5065,2.5192,2.5303,2.5303,2.5111,2.4949,2.4799,0.0,0.0,2.4209,2.419,2.417,2.4151,2.3544,2.294,2.2377,2.194,2.1672,2.1582,2.083,2.0181,1.9677,1.92,1.8401,1.7343,1.6268,1.5443,0.0,0.0,0.0,0.0,0.0,0.0,0.0,0.0,0.0,0.0,0.0,0.0,0.0,0.0,0.0,2.3209,2.3947,2.5108,2.6932,2.694,2.6669,2.6502,2.7086,2.7524,2.7525,2.7503,2.7465,2.7428,2.7563,2.764,2.764,2.7813,0.0,2.789,2.7969,2.8018,2.8098,2.8169,2.8223,2.8301,0.0,0.0,2.8012,2.7239,2.6836,2.6699,2.5975,2.566,2.5659,2.5668,2.5635,2.5571,2.5524,2.5486,2.5486,2.5505,2.5486,2.5486,2.5486,2.5466,2.5466,2.5466,2.5408,2.533,2.538,2.5351,0.0,2.538,2.5428,2.5466,2.5466,2.5428,2.538,2.534,2.5273,2.5234,2.5234,2.5088,2.4974,2.4979,2.4986,2.4974,2.4998,2.5034,2.5099,2.5224,2.5274,2.5303,2.5303,2.5111,2.4949,2.4799,2.4623,2.4428,2.4209,2.419,2.4094,2.3816,2.3414,2.3021,2.2634,2.2538,2.2214,2.1612,2.1413,2.0927,2.007,1.9662,1.9068,1.8233,1.733,1.657,0.0,0.0,0.0,0.0,0.0,0.0,0.0,0.0,0.0,0.0,0.0,2.3766,0.0,0.0,2.3952,2.4677,2.5373,2.6486,2.8329,2.8892,2.8818,2.8038,2.7952,2.7962,2.8003,2.7964,2.7937,2.789,2.8275,2.8679,2.914,2.9563,2.9794,2.9794,2.9875,2.9719,2.9311,2.941,2.9475,2.9492,2.9531,2.9336,2.8926,2.8473,2.8031,2.7637,2.7187,2.6992,2.6992,2.7001,2.6988,2.6894,2.6424,2.5936,2.5503,2.5503,2.5503,2.5503,2.5503,2.5503,2.5503,2.5503,2.5483,2.5441,2.5447,2.5447,2.5447,2.5409,2.5428,2.5447,2.5409,2.539,2.5341,2.5341,2.5322,2.5303,2.5303,2.5214,2.5152,2.5152,2.5152,2.5152,2.5152,2.5152,2.5173,2.5274,2.5303,2.5303,2.5303,2.5214,2.5096,2.4917,2.4756,2.4578,2.4357,2.4266,2.4054,2.3714,2.3544,2.33,2.2972,2.2947,2.2703,2.2158,2.196,2.1546,2.0911,2.0503,2.0104,1.9726,1.9277,1.8318,0.0,0.0,0.0,0.0,0.0,0.0,0.0,0.0,2.4091,2.3602,2.3773,2.3894,2.3542,2.4274,2.5316,2.644,2.7169,2.8229,3.0031,3.096,3.1263,3.072,2.9602,2.889,2.8945,2.8764,2.8698,2.8852,2.9333,2.9987,3.0852,3.1545,3.1852,3.1698,3.178,3.1378,3.0507,3.0618,3.0671,3.0679,3.08,3.0488,2.9805,2.9668,2.9219,2.8535,2.8379,2.8301,2.8301,2.8301,2.8301,2.8222,2.7527,2.6759,2.5995,2.566,2.5543,2.5543,2.5543,2.5543,2.5543,2.5543,2.5524,2.5526,2.5517,2.5517,2.5522,2.5637,2.5659,2.5659,2.5582,2.5582,2.5543,2.5341,2.5322,2.5322,2.5303,2.5303,2.5322,2.5303,2.5303,2.5303,2.5303,2.5303,2.5303,2.5303,2.5303,2.5303,2.5303,2.5303,2.5224,2.5022,2.4904,2.4756,2.4559,2.441,2.4192,2.3943,2.3883,2.3699,2.3379,2.3328,2.3141,2.2797,2.2478,2.218,2.1903,2.1502,2.135,2.1442,2.135,2.0217,2.5096,2.5224,0.0,2.4726,2.456,2.4357,0.0,0.0,2.3462,2.293,2.3089,2.3306,2.3317,2.5084,2.6802,2.7579,2.9241,3.1287,3.3744,3.3525,3.3824,3.5638,3.3776,3.2333,3.2352,3.1698,3.1564,3.2295,3.1756,3.1756,3.2583,3.2718,3.2449,3.1718,3.178,3.1388,3.0521,3.0565,3.0604,3.0608,3.0694,3.0664,3.0547,2.9902,2.9551,2.9414,2.8633,2.8301,2.8301,2.8301,2.8301,2.8281,2.8183,2.8085,2.7792,2.6249,2.5683,2.5683,2.5683,2.5683,2.5683,2.5683,2.5643,2.5584,2.5582,2.5548,2.5662,2.6432,2.6633,2.6631,2.6554,2.6593,2.642,2.5505,2.539,2.5447,2.5322,2.5341,2.537,2.5303,2.5303,2.5303,2.5303,2.5303,2.5303,2.5303,2.5303,2.5303,2.5303,2.5303,2.5224,2.5022,2.4986,2.4911,2.479,2.4746,2.4731,2.4682,2.4508,2.4265,2.393,2.3723,2.35,2.3141,2.3093,2.3052,2.3003,2.2634,2.2591,2.2954,2.2608,2.1781,2.4884,0.0,0.0,0.0,2.3847,2.3516,2.3544,2.3644,2.3603,2.3086,2.4024,2.494,2.491,2.6691,2.874,0.0,3.1819,3.342,3.6026,3.6064,3.6058,3.6632,3.6219,3.5295,3.3795,3.2891,3.2545,3.2872,3.2583,3.2776,3.3603,3.366,3.3506,3.316,3.2692,3.2038,3.1218,3.0756,3.0543,3.054,3.0603,3.0631,3.0625,3.031,3.0199,3.0215,2.9844,2.9746,2.9805,2.9805,2.9805,2.9766,2.9258,2.9062,2.8848,2.7109,2.6465,2.6387,2.5879,2.5703,2.5703,2.5703,2.5684,2.5742,2.6269,2.6403,2.6546,2.7388,2.7251,2.6952,2.7401,2.6779,2.6082,2.6149,2.5826,2.5485,2.5425,2.5432,2.5447,2.537,2.537,2.5341,2.5303,2.5303,2.5303,2.5303,2.5303,2.5303,2.5303,2.5303,2.5224,2.5022,2.501,2.4937,2.4818,2.4804,2.4804,2.4804,2.4716,2.462,2.4468,2.4385,2.434,2.4357,2.3904,2.375,2.3903,2.3263,2.3034,2.3189,2.3034,2.2971,2.4624,0.0,0.0,2.388,2.3756,2.3655,2.3891,2.4159,2.4346,2.4218,2.553,2.6787,2.7024,2.8658,0.0,3.3031,3.3858,3.5072,3.7585,3.7963,3.7823,3.7459,3.7757,3.7276,3.543,3.4257,3.3718,3.393,3.3526,3.3641,3.4507,3.4564,3.4449,3.4199,3.3583,3.2756,3.1718,3.1121,3.0833,3.0833,3.066,3.0809,3.127,3.1057,3.0859,3.0671,3.0681,3.0762,3.0859,3.0879,3.0898,3.084,3.0215,2.9961,2.9785,2.8262,2.7559,2.7266,2.6641,2.6426,2.6426,2.6426,2.6426,2.6523,2.7168,2.7363,2.7539,2.8359,2.8125,2.7772,2.8349,2.757,2.6657,2.6773,2.6339,2.5835,2.5556,2.5517,2.5522,2.544,2.5437,2.5409,2.5341,2.5322,2.5322,2.5303,2.5303,2.5303,2.5303,2.5303,2.5234,2.5099,2.5088,2.5041,2.4955,2.4942,2.4942,2.4942,2.4883,2.4855,2.4855,2.4832,2.4992,2.5412,2.4801,2.4661,2.509,2.4441,2.4144,2.4127,2.3912,2.4234,0.0,0.0,2.4541,2.4031,2.4664,2.5359,2.5115,2.5314,2.5762,2.6535,2.737,2.8289,2.9386,3.093,3.2502,3.4017,3.4936,3.6254,3.8537,3.886,3.895,3.9185,3.8507,3.7969,0.0,3.6392,3.5738,3.6526,3.5084,3.4545,3.5411,3.5468,3.5064,3.4218,3.416,3.3372,3.1718,3.1679,3.166,3.166,3.0871,3.1345,3.2909,3.2189,3.1399,3.0601,3.0664,3.0703,3.0723,3.0859,3.0898,3.0898,3.0879,3.0859,3.0742,2.9844,2.8984,2.8262,2.8223,2.8223,2.8223,2.8223,2.8223,2.8223,2.8242,2.8262,2.8437,2.9316,2.9531,2.9512,2.9473,2.9472,2.9019,2.7223,2.6871,2.6694,2.571,2.5542,2.558,2.5507,2.5507,2.5486,2.5409,2.5409,2.537,2.5303,2.5303,2.5303,2.5303,2.5303,2.5303,2.5284,2.5284,2.5303,2.5293,2.5274,2.5274,2.5274,2.5099,2.4979,2.4979,2.4883,2.5167,2.5959,2.5755,2.6023,2.6805,2.6587,2.6499,2.6481,2.5693,2.5748,0.0,0.0,2.4482,2.4642,2.4746,2.4895,2.5323,2.634,2.7281,2.7548,2.7933,2.8505,2.9296,3.0648,3.2231,3.407,3.6095,3.8029,3.9727,3.9967,3.9791,3.9354,3.9508,0.0,0.0,0.0,0.0,3.668,3.618,3.5757,3.5526,3.5493,3.5372,3.5064,3.4507,3.393,3.3353,3.2795,3.2506,3.2487,3.2218,3.2391,3.2942,3.2673,3.2422,3.2165,3.1641,3.1486,3.1523,3.0996,3.082,3.0898,3.0898,3.0898,3.0859,3.0566,3.0273,2.9863,2.8691,2.8301,2.8301,2.8301,2.8301,2.8418,2.8984,2.916,2.9336,3.0215,3.0059,2.9726,3.0273,2.959,2.8711,2.8665,2.8259,2.7617,2.6691,2.6502,2.6347,2.5696,2.557,2.5551,2.5473,2.544,2.539,2.5303,2.5303,2.5303,2.5303,2.5303,2.5514,2.6101,2.6159,2.6409,2.6986,2.6505,2.6159,2.6159,2.5561,2.5452,2.6039,2.6022,2.6581,2.7832,2.7281,2.7289,2.7951,2.7356,2.6971,2.6784,2.6506,2.6742,0.0,2.4802,2.5052,2.5403,2.5657,2.6048,2.6836,2.8008,2.9091,2.9671,2.9771,2.9958,3.0644,3.15,3.2586,3.3961,3.5893,3.7776,3.9384,3.9604,3.9527,3.9315,3.9758,0.0,0.0,0.0,0.0,3.7623,3.7334,3.6949,3.643,3.6103,3.593,3.593,3.5103,3.4507,3.4199,3.3641,3.3218,3.291,3.3526,3.3506,3.291,3.3218,3.3218,3.2923,3.2134,3.2009,3.2268,3.1167,3.0937,3.1269,3.0996,3.0898,3.0937,3.125,3.1172,3.0742,2.9629,2.9238,2.9238,2.9238,2.9238,2.9336,2.9883,3.0059,3.0176,3.0742,3.0508,3.0195,3.0742,3.0078,2.9297,2.9531,2.918,2.8535,2.7656,2.7226,2.6816,2.6211,2.5847,2.5606,2.5548,2.5718,2.5956,2.6217,2.6236,2.612,2.5813,2.6043,2.6447,2.7005,2.7063,2.7294,2.7852,2.739,2.7063,2.7063,2.6544,2.6486,2.7044,2.7063,2.7654,2.8868,2.8319,2.837,2.9033,2.8439,2.806,2.7884,2.7513,2.7696,2.5323,2.5862,2.6358,2.644,2.7457,2.8699,2.9546,3.0249,3.1171,3.2639,3.2516,3.2355,0.0,0.0,3.3431,3.3756,3.4647,3.5952,3.7862,3.8123,3.843,0.0,0.0,0.0,0.0,0.0,0.0,3.9354,0.0,3.8046,3.8007,3.7219,3.6757,3.6699,3.5968,3.5141,3.4276,3.4257,3.3853,3.3045,3.4718,3.4641,3.3064,3.3891,3.3814,3.2987,3.2244,3.2333,3.2894,3.1434,3.1269,3.1875,3.1211,3.0937,3.1016,3.1875,3.168,3.0976,3.1016,3.0976,3.0898,3.0898,3.0898,3.0898,3.0898,3.0898,3.0898,3.0898,3.0898,3.0898,3.0898,3.0898,3.0684,2.9863,2.9668,2.9434,2.8555,2.7715,2.7129,2.707,2.6406,2.5801,2.5742,2.6312,2.7054,2.7873,2.7978,2.764,2.6774,2.739,2.7909,2.7948,2.7948,2.7986,2.8025,2.7986,2.7948,2.7948,2.7909,2.7909,2.7948,2.7948,2.8332,2.914,2.8996,2.9265,3.0013,2.9829,2.9731,2.9677,2.8671,2.8612,2.6912,2.7596,2.8558,2.9469,2.9689,2.9934,3.1016,3.1998,3.2636,3.2427,3.1808,3.1147,0.0,0.0,0.0,3.3658,3.6077,0.0,3.9669,3.9854,0.0,0.0,0.0,4.0181,4.0181,4.0181,0.0,0.0,3.9431,3.8681,3.8027,3.7796,3.7373,3.6719,3.6507,3.6007,3.518,3.518,3.5064,3.4853,3.5295,3.5276,3.4853,3.5064,3.5045,3.4795,3.3949,3.3365,3.2986,3.2666,3.1966,3.1094,3.1641,3.1465,3.1016,3.1875,3.2051,3.1953,3.2559,3.1934,3.0898,3.0898,3.0898,3.0898,3.0898,3.0898,3.0898,3.0898,3.0898,3.0898,3.0898,3.0898,3.084,3.0625,3.0566,3.0332,2.9453,2.9082,2.875,2.8086,2.7793,2.7594,2.748,2.762,2.7776,2.7902,2.842,2.8486,2.7659,2.7755,2.8121,2.8717,2.8794,2.9063,2.9717,2.9159,2.8794,2.8794,2.8217,2.8159,2.8775,2.8794,2.9198,3.0044,3.0016,3.0087,3.0299,3.026,3.0037,2.9677,2.9417,2.9231,2.8652,2.9284,3.0076,3.0893,3.095,3.1036,3.1796,3.2543,3.2916,3.2443,3.1684,0.0,0.0,0.0,0.0,0.0,0.0,0.0,3.9204,3.9392,3.9681,0.0,4.0835,0.0,4.0527,4.0854,4.0912,0.0,4.0065,3.945,3.8623,3.82,3.7603,3.6738,3.6372,3.5968,3.5493,3.5853,3.5853,3.5493,3.5872,3.5853,3.5493,3.5493,3.5493,3.5449,0.0,3.4193,3.4097,3.3455,3.29,3.2439,3.2648,3.2422,3.2109,3.2988,3.3066,3.2851,3.3672,3.3105,3.1992,3.1992,3.1758,3.1465,3.1465,3.1465,3.1387,3.1016,3.0898,3.0898,3.0898,3.0898,3.0898,3.0898,3.0898,3.0762,3.0273,2.9863,2.9336,2.8476,2.8301,2.8387,2.866,2.8662,2.8723,2.9008,2.939,2.9506,2.9063,2.9025,2.9217,2.966,2.9717,2.991,3.0359,2.9948,2.9679,2.9679,2.9256,2.9198,2.966,2.9679,2.991,3.0379,3.0398,3.0398,3.0398,3.0398,3.0196,2.9829,2.9729,2.9514,3.0422,3.0851,3.1273,3.1605,3.1879,3.2102,3.2223,3.253,3.2707,3.2298,0.0,0.0,3.1172,0.0,3.2592,3.2886,0.0,3.6334,3.8238,3.8507,3.9084,4.0662,4.1508,4.1681,4.0912,4.1412,4.1489,4.0719,4.0566,4.02,3.9488,3.8738,3.795,3.7065,3.6257,3.5834,3.5834,3.6526,3.6469,3.568,3.6488,3.6392,3.5493,3.5622,3.5603,3.5468,0.0,0.0,3.5315,3.4077,3.3903,3.4357,3.3793,3.3496,3.3516,3.4375,3.4219,3.3691,3.457,3.4297,3.3555,3.3437,3.293,3.2344,3.2226,3.2207,3.2031,3.1289,3.1074,3.1094,3.1191,3.123,3.123,3.123,3.1152,3.1074,3.1074,3.0391,2.9531,2.8763,2.8625,2.8837,2.9522,2.9548,2.9694,3.0379,3.0448,3.0398,3.0398,3.0467,3.0487,3.0487,3.0487,3.0467,3.0398,3.0398,3.0398,3.0398,3.0398,3.0398,3.0398,3.0398,3.0398,3.0398,3.0398,3.0398,3.0398,3.0398,3.0254,2.9954,2.978,2.957,3.1776,3.2198,3.2813,3.3533,3.3558,3.3289,3.2655,3.3249,0.0,0.0,0.0,3.1341,3.0405,3.1115,0.0,3.4369,0.0,0.0,0.0,0.0,4.1527,0.0,0.0,0.0,0.0,0.0,0.0,0.0,0.0,4.0431,4.0296,4.0142,3.9681,3.8873,3.8007,3.7565,3.7565,3.77,3.7334,3.6507,3.7353,3.6988,3.5512,3.6199,3.6142,3.5474,3.5411,0.0,3.4487,3.5155,3.4657,3.3511,3.4207,3.4023,3.3516,3.4375,3.4609,3.4609,3.5469,3.5195,3.4355,3.3633,3.3301,3.3066,3.2402,3.2207,3.2168,3.2012,3.1973,3.2129,3.2793,3.2969,3.2969,3.2969,3.2461,3.1973,3.1973,3.1289,3.0593,3.0341,3.0279,3.0288,3.0325,3.0302,3.0321,3.0398,3.0398,3.0417,3.0487,3.0448,3.0417,3.0417,3.0417,3.0398,3.0398,3.0398,3.0398,3.0398,3.0398,3.0398,3.0398,3.0398,3.0398,3.0398,3.0398,3.0398,3.0398,3.0398,3.0188,2.9746,2.9713,2.9456,3.307,3.3528,3.402,3.4574,3.4283,3.3701,3.3064,0.0,0.0,0.0,0.0,3.0647,3.0104,0.0,0.0,0.0,0.0,0.0,0.0,0.0,0.0,0.0,0.0,0.0,0.0,0.0,0.0,0.0,0.0,4.0796,3.9912,3.945,3.9008,3.8642,3.8219,3.8007,3.8007,3.845,3.8238,3.7392,3.8257,3.8027,3.6815,3.7257,3.7271,3.6887,3.6502,0.0,3.5803,3.6362,3.5815,3.4744,3.5682,3.5527,3.4805,3.5215,3.5371,3.5449,3.5859,3.5723,3.5312,3.4883,3.4453,3.4004,3.3613,3.3496,3.3418,3.2949,3.2812,3.291,3.3301,3.3398,3.3398,3.3398,3.3083,3.2654,3.2195,3.1748,3.127,3.0762,3.0644,3.0621,3.0525,3.0506,3.0487,3.0398,3.0398,3.0398,3.0448,3.0417,3.0398,3.0448,3.0448,3.0448,3.0398,3.0398,3.0398,3.0398,3.0398,3.0398,3.0398,3.0398,3.0398,3.0398,3.0398,3.0398,3.0398,3.0254,3.0232,3.0318,2.9795,2.9558,3.4064,3.4548,3.4869,3.5134,3.4611,3.3788,3.2867,3.2227,0.0,0.0,0.0,0.0,0.0,0.0,0.0,0.0,0.0,0.0,0.0,0.0,0.0,0.0,0.0,0.0,0.0,0.0,0.0,0.0,0.0,0.0,3.9642,3.8911,3.8546,3.8546,3.8546,3.8546,3.8546,3.92,3.9123,3.8296,3.9181,3.9046,3.8065,3.8368,3.8392,3.8183,3.7558,0.0,0.0,3.7486,3.7121,3.656,3.7088,3.6875,3.6269,3.6074,3.5996,3.5996,3.5996,3.5996,3.5996,3.5996,3.5547,3.4941,3.4766,3.4707,3.455,3.3868,3.3665,3.3704,3.39,3.391,3.3841,3.3685,3.3595,3.3326,3.2454,3.2222,3.1972,3.1239,3.111,3.109,3.1025,3.1006,3.0948,3.0717,3.0679,3.0609,3.0417,3.0398,3.0417,3.0467,3.0487,3.0467,3.0398,3.0398,3.0398,3.0398,3.0398,3.0475,3.0679,3.0679,3.0756,3.0929,3.0948,3.0948,3.0929,3.0672,3.0766,3.1148,3.0317,3.0098,3.4346,3.4888,3.5172,3.519,3.4815,3.3837,3.1463,0.0,0.0,0.0,2.9421,3.0367,0.0,0.0,0.0,0.0,0.0,0.0,0.0,0.0,0.0,0.0,0.0,0.0,0.0,0.0,0.0,0.0,0.0,0.0,4.0431,4.0296,4.0258,4.0258,4.0258,4.0258,4.0258,4.0335,4.0004,3.9287,4.0158,3.9773,3.831,3.9089,3.9032,3.8296,3.8284,0.0,0.0,3.8394,3.8369,3.8121,3.753,3.7246,3.707,3.6289,3.5996,3.5996,3.5996,3.5996,3.5996,3.5996,3.5957,3.5723,3.4941,3.4707,3.4677,3.4594,3.4552,3.4667,3.5463,3.5582,3.5301,3.4574,3.4393,3.4154,3.3288,3.3083,3.3017,3.282,3.2782,3.275,3.2699,3.2679,3.2429,3.1698,3.1583,3.1295,3.0494,3.0398,3.0398,3.0398,3.0398,3.0398,3.0398,3.0398,3.0398,3.0398,3.0398,3.0756,3.1545,3.1583,3.1929,3.266,3.2679,3.2679,3.2679,3.2412,3.2191,3.2072,3.1738,3.1469,3.4453,3.5221,3.5461,3.5592,3.4295,3.2745,3.1819,0.0,0.0,2.9049,2.9713,3.0448,3.0398,0.0,0.0,0.0,0.0,0.0,0.0,0.0,0.0,0.0,0.0,0.0,0.0,0.0,0.0,0.0,0.0,0.0,4.2302,4.1155,4.0739,4.1277,4.0835,4.087,4.1393,4.0927,4.0523,4.0235,4.059,4.0419,3.9818,4.026,4.0251,3.9886,3.9485,0.0,0.0,3.9354,3.9029,3.8541,3.8764,3.8535,3.7988,3.7109,3.7109,3.7401,3.6327,3.6284,3.662,3.6021,3.581,3.5778,3.55,3.5422,3.5413,3.533,3.5272,3.534,3.5695,3.5746,3.5626,3.5306,3.519,3.4925,3.4058,3.382,3.3622,3.3051,3.2936,3.2936,3.291,3.2891,3.2622,3.1814,3.1698,3.1391,3.0513,3.0871,3.1179,3.1179,3.1179,3.0968,3.0436,3.1333,3.1698,3.1218,3.1641,3.2064,3.241,3.2429,3.2564,3.2891,3.2746,3.2656,3.2656,3.2258,3.2292,3.2655,3.1922,3.1765,3.4053,3.4921,3.5339,3.5474,3.3573,3.1701,0.0,0.0,0.0,2.9387,2.9969,3.0487,3.0448,3.1141,0.0,0.0,0.0,0.0,0.0,0.0,0.0,0.0,0.0,0.0,0.0,0.0,0.0,0.0,0.0,0.0,0.0,4.2234,4.1638,4.2252,4.1524,4.1416,4.2014,4.1202,4.0833,4.085,4.0846,4.0885,4.0914,4.1014,4.1059,4.1022,0.0,0.0,0.0,4.0273,3.9922,3.9394,3.9766,3.9512,3.8887,3.8008,3.8066,3.8374,3.6811,3.6829,3.7352,3.6096,3.587,3.6047,3.5875,3.6007,3.6157,3.5796,3.5862,3.6106,3.6325,3.6372,3.6315,3.6065,3.5968,3.5699,3.4834,3.4622,3.4391,3.3795,3.368,3.368,3.368,3.3468,3.3083,3.2526,3.2218,3.1833,3.1218,3.1679,3.2045,3.2045,3.2295,3.2083,3.1218,3.2218,3.266,3.2083,3.2583,3.2981,3.3158,3.3177,3.3245,3.3436,3.3261,3.3158,3.3158,3.272,3.2799,3.3334,3.2508,3.2412,3.3044,3.384,3.4601,3.4601,3.2759,3.0918,0.0,0.0,0.0,2.9492,3.0037,3.0506,3.0506,3.116,3.1968,3.2756,0.0,0.0,0.0,0.0,0.0,0.0,0.0,0.0,0.0,0.0,0.0,0.0,0.0,0.0,0.0,4.3845,4.3373,4.3374,4.2544,4.2091,4.2105,4.1249,4.0867,4.0985,4.1001,4.1072,4.1191,4.1191,4.1191,0.0,0.0,0.0,0.0,4.1191,4.1172,4.1094,4.0234,3.9883,3.9785,3.8906,3.8594,3.8452,3.7519,3.7719,3.8097,3.6281,3.6285,3.6818,3.5872,3.6243,3.6805,3.5949,3.6276,3.7051,3.7796,3.7988,3.7757,3.6892,3.6699,3.6469,3.5661,3.5488,3.5488,3.5455,3.5455,3.5455,3.5455,3.4757,3.418,3.418,3.343,3.2872,3.2872,3.2872,3.2891,3.2891,3.366,3.3814,3.2949,3.2891,3.2891,3.2891,3.2891,3.3177,3.3767,3.3789,3.4068,3.4676,3.4675,3.4675,3.4675,3.4338,3.4181,3.4176,3.3891,3.377,3.2648,3.301,3.2963,3.3553,3.1807,3.0086,3.0641,0.0,0.0,0.0,3.0103,3.0623,3.0584,3.1742,3.2813,3.3057,3.4487,0.0,0.0,0.0,0.0,0.0,0.0,0.0,0.0,0.0,0.0,0.0,0.0,0.0,0.0,4.5527,4.477,4.3442,4.2632,4.2245,4.2242,4.2007,4.1631,4.115,4.1696,4.1693,4.1191,4.1191,0.0,0.0,0.0,0.0,0.0,4.1191,4.1148,4.1042,4.077,4.0593,4.0413,3.9594,3.9633,3.9877,3.8356,3.8373,3.8796,3.6969,3.6969,3.7406,3.5968,3.5762,3.6089,3.6334,3.6584,3.6935,3.7777,3.8007,3.793,3.7642,3.7584,3.7353,3.6507,3.6334,3.6161,3.5622,3.5493,3.5493,3.5493,3.5276,3.4891,3.4295,3.3968,3.3564,3.2987,3.341,3.3795,3.3795,3.4414,3.4308,3.3013,3.3825,3.4152,3.354,3.3891,3.4225,3.4396,3.4415,3.449,3.4694,3.4467,3.4357,3.4357,3.4068,3.3928,3.391,3.3842,3.3807,0.0,3.2186,3.2113,3.2307,3.0664,0.0,0.0,0.0,0.0,0.0,0.0,3.0754,3.1074,3.2266,3.3316,3.3635,3.5303,0.0,0.0,0.0,0.0,0.0,0.0,0.0,0.0,0.0,0.0,0.0,0.0,0.0,0.0,4.6309,4.5587,4.4046,4.3561,4.3151,4.2837,4.2545,4.1992,4.1211,4.1719,4.168,4.1191,4.1191,0.0,0.0,0.0,0.0,0.0,4.1078,4.0993,4.0933,4.0911,4.088,4.074,4.0245,4.0361,4.0602,3.9094,3.9157,3.958,3.7777,3.7565,3.7738,3.6372,3.5988,3.6257,3.7373,3.768,3.7873,3.8719,3.8931,3.8873,3.8565,3.8488,3.8257,3.7373,3.693,3.6546,3.6065,3.5718,3.5493,3.5493,3.5238,3.4949,3.4718,3.441,3.4122,3.391,3.4265,3.4529,3.4529,3.478,3.458,3.3662,3.4425,3.4717,3.4166,3.449,3.4653,3.4529,3.4508,3.4464,3.4353,3.4165,3.4043,3.4043,3.3876,3.3734,3.3578,3.3578,3.3476,0.0,3.1393,3.1819,3.0986,2.9525,2.8472,0.0,0.0,0.0,0.0,0.0,3.0879,3.1758,3.2628,3.3482,3.4286,3.639,0.0,0.0,0.0,0.0,0.0,0.0,0.0,0.0,0.0,0.0,0.0,0.0,0.0,0.0,4.6285,4.5915,4.5097,4.5058,4.4628,4.3711,4.2969,4.2187,4.1387,4.1445,4.1406,4.1285,4.1285,0.0,0.0,0.0,0.0,0.0,4.0839,4.0777,4.0721,4.077,4.0793,4.0773,4.0773,4.0773,4.0658,3.9773,4.0004,4.0408,3.8719,3.8065,3.7757,3.7012,3.6724,3.7046,3.8661,3.9104,3.9281,4.0146,4.0361,4.0188,3.948,3.9307,3.9058,3.8136,3.7309,3.6695,3.6579,3.5945,3.5446,3.5446,3.4773,3.4505,3.5331,3.4754,3.4524,3.535,3.5223,3.507,3.507,3.4813,3.4674,3.4674,3.4674,3.4674,3.4674,3.4653,3.4508,3.4176,3.4171,3.4068,3.3788,3.3762,3.3762,3.3762,3.3734,3.3522,3.3154,3.3154,3.2921,3.0794,0.0,3.0227,3.0567,2.9803,2.9193,0.0,0.0,0.0,0.0,0.0,3.0742,3.0957,3.2283,3.3411,3.3626,0.0,0.0,0.0,0.0,0.0,0.0,0.0,0.0,0.0,0.0,0.0,0.0,0.0,0.0,0.0,4.6164,4.6022,4.5696,4.5696,4.505,4.3711,4.416,4.3965,4.3125,4.3789,4.3377,4.2032,4.2032,0.0,0.0,0.0,0.0,3.9976,4.0665,4.0461,3.9805,4.0457,4.0658,4.0581,4.0581,4.0581,4.0543,4.0331,4.0389,4.0485,4.0046,3.8584,3.7055,3.7319,3.706,3.6796,3.7199,3.7153,3.7328,3.882,3.9051,3.8986,3.9442,3.9515,3.9117,3.7639,3.7165,3.6633,3.542,3.5022,3.4889,3.4889,3.4718,3.4642,3.4851,3.4699,3.4661,3.4851,3.4832,3.4793,3.4793,3.451,3.4334,3.4334,3.4334,3.4334,3.4334,3.4117,3.3979,3.3902,3.3902,3.385,3.3807,3.3494,3.3332,3.3332,3.2965,3.2745,3.2648,3.2648,3.2616,3.0245,2.9898,2.9494,2.9464,2.9052,2.8758,2.9201,0.0,0.0,0.0,0.0,0.0,3.121,0.0,0.0,0.0,0.0,0.0,0.0,0.0,0.0,0.0,0.0,0.0,0.0,0.0,0.0,0.0,0.0,0.0,0.0,4.6008,4.5954,4.5899,4.5899,4.5337,4.4181,4.4629,4.4415,4.3576,4.4044,4.3753,4.2782,4.2396,4.1909,0.0,0.0,0.0,4.0134,4.0581,4.0427,3.9946,4.0427,4.0562,4.0489,4.0489,4.0489,4.0489,4.0489,4.0406,4.0285,4.0138,3.9147,3.8023,3.7946,3.7681,3.7355,3.6991,3.7319,3.802,3.8929,3.905,3.9075,3.9505,3.9599,3.9241,3.798,3.7395,3.6713,3.5507,3.4939,3.4694,3.4694,3.4694,3.4694,3.4694,3.4694,3.4694,3.4694,3.4572,3.4467,3.4467,3.4213,3.4018,3.4018,3.4345,3.44,3.4055,3.4244,3.4257,3.404,3.4069,3.3964,3.3719,3.3486,3.3377,3.3377,3.2793,3.2384,3.2161,3.2161,3.2074,2.935,2.93,2.9148,2.8604,2.8324,2.82,0.0,0.0,0.0,0.0,0.0,0.0,0.0,0.0,0.0,0.0,0.0,0.0,0.0,0.0,0.0,0.0,0.0,0.0,0.0,0.0,0.0,0.0,0.0,0.0,0.0,4.5873,4.5873,4.5853,4.5853,4.5457,4.4647,4.4802,4.4511,4.3782,4.3782,4.3704,4.3539,4.2806,4.2325,0.0,0.0,0.0,4.0485,4.0523,4.045,4.0315,4.0399,4.0441,4.0422,4.037,4.0353,4.0353,4.0353,4.0212,3.9982,3.969,3.9505,3.9255,3.8493,3.8244,3.8089,3.7351,3.8131,3.919,3.9322,3.9317,3.9306,3.9438,3.9457,3.9231,3.8446,3.7671,3.6919,3.6133,3.5415,3.4908,3.4776,3.4757,3.4701,3.4588,3.4569,3.4569,3.4569,3.4311,3.4203,3.4314,3.4138,3.3963,3.389,3.4531,3.4595,3.3826,3.4585,3.4877,3.4379,3.4411,3.4232,3.3793,3.3688,3.3671,3.3653,3.2984,3.2423,3.2024,3.2024,3.1794,2.8599,2.8327,2.8538,2.9813,2.9525,2.9132,0.0,0.0,0.0,0.0,0.0,0.0,0.0,0.0,0.0,0.0,0.0,0.0,0.0,0.0,0.0,0.0,0.0,0.0,0.0,0.0,0.0,0.0,0.0,0.0,0.0,4.583,4.5757,4.5643,4.5643,4.5235,4.4376,4.5244,4.5648,4.5514,4.5514,4.5089,4.4334,4.4193,4.3294,0.0,0.0,4.0924,3.9565,4.035,4.0215,3.9531,3.9964,4.0158,4.0139,3.9821,3.9735,3.9735,3.9735,3.9712,3.9668,3.9622,3.9109,3.8437,3.806,3.7958,3.788,3.7535,3.7302,3.7305,3.7977,3.7988,3.7995,3.8685,3.8833,3.8612,3.7829,3.7534,3.7192,3.6381,3.6141,3.5827,3.5063,3.4934,3.4713,3.4039,3.3928,3.3928,3.3928,3.3876,3.4126,3.4798,3.4844,3.4676,3.4335,3.4413,3.424,3.3692,3.4771,3.5202,3.4659,3.4659,3.4624,3.4535,3.4204,3.4012,3.4012,3.3516,3.324,3.3175,3.3175,3.2824,2.7509,2.7344,2.7554,2.8663,2.8255,0.0,0.0,0.0,0.0,0.0,0.0,0.0,0.0,0.0,0.0,0.0,0.0,0.0,0.0,0.0,0.0,0.0,0.0,0.0,0.0,0.0,0.0,0.0,0.0,0.0,0.0,0.0,4.5643,4.5586,4.5586,4.5413,4.5009,4.5507,4.5507,4.5028,4.5526,4.5507,4.5064,4.416,4.3188,4.22,0.0,4.0405,3.949,3.9929,3.9852,3.949,3.973,3.9819,3.9797,3.9645,3.9599,3.9576,3.9389,3.9314,3.9308,3.9163,3.884,3.8488,3.8368,3.8329,3.8309,3.8198,3.7963,3.7876,3.8227,3.8239,3.823,3.8615,3.8707,3.8487,3.7661,3.7507,3.7179,3.6061,3.5884,3.5647,3.4961,3.4515,3.4119,3.3741,3.3358,3.325,3.3633,3.3687,3.3993,3.4785,3.4824,3.476,3.4595,3.4954,3.4939,3.4287,3.4942,3.5236,3.5049,3.5139,3.5013,3.4599,3.4391,3.4301,3.4301,3.3345,3.284,3.284,3.2496,3.2161,2.6458,2.6504,2.6664,2.6918,0.0,0.0,0.0,0.0,0.0,0.0,0.0,0.0,0.0,0.0,0.0,0.0,0.0,0.0,0.0,0.0,0.0,0.0,0.0,0.0,0.0,0.0,0.0,0.0,0.0,0.0,0.0,0.0,4.5362,4.5362,4.5362,4.5266,4.5055,4.5266,4.5112,4.4605,4.5206,4.5495,4.5456,4.4077,4.3196,4.2686,4.1409,4.0482,3.9882,3.9882,3.9769,3.9599,3.951,3.9432,3.9402,3.9402,3.9402,3.9352,3.909,3.9027,3.8971,3.8762,3.8707,3.8707,3.8707,3.8707,3.8707,3.8707,3.8707,3.8707,3.8707,3.8707,3.8707,3.8707,3.8578,3.8332,3.7741,3.7502,3.7144,3.6116,3.589,3.5699,3.5102,3.45,3.4058,3.3882,3.3386,3.3227,3.3776,3.3846,3.4147,3.4906,3.4995,3.4958,3.4849,3.53,3.5349,3.4791,3.5201,3.5469,3.5387,3.5504,3.5351,3.4776,3.4594,3.4505,3.4505,3.3271,3.2684,3.2684,3.2144,3.1851,2.5717,2.591,2.6149,2.5373,0.0,0.0,0.0,0.0,0.0,0.0,0.0,0.0,0.0,0.0,0.0,0.0,0.0,0.0,0.0,0.0,0.0,0.0,0.0,0.0,0.0,0.0,0.0,0.0,0.0,0.0,0.0,0.0,0.0,4.4657,4.4657,4.4279,4.346,4.4279,4.495,4.549,4.5264,4.5137,4.5118,4.4692,4.4027,4.3246,4.3108,4.2184,4.0702,4.0702,4.0273,3.9576,3.9264,3.899,3.8762,3.8762,3.8762,3.878,3.875,3.8719,3.8719,3.8707,3.8707,3.8707,3.8707,3.8707,3.8707,3.8707,3.8707,3.8707,3.8707,3.8707,3.8707,3.8707,3.83,3.7928,3.7873,3.7542,3.7197,3.7106,3.7088,3.6803,3.5968,3.5754,3.5472,3.473,3.4588,3.4571,3.4624,3.4624,3.4942,3.5719,3.5807,3.5676,3.5288,3.4846,3.4584,3.4516,3.5624,3.6096,3.5627,3.5588,3.5588,3.5537,3.4922,3.4605,3.4605,3.3858,3.3489,3.3489,3.3489,3.3092,2.5379,2.5722,2.5911,2.5072,0.0,0.0,0.0,0.0,0.0,0.0,0.0,0.0,0.0,0.0,0.0,0.0,0.0,0.0,0.0,0.0,0.0,0.0,0.0,0.0,0.0,0.0,0.0,0.0,0.0,0.0,0.0,0.0,0.0,4.458,4.458,4.4429,4.4108,4.4429,4.4732,4.4988,4.4849,4.4516,4.3985,4.3838,4.3224,4.2248,4.2239,4.1763,4.0956,4.0436,4.0076,3.9713,3.9116,3.8773,3.8707,3.8707,3.8707,3.8707,3.8707,3.8707,3.8707,3.8707,3.8707,3.8627,3.83,3.8528,3.8733,3.7987,3.8115,3.8491,3.8643,3.8465,3.8216,3.8216,3.7808,3.747,3.747,3.7323,3.7097,3.6764,3.6684,3.6516,3.5852,3.5322,3.4909,3.4616,3.4186,3.4048,3.4513,3.4582,3.4874,3.5631,3.5717,3.565,3.5514,3.4908,3.4572,3.4572,3.5402,3.5827,3.5622,3.5207,3.4988,3.4988,3.4333,3.3987,3.3987,3.3287,3.2986,3.3002,3.2516,3.216,2.5096,2.5327,2.5399,0.0,0.0,0.0,0.0,0.0,0.0,0.0,0.0,0.0,0.0,0.0,0.0,0.0,0.0,0.0,0.0,0.0,0.0,0.0,0.0,0.0,0.0,0.0,0.0,0.0,0.0,0.0,0.0,0.0,0.0,0.0,4.4252,4.4252,4.4252,4.4252,4.4252,4.4252,4.4252,4.399,4.3517,4.3418,4.2938,4.2198,4.2187,4.1939,4.1442,4.0873,4.0359,3.9808,3.9019,3.8707,3.8707,3.8707,3.8707,3.8713,3.8789,3.8634,3.8469,3.8543,3.8583,3.8515,3.8151,3.8527,3.8936,3.8135,3.8267,3.8706,3.8867,3.829,3.7685,3.7685,3.7323,3.696,3.696,3.6825,3.6603,3.6224,3.6139,3.6011,3.565,3.5182,3.4844,3.4844,3.4421,3.4286,3.4776,3.4844,3.5047,3.5571,3.5407,3.5299,3.5299,3.4688,3.4284,3.4284,3.4688,3.4958,3.4958,3.4544,3.4284,3.4284,3.3633,3.3287,3.3287,3.2571,3.2272,3.2216,3.1754,3.1482,2.4804,2.4673,0.0,0.0,0.0,0.0,0.0,0.0,0.0,0.0,0.0,0.0,0.0,0.0,0.0,0.0,0.0,0.0,0.0,0.0,0.0,0.0,0.0,0.0,0.0,0.0,0.0,0.0,0.0,0.0,0.0,0.0,0.0,0.0,4.3497,4.3497,4.3497,4.3497,4.3497,4.3497,4.3497,4.366,4.3967,4.3646,4.3497,4.3479,4.3497,4.3039,4.2304,4.2286,4.1332,3.9808,3.9019,3.8707,3.8707,3.8707,3.8707,3.8724,3.8918,3.8526,3.7952,3.8209,3.832,3.832,3.828,3.881,3.9411,3.9411,3.9411,3.937,3.9411,3.832,3.719,3.719,3.6803,3.6374,3.6374,3.5968,3.5622,3.5622,3.5622,3.5622,3.5622,3.5622,3.5622,3.5622,3.5577,3.5577,3.5577,3.5577,3.5577,3.5577,3.5005,3.4576,3.4592,3.3987,3.3598,3.3598,3.3598,3.3598,3.3582,3.3582,3.3582,3.3582,3.2933,3.2586,3.2602,3.1853,3.1482,3.1482,3.1482,3.1482,2.476,0.0,0.0,0.0,0.0,0.0,0.0,0.0,0.0,0.0,0.0,0.0,0.0,0.0,0.0,0.0,0.0,0.0,0.0,0.0,0.0,0.0,0.0,0.0,0.0,0.0,0.0,0.0,0.0,0.0,0.0,0.0,0.0,0.0,4.3497,4.3497,4.3497,4.3497,4.3497,4.3497,4.3497,4.3254,4.2834,4.329,4.3185,4.269,4.324,4.3351,4.3057,4.1919,4.0836,3.9808,3.9019,3.8465,3.8204,3.8715,3.8706,3.8507,3.9067,3.9135,3.8954,3.9027,3.9075,3.8977,3.8604,3.9016,3.9433,3.8562,3.8711,3.9003,3.8471,3.7659,3.699,3.7321,3.6603,3.5827,3.5827,3.5694,3.5622,3.5622,3.5622,3.5622,3.5622,3.5622,3.5622,3.5622,3.5207,3.4752,3.4252,3.4202,3.4202,3.4202,3.4037,3.4097,3.453,3.3931,3.3513,3.3513,3.3116,3.3067,3.3563,3.3145,3.2895,3.2895,3.2216,3.1853,3.1853,3.1582,3.1482,3.1482,3.2003,3.2213,2.4528,0.0,0.0,0.0,0.0,0.0,0.0,0.0,0.0,0.0,0.0,0.0,0.0,0.0,0.0,0.0,0.0,0.0,0.0,0.0,0.0,0.0,0.0,0.0,0.0,0.0,0.0,0.0,0.0,0.0,0.0,0.0,0.0,0.0,4.3497,4.3497,4.3497,4.3497,4.341,4.3178,4.3178,4.2796,4.2122,4.3066,4.3222,4.2782,4.2947,4.288,4.2575,4.0988,4.0086,3.9659,3.8846,3.8509,3.8562,3.8972,3.8978,3.8788,3.9357,3.9326,3.9073,3.919,3.9251,3.918,3.8883,3.926,3.9696,3.8967,3.9089,3.9326,3.8886,3.8227,3.7661,3.7689,3.6877,3.6079,3.6079,3.6315,3.6434,3.6129,3.6315,3.6434,3.6129,3.5816,3.5542,3.5258,3.4839,3.4459,3.405,3.4202,3.4377,3.4377,3.4149,3.4092,3.4518,3.3908,3.3478,3.3478,3.311,3.3107,3.3543,3.2906,3.2695,3.2955,3.2538,3.2317,3.2317,3.2317,3.2317,3.2317,3.233,3.2568,0.0,0.0,0.0,0.0,0.0,0.0,0.0,0.0,0.0,0.0,0.0,0.0,0.0,0.0,0.0,0.0,0.0,0.0,0.0,0.0,0.0,0.0,0.0,0.0,0.0,0.0,0.0,0.0,0.0,0.0,0.0,0.0,0.0,4.3497,4.3444,4.3444,4.3497,4.341,4.3124,0.0,4.2655,4.2342,4.1853,4.2847,4.3356,4.332,4.2553,4.1977,4.1412,3.986,3.9367,3.9527,3.8709,3.8793,3.9329,3.94,3.9394,3.9417,3.9638,3.9312,3.8773,3.903,3.9089,3.9089,3.9089,3.9546,4.007,4.007,4.007,4.007,4.007,3.9529,3.8853,3.8244,3.7483,3.6874,3.6874,3.7432,3.7702,3.6962,3.732,3.7573,3.6835,3.6107,3.5432,3.4628,3.453,3.4542,3.4425,3.499,3.5395,3.5395,3.4815,3.4426,3.4488,3.3955,3.3589,3.3589,3.3589,3.3589,3.3589,3.2961,3.2886,3.3484,3.3499,3.3499,3.3499,3.3499,3.3423,3.3362,3.2547,3.2576,0.0,0.0,0.0,0.0,0.0,0.0,0.0,0.0,0.0,0.0,0.0,0.0,0.0,0.0,0.0,0.0,0.0,0.0,0.0,0.0,0.0,0.0,0.0,0.0,0.0,0.0,0.0,0.0,0.0,0.0,0.0,0.0,0.0,4.3497,4.3087,4.305,4.3497,4.26,4.2342,0.0,4.2203,4.1937,4.181,4.2044,4.2185,4.2167,4.1966,4.1836,4.1641,4.0659,4.0294,4.03,3.9464,3.9006,3.8834,3.9398,3.9388,3.9187,3.9793,3.9897,3.9795,3.9833,3.9834,3.9834,3.9834,3.9952,4.007,4.007,4.007,4.007,4.007,3.9529,3.9106,3.9512,3.8616,3.7669,3.7669,3.7787,3.7694,3.6887,3.6836,3.6734,3.6015,3.5717,3.5176,3.3904,3.417,3.4167,3.3115,3.353,3.3939,3.3939,3.3834,3.3924,3.4437,3.4373,3.4262,3.4262,3.4262,3.4262,3.4262,3.3634,3.335,3.3499,3.3499,3.3499,3.3499,3.3499,3.3084,3.2425,3.2739,3.2559,0.0,0.0,0.0,0.0,0.0,0.0,0.0,0.0,0.0,0.0,0.0,0.0,0.0,0.0,0.0,0.0,0.0,0.0,0.0,0.0,0.0,0.0,0.0,0.0,0.0,0.0,0.0,0.0,0.0,0.0,0.0,4.2696,4.2696,4.2696,4.2404,4.2404,4.2678,4.2103,4.1793,4.1835,4.1534,4.1223,4.0984,4.1552,4.181,4.1775,4.1379,4.1075,4.0806,3.9991,3.973,3.9794,3.9396,3.9221,3.9367,3.9778,3.9756,3.9563,3.9952,4.007,4.007,4.007,4.007,4.007,4.007,4.007,4.007,4.007,4.007,4.007,4.007,3.9513,3.9022,3.9458,3.8671,3.787,3.787,3.7866,3.7617,3.6869,3.6734,3.6627,3.6206,3.5261,3.4373,3.3628,3.38,3.3849,3.3516,3.4038,3.4457,3.4457,3.4457,3.4592,3.4936,3.4966,3.4966,3.4966,3.4966,3.4966,3.4966,3.4637,3.4457,3.4457,3.4457,3.4237,3.373,3.373,3.326,3.2365,3.2208,3.2151,0.0,0.0,0.0,0.0,0.0,0.0,0.0,0.0,0.0,0.0,0.0,0.0,0.0,0.0,0.0,0.0,0.0,0.0,0.0,0.0,0.0,0.0,0.0,0.0,0.0,0.0,0.0,0.0,0.0,0.0,4.1853,4.181,4.181,4.181,4.1707,4.1707,4.181,4.1578,4.1313,4.0903,4.0827,4.0528,4.0121,4.1076,4.1508,4.1473,4.0797,4.0254,3.9813,3.9008,3.8858,3.9174,3.9039,3.9445,4.007,4.007,4.007,4.007,4.007,4.007,4.007,4.007,4.007,4.007,4.007,4.002,3.9901,3.9901,3.9799,3.9679,3.9679,3.9209,3.869,3.869,3.8123,3.7644,3.7768,3.7785,3.7588,3.681,3.6626,3.6584,3.6469,3.5007,3.3811,3.3712,3.3769,3.3993,3.4427,3.5085,3.5504,3.5504,3.5504,3.5504,3.5504,3.5504,3.5504,3.5504,3.5504,3.5424,3.5279,3.5213,3.5133,3.5001,3.5133,3.4839,3.4027,3.3808,3.331,3.2321,3.1536,3.1536,0.0,0.0,0.0,0.0,0.0,0.0,0.0,0.0,0.0,0.0,0.0,0.0,0.0,0.0,0.0,0.0,0.0,0.0,0.0,0.0,0.0,0.0,0.0,0.0,0.0,0.0,0.0,0.0,0.0,0.0,4.1793,4.181,4.181,4.181,4.1296,4.1268,4.1793,4.0814,4.0497,4.0903,4.0417,4.0154,4.0138,4.0254,4.0353,4.0336,4.0184,4.0101,4.0,3.927,3.9357,3.9868,3.9242,3.9445,4.007,4.007,4.007,4.007,4.007,4.007,4.007,4.007,4.007,4.007,4.007,3.961,3.9086,3.9086,3.858,3.8108,3.8108,3.8035,3.7921,3.7921,3.7361,3.6943,3.7662,3.7799,3.7541,3.6794,3.609,3.5646,3.5661,3.5398,3.5048,3.4475,3.4861,3.5055,3.4547,3.5085,3.5504,3.5504,3.5504,3.5504,3.5504,3.5504,3.5504,3.5504,3.5504,3.5133,3.4245,3.4177,3.3822,3.3031,3.3822,3.4095,3.4027,3.3171,3.2321,3.1389,3.1241,3.0833,0.0,0.0,0.0,0.0,0.0,0.0,0.0,0.0,0.0,0.0,0.0,0.0,0.0,0.0,0.0,0.0,0.0,0.0,0.0,0.0,0.0,0.0,0.0,0.0,0.0,0.0,0.0,0.0,0.0,4.1178,4.0844,4.0861,4.0861,4.0861,4.0594,4.0594,4.0861,4.0336,4.0204,4.0449,4.0204,4.007,4.007,4.007,4.007,4.007,4.007,4.007,4.0054,3.9732,3.9783,4.0054,3.9732,3.9783,4.007,4.007,4.007,4.007,4.007,3.9782,3.9437,3.9437,3.9156,3.8832,3.8832,3.8541,3.8302,3.8302,3.8035,3.7822,3.7822,3.7456,3.716,3.716,3.6508,3.6054,3.643,3.6492,3.6307,3.5552,3.5461,3.5385,3.4996,3.4936,3.4966,3.504,3.4981,3.4966,3.504,3.5325,3.5504,3.5504,3.5504,3.5504,3.5504,3.4986,3.4691,3.4691,3.4192,3.3685,3.3241,3.3241,3.3031,3.2593,3.3031,3.2961,3.2464,3.2033,3.1328,3.0419,3.0419,3.0216,0.0,0.0,0.0,0.0,0.0,0.0,0.0,0.0,0.0,0.0,0.0,0.0,0.0,0.0,0.0,0.0,0.0,0.0,0.0,0.0,0.0,0.0,0.0,0.0,0.0,0.0,0.0,0.0,0.0,4.0528,4.0121,4.007,4.007,4.007,4.007,4.007,4.007,4.007,4.007,4.007,4.007,4.007,4.007,4.007,4.007,4.007,4.007,4.007,4.007,3.9884,3.9918,4.0054,3.9868,3.98,3.9782,3.9782,3.9679,3.9506,3.9506,3.9102,3.8635,3.8635,3.8262,3.7822,3.7822,3.7632,3.7515,3.7515,3.7354,3.7251,3.7251,3.6753,3.6337,3.6337,3.5894,3.5504,3.5504,3.5504,3.5355,3.4846,3.516,3.534,3.4831,3.4741,3.4906,3.5429,3.507,3.4921,3.5444,3.5504,3.5504,3.5504,3.5279,3.5133,3.5133,3.4177,3.3671,3.3671,3.2961,3.2464,3.2249,3.2249,3.2105,3.1901,3.1901,3.1683,3.118,3.097,3.0482,2.9792,2.9792,2.9792,0.0,0.0,0.0,0.0,0.0,0.0,0.0,0.0,0.0,0.0,0.0,0.0,0.0,0.0,0.0,0.0,0.0,0.0,0.0,0.0,0.0,0.0,0.0,0.0,0.0,0.0,0.0,0.0,0.0,4.0121,4.007,4.007,4.007,4.007,4.007,4.007,4.007,4.007,4.007,4.007,4.007,4.007,4.007,4.007,4.007,4.007,4.007,4.007,4.002,3.9343,3.9462,4.0003,3.9326,3.9008,3.8962,3.8962,3.8525,3.7921,3.7921,3.7863,3.7863,3.7863,3.7806,3.7822,3.7822,3.7279,3.6661,3.6661,3.618,3.5619,3.5619,3.5554,3.5554,3.5554,3.5504,3.5504,3.5504,3.5504,3.5489,3.5459,3.5489,3.5489,3.5459,3.5444,3.5459,3.5504,3.5474,3.5459,3.5504,3.5504,3.5504,3.5504,3.4624,3.4095,3.4095,3.3241,3.2664,3.2664,3.2593,3.2177,3.1315,3.1241,3.0833,2.9934,2.9934,3.0343,3.118,3.0279,2.9869,2.9792,2.9792,2.9792,0.0,0.0,0.0,0.0,0.0,0.0,0.0,0.0,0.0,0.0,0.0,0.0,0.0,0.0,0.0,0.0,0.0,0.0,0.0,0.0,0.0,0.0,0.0,0.0,0.0,0.0,0.0,0.0,0.0,0.0,4.007,4.007,4.007,4.007,4.007,4.007,4.007,4.007,4.007,4.007,3.961,3.9315,3.9315,3.8832,3.8596,3.8596,3.8596,3.8887,3.9299,3.9032,3.8817,3.858,3.8319,3.8219,3.8189,3.8189,3.8035,3.7822,3.7822,3.7456,3.7024,3.7024,3.6707,3.6321,3.6321,3.6133,3.5894,3.5894,3.5733,3.5504,3.5504,3.5504,3.5504,3.5504,3.5504,3.5504,3.5504,3.5504,3.5504,3.5504,3.5504,3.5504,3.5504,3.5504,3.5504,3.5504,3.5504,3.5279,3.461,3.4543,3.4327,3.3685,3.3325,3.3101,3.3101,3.2249,3.1669,3.1669,3.1119,3.0633,3.0355,3.0279,3.0139,2.9792,2.9792,3.0011,3.0279,2.9921,2.9792,2.9792,2.9792,2.9792,0.0,0.0,0.0,0.0,0.0,0.0,0.0,0.0,0.0,0.0,0.0,0.0,0.0,0.0,0.0,0.0,0.0,0.0,0.0,0.0,0.0,0.0,0.0,0.0,0.0,0.0,0.0,0.0,0.0,0.0,4.007,4.007,4.007,4.007,3.9833,3.9613,3.9378,3.9337,3.9215,3.9018,3.8701,3.8525,3.8525,3.8035,3.7822,3.7822,3.7822,3.8092,3.8525,3.8525,3.8246,3.7822,3.7822,3.7632,3.7397,3.7397,3.7235,3.7011,3.7011,3.6707,3.6228,3.6228,3.5894,3.5504,3.5504,3.5504,3.5504,3.5504,3.5504,3.5504,3.5504,3.5504,3.5504,3.5504,3.5504,3.5504,3.5504,3.5504,3.5504,3.5504,3.5504,3.5504,3.5504,3.5213,3.4986,3.4986,3.4706,3.4274,3.3602,3.3518,3.331,3.2664,3.2321,3.2105,3.2105,3.1254,3.0771,3.0771,3.0139,2.9792,2.9792,2.9792,2.9792,2.9792,2.9792,2.9792,2.9792,2.9792,2.9792,2.9792,2.9792,2.9792,0.0,0.0,0.0,0.0,0.0,0.0,0.0,0.0,0.0,0.0,0.0,0.0,0.0,0.0,0.0,0.0,0.0,0.0,0.0,0.0,0.0,0.0,0.0,0.0,0.0,0.0,0.0,0.0,0.0,4.002,4.002,4.002,4.002,4.002,3.9246,3.8562,3.7956,3.7818,3.7406,3.679,3.7454,3.7732,3.7748,3.7748,3.7764,3.7764,3.7764,3.7764,3.7748,3.7764,3.7764,3.7764,3.7764,3.7263,3.6554,3.6554,3.6102,3.5504,3.5504,3.5504,3.5504,3.5504,3.5504,3.5504,3.5504,3.5504,3.5504,3.5504,3.5504,3.5504,3.5504,3.5504,3.5504,3.5504,3.5504,3.5504,3.5504,3.5504,3.5439,3.5504,3.5504,3.5504,3.5439,3.4624,3.4027,3.3959,3.3171,3.2593,3.2522,3.2522,3.2522,3.2522,3.1669,3.118,3.118,3.0355,2.9792,2.9792,2.9792,2.9792,2.9792,2.9792,2.9792,2.9792,2.9792,2.9792,2.9792,2.9792,2.9792,2.9792,2.9792,2.9792,2.4243,0.0,0.0,0.0,0.0,0.0,0.0,0.0,0.0,0.0,0.0,0.0,0.0,0.0,0.0,0.0,0.0,0.0,0.0,0.0,0.0,0.0,0.0,0.0,0.0,0.0,0.0,0.0,3.8428,3.8446,3.8446,3.8446,3.8446,3.8446,3.7744,3.7316,3.7122,3.658,3.6469,3.679,3.6411,3.6479,3.6904,3.6352,3.6148,3.6148,3.6148,3.6148,3.6196,3.6692,3.6646,3.6148,3.6148,3.6022,3.5782,3.5782,3.5668,3.5504,3.5504,3.5504,3.5504,3.5504,3.5504,3.5504,3.5504,3.5504,3.5504,3.5504,3.5504,3.5504,3.5504,3.5504,3.5504,3.5504,3.5504,3.5504,3.5504,3.492,3.461,3.5359,3.5504,3.5279,3.4543,3.4177,3.3739,3.3101,3.2749,3.2321,3.1669,3.1609,3.1328,3.0633,3.0355,3.0216,3.0216,2.9934,2.9792,2.9792,2.9792,2.9792,2.9792,2.9792,2.9792,2.9792,2.9792,2.9792,2.9792,2.9792,2.9792,2.9792,2.9792,2.9792,0.0,0.0,0.0,0.0,0.0,0.0,2.8719,2.9988,0.0,0.0,0.0,0.0,0.0,0.0,0.0,0.0,0.0,0.0,0.0,0.0,0.0,0.0,0.0,0.0,0.0,0.0,0.0,3.7427,3.7633,3.7822,3.7822,3.7822,3.7678,3.7374,3.6657,3.6052,3.5522,3.5316,3.5283,3.5408,3.5537,3.5736,3.6117,3.5668,3.5504,3.5504,3.5504,3.5504,3.5504,3.5943,3.5894,3.5504,3.5504,3.5504,3.5504,3.5504,3.5504,3.5504,3.5504,3.5504,3.5504,3.5504,3.5504,3.5504,3.5504,3.5504,3.5504,3.5504,3.5504,3.5504,3.5504,3.5504,3.5504,3.5504,3.5213,3.4839,3.4839,3.4109,3.3685,3.4691,3.4558,3.4109,3.3533,3.3101,3.2664,3.2105,3.1683,3.1193,3.0696,3.0633,3.0419,2.9869,2.9792,2.9792,2.9792,2.9792,2.9792,2.9792,2.9792,2.9792,2.9792,2.9792,2.9905,3.0131,3.0131,3.0244,3.0457,3.0018,2.9792,2.9804,3.003,3.0018,0.0,0.0,0.0,0.0,0.0,0.0,2.7725,2.9022,3.0315,0.0,0.0,0.0,0.0,0.0,0.0,0.0,0.0,0.0,0.0,0.0,0.0,0.0,0.0,0.0,0.0,3.6222,3.6621,3.6662,3.7154,3.7451,3.7515,3.7372,3.7128,3.6692,3.5841,3.4883,3.3826,3.4213,3.4113,3.3619,3.4816,3.5429,3.5504,3.5504,3.5504,3.5504,3.5504,3.5504,3.5504,3.5504,3.5504,3.5504,3.5504,3.5504,3.5504,3.5504,3.5504,3.5504,3.5504,3.5504,3.5504,3.5504,3.5504,3.5504,3.5504,3.5504,3.5504,3.5504,3.5504,3.5504,3.5504,3.5504,3.5504,3.5504,3.4758,3.4027,3.4027,3.3227,3.2747,3.3547,3.3101,3.2593,3.2464,3.1742,3.1193,3.1123,3.0445,2.988,2.988,2.988,2.9867,2.9804,2.9792,2.9792,2.9792,2.9792,2.9792,2.9792,2.9792,2.9792,2.9792,2.9792,3.0055,3.0608,3.067,3.0922,3.1386,3.0432,2.9967,2.998,3.047,3.0353,0.0,0.0,0.0,0.0,0.0,0.0,2.9308,3.0664,3.1892,0.0,0.0,0.0,0.0,0.0,0.0,0.0,0.0,0.0,0.0,0.0,0.0,0.0,0.0,0.0,0.0,3.5789,3.577,3.5786,3.5401,3.5381,3.5943,3.4926,3.4774,3.573,3.4529,3.403,3.4316,3.3937,3.3888,3.4292,3.4547,3.4966,3.5504,3.5504,3.5504,3.5504,3.5504,3.5504,3.5504,3.5504,3.5504,3.5504,3.5504,3.5504,3.5504,3.5504,3.5504,3.5504,3.5504,3.5504,3.5504,3.5504,3.5504,3.5504,3.5504,3.5504,3.5504,3.5504,3.5504,3.5504,3.5504,3.5504,3.5504,3.5504,3.4758,3.4027,3.4027,3.298,3.2022,3.1763,3.2249,3.2393,3.1609,3.1315,3.1052,3.0737,3.0524,3.0457,3.0457,3.0457,3.0281,2.9842,2.9792,2.9792,2.9792,2.9792,2.9792,2.9792,2.9792,2.9792,2.9792,2.9792,3.0055,3.0608,3.1022,3.1286,3.1386,3.1185,3.1085,3.1085,3.1185,3.0671,0.0,0.0,0.0,2.4164,0.0,0.0,0.0,2.9138,3.0469,0.0,0.0,0.0,0.0,0.0,0.0,0.0,0.0,0.0,0.0,0.0,0.0,0.0,0.0,0.0,0.0,3.5087,3.5049,3.4988,3.4708,3.4771,3.5474,3.4547,3.4292,3.4966,3.4337,3.3978,3.3978,3.3978,3.4143,3.4472,3.4831,3.5175,3.5504,3.5504,3.5504,3.5504,3.5504,3.5504,3.5504,3.5504,3.5504,3.5504,3.5504,3.5504,3.5504,3.5504,3.5504,3.5504,3.5504,3.5504,3.5504,3.5504,3.5504,3.5504,3.5504,3.5504,3.5504,3.5504,3.5133,3.4758,3.4758,3.4409,3.4056,3.4056,3.3325,3.2593,3.2593,3.1702,3.0907,3.0907,3.1263,3.1478,3.0984,3.0907,3.0945,3.0989,3.0997,3.0997,3.0997,3.0997,3.0796,3.0269,3.0206,3.0093,2.9817,2.9792,2.9905,3.0181,3.0206,3.0319,3.0583,3.0595,3.0846,3.1399,3.1951,3.2227,3.2227,3.16,3.1052,3.0526,3.0193,2.9562,0.0,0.0,0.0,0.0,0.0,2.5982,0.0,0.0,0.0,0.0,0.0,0.0,0.0,0.0,0.0,0.0,0.0,0.0,0.0,0.0,0.0,0.0,0.0,0.0,0.0,3.4606,3.4666,3.4666,3.4547,3.4771,3.5474,3.4726,3.4412,3.4666,3.4547,3.4277,3.3888,3.4412,3.4666,3.4681,3.5235,3.5504,3.5504,3.5504,3.5504,3.5504,3.5504,3.5504,3.5504,3.5504,3.5504,3.5504,3.5504,3.5504,3.5504,3.5504,3.5504,3.5504,3.5504,3.5504,3.5504,3.5504,3.5504,3.5469,3.5442,3.5406,3.537,3.5274,3.4704,3.4013,3.3884,3.3438,3.2925,3.28,3.2144,3.151,3.151,3.0817,3.0357,3.0696,3.0859,3.0884,3.0783,3.0758,3.0947,3.1474,3.1549,3.1549,3.1549,3.1549,3.1348,3.0821,3.0758,3.0583,3.0131,3.0105,3.0294,3.0733,3.0758,3.0947,3.1373,3.1486,3.1763,3.2202,3.278,3.3081,3.3081,3.1589,3.052,2.9889,2.9067,2.8411,0.0,0.0,0.0,0.0,2.4566,0.0,0.0,0.0,0.0,0.0,0.0,0.0,0.0,0.0,0.0,0.0,0.0,0.0,0.0,0.0,0.0,0.0,0.0,0.0,0.0,0.0,3.5385,3.5385,3.4816,3.4771,3.5474,3.4292,3.4158,3.5355,3.4801,3.4741,3.5265,3.5355,3.5385,3.5385,3.5474,3.5504,3.5504,3.5504,3.5504,3.5504,3.5504,3.5504,3.5504,3.5504,3.5504,3.5504,3.5504,3.5504,3.5504,3.5504,3.5504,3.5504,3.5504,3.5504,3.5504,3.5504,3.5504,3.5398,3.5107,3.499,3.488,3.4542,3.4311,3.4112,3.3619,3.3822,3.3949,3.3459,3.2925,3.2633,3.2633,3.2269,3.1813,3.1386,3.17,3.1876,3.1386,3.1298,3.1486,3.2039,3.2127,3.2127,3.2127,3.2127,3.1901,3.1361,3.1298,3.1273,3.121,3.121,3.1235,3.1298,3.1298,3.1336,3.1386,3.1863,3.2152,3.2215,3.278,3.3081,3.3068,3.0777,3.0078,3.0956,2.984,2.8664,0.0,0.0,0.0,0.0,0.0,0.0,0.0,0.0,2.832,0.0,0.0,0.0,0.0,0.0,0.0,0.0,0.0,0.0,0.0,0.0,0.0,0.0,0.0,0.0,0.0,0.0,0.0,0.0,0.0,3.4771,3.5474,3.4233,3.4113,3.5459,3.4831,3.4801,3.5489,3.5504,3.5504,3.5504,3.5504,3.5504,3.5504,3.5504,3.5504,3.5504,3.5504,3.5504,3.5504,3.5504,3.5504,3.5504,3.5504,3.5504,3.5504,3.5504,3.5504,3.5504,3.5504,3.5504,3.5424,3.4839,3.4888,3.4961,3.3903,3.4012,3.4413,3.3933,3.3628,3.3386,3.3131,3.2802,3.2555,3.2293,3.2121,3.1996,3.1996,3.1876,3.1763,3.1851,3.2051,3.224,3.2353,3.2089,3.2064,3.2629,3.2717,3.2717,3.2717,3.2717,3.2491,3.1926,3.1863,3.1738,3.1411,3.1386,3.1524,3.1851,3.219,3.2365,3.2365,3.2591,3.2717,3.2717,3.2216,3.1965,3.1965,2.959,2.8588,2.9039,2.7851,2.703,2.4167,0.0,0.0,0.0,0.0,0.0,0.0,0.0,0.0,0.0,0.0,0.0,0.0,0.0,0.0,0.0,0.0,0.0,0.0,0.0,0.0,0.0,0.0,0.0,0.0,0.0,0.0,3.458,3.4472,3.4696,3.519,3.4292,3.4292,3.5474,3.5026,3.4996,3.5504,3.5504,3.5504,3.5504,3.5504,3.5504,3.5504,3.5504,3.5504,3.5504,3.5504,3.5504,3.5504,3.5504,3.5504,3.5504,3.5504,3.5504,3.5504,3.5504,3.5504,3.5439,3.5198,3.492,3.4587,3.4023,3.4101,3.4313,3.3248,3.3465,3.4027,3.3436,3.3132,3.281,3.2642,3.2273,3.1813,3.165,3.1738,3.1851,3.1851,3.1851,3.1964,3.2365,3.2453,3.2591,3.3006,3.2729,3.2591,3.3018,3.3081,3.3081,3.3081,3.3081,3.2918,3.2491,3.2453,3.229,3.1888,3.1851,3.2026,3.2416,3.2842,3.2982,3.2612,3.2612,3.2426,3.2064,3.1276,3.0874,3.0874,2.8903,2.7956,2.786,2.6533,2.5918,0.0,0.0,0.0,2.502,0.0,0.0,0.0,0.0,2.6678,0.0,0.0,0.0,0.0,0.0,3.0709,3.2283,0.0,0.0,0.0,0.0,0.0,0.0,0.0,0.0,0.0,0.0,0.0,3.458,3.4472,3.4487,3.4502,3.4472,3.4771,3.5489,3.5489,3.5489,3.5504,3.5504,3.5504,3.5504,3.5504,3.5504,3.5504,3.5504,3.5504,3.5504,3.5504,3.5504,3.5504,3.5504,3.5504,3.5504,3.5504,3.5504,3.5504,3.5504,3.5504,3.5359,3.4394,3.3449,3.2761,3.3284,3.3418,3.3504,3.3608,3.3673,3.3655,3.3242,3.3091,3.2978,3.2412,3.2604,3.288,3.2315,3.2616,3.3031,3.3031,3.3031,3.3031,3.3043,3.3056,3.3056,3.3081,3.3056,3.3056,3.3081,3.3081,3.3081,3.3081,3.3081,3.3068,3.3056,3.3056,3.3043,3.3031,3.3031,3.3031,3.3056,3.3068,3.2525,3.1311,3.1223,3.0676,2.9498,2.9866,2.9996,3.0008,2.9148,2.8791,2.8682,2.7122,2.6367,0.0,0.0,2.3514,2.5035,0.0,0.0,0.0,0.0,0.0,0.0,0.0,0.0,0.0,0.0,2.9501,3.0873,3.1942,3.2978,0.0,0.0,0.0,0.0,0.0,0.0,0.0,0.0,0.0,3.5259,3.4337,3.4023,0.0,3.4068,3.4143,3.4801,3.4816,3.504,3.5504,3.5504,3.5504,3.5504,3.5504,3.5504,3.5504,3.5504,3.5504,3.5504,3.5504,3.5504,3.5504,3.5504,3.5133,3.4543,3.4543,3.4109,3.3685,3.4259,3.4543,3.4394,3.3394,3.289,3.2561,3.2502,3.2733,3.2904,3.2323,3.2663,3.3153,3.2638,3.278,3.3031,3.283,3.293,3.3031,3.283,3.293,3.3081,3.3081,3.3081,3.3081,3.3081,3.3081,3.3081,3.3081,3.3081,3.3081,3.3081,3.3081,3.3081,3.3081,3.3081,3.3081,3.3081,3.3081,3.3081,3.3081,3.3081,3.2711,3.1865,3.1865,3.1677,3.1223,3.0395,2.992,2.9773,2.9113,2.8967,2.917,2.8084,2.7592,2.7592,2.7363,2.708,2.38,2.3516,0.0,2.5025,2.4541,0.0,2.453,0.0,0.0,0.0,0.0,0.0,0.0,0.0,2.8493,2.9833,3.1056,3.217,0.0,3.4034,0.0,0.0,0.0,0.0,0.0,0.0,3.5513,3.4207,3.3724,3.3682,0.0,0.0,3.4042,3.4501,3.4525,3.4577,3.4786,3.5026,3.513,3.5145,3.5385,3.5504,3.5504,3.5504,3.5504,3.5504,3.5504,3.5504,3.5439,3.5133,3.461,3.3959,3.3602,3.3101,3.2664,3.331,3.331,3.289,3.2321,3.2036,3.1875,3.1798,3.2134,3.2478,3.2079,3.2503,3.3043,3.2867,3.2943,3.3119,3.3319,3.3219,3.3081,3.3081,3.3081,3.3081,3.3081,3.3081,3.3081,3.3081,3.3081,3.3081,3.3081,3.3081,3.3081,3.3081,3.3081,3.3081,3.3081,3.3081,3.3081,3.3081,3.3081,3.2971,3.2697,3.2256,3.1681,3.1019,3.1031,3.0847,3.0375,2.9642,2.9211,2.9212,2.8468,2.8207,2.8646,2.7865,2.7471,2.7471,2.7754,2.7744]},{"header":{"parameterUnit":"m.s-1","parameterCategory":1,"la1":30.6,"la2":29.2853,"lo1":-89.7004,"lo2":-87.6739,"dy":0.0162,"dx":0.0183,"nx":112,"ny":82,"refTime":"2024-04-05T00:00:00:Z","depth":0,"parameterNumber":3,"parameterNumberName":"V-component_of_WINDS"},"data":[0.0,0.0,0.0,0.0,0.0,0.0,0.0,0.0,0.0,0.0,0.0,0.0,0.0,0.0,0.0,0.0,0.0,0.0,0.0,0.0,0.0,0.0,0.0,0.0,0.0,0.0,0.0,0.0,0.0,0.0,0.0,0.0,0.0,0.0,0.0,0.0,0.0,0.0,0.0,0.0,0.0,0.0,0.0,0.0,0.0,0.0,0.0,0.0,0.0,0.0,0.0,0.0,0.0,0.0,0.0,0.0,0.0,0.0,0.0,0.0,0.0,0.0,0.0,0.0,0.0,0.0,0.0,0.0,0.0,0.0,0.0,0.0,0.0,0.0,0.0,0.0,0.0,0.0,0.0,0.0,0.0,0.0,0.0,0.0,0.0,0.0,0.0,0.0,0.0,0.0,0.0,-0.6907,-0.7343,-0.8554,-1.061,-1.1323,-1.2347,-1.3852,0.0,0.0,0.0,0.0,0.0,0.0,0.0,0.0,0.0,0.0,0.0,0.0,0.0,0.0,0.0,0.0,0.0,0.0,0.0,0.0,0.0,0.0,0.0,0.0,0.0,0.0,0.0,0.0,0.0,0.0,0.0,0.0,0.0,0.0,0.0,0.0,0.0,0.0,0.0,0.0,0.0,0.0,0.0,0.0,0.0,0.0,0.0,0.0,0.0,0.0,0.0,0.0,0.0,0.0,0.0,0.0,0.0,0.0,0.0,0.0,0.0,0.0,0.0,0.0,0.0,0.0,0.0,0.0,0.0,0.0,0.0,0.0,0.0,0.0,0.0,0.0,0.0,0.0,0.0,0.0,0.0,0.0,0.0,0.0,0.0,0.0,0.0,0.0,0.0,0.0,0.0,0.0,0.0,0.0,0.0,0.0,0.0,0.0,0.0,0.0,0.0,0.0,0.0,0.0,-0.8376,-0.761,-0.7616,-0.8554,-1.061,-1.1323,-1.2541,-1.4457,0.0,0.0,0.0,0.0,0.0,0.0,0.0,0.0,0.0,0.0,0.0,0.0,0.0,0.0,0.0,0.0,0.0,0.0,0.0,0.0,0.0,0.0,0.0,0.0,0.0,0.0,0.0,0.0,0.0,0.0,0.0,0.0,0.0,0.0,0.0,0.0,0.0,0.0,0.0,0.0,0.0,0.0,0.0,0.0,0.0,0.0,0.0,0.0,0.0,0.0,0.0,0.0,0.0,0.0,0.0,0.0,0.0,0.0,0.0,0.0,0.0,0.0,0.0,0.0,0.0,0.0,0.0,0.0,0.0,0.0,0.0,0.0,0.0,0.0,0.0,0.0,0.0,0.0,0.0,0.0,0.0,0.0,0.0,0.0,0.0,0.0,0.0,0.0,0.0,0.0,0.0,0.0,0.0,0.0,0.0,0.0,0.0,0.0,0.0,0.0,0.0,0.0,0.0,-0.7581,-0.7593,-0.767,-0.7723,-0.8554,-1.061,-1.1048,-1.2211,-1.4549,-1.4698,0.0,0.0,0.0,0.0,0.0,0.0,0.0,0.0,0.0,0.0,0.0,0.0,0.0,0.0,0.0,0.0,0.0,0.0,0.0,0.0,0.0,0.0,0.0,0.0,0.0,0.0,0.0,0.0,0.0,0.0,0.0,0.0,0.0,0.0,0.0,0.0,0.0,0.0,0.0,0.0,0.0,0.0,0.0,0.0,0.0,0.0,0.0,0.0,0.0,0.0,0.0,0.0,0.0,0.0,0.0,0.0,0.0,0.0,0.0,0.0,0.0,0.0,0.0,0.0,0.0,0.0,0.0,0.0,0.0,0.0,0.0,0.0,0.0,0.0,0.0,0.0,0.0,0.0,0.0,0.0,0.0,0.0,0.0,0.0,0.0,0.0,0.0,0.0,0.0,0.0,0.0,0.0,0.0,0.0,0.0,0.0,0.0,0.0,0.0,0.0,0.0,0.0,-0.648,-0.6804,-0.7396,-0.7777,-0.8712,-1.0661,-1.0813,-1.1837,-1.4318,-1.4606,0.0,0.0,0.0,0.0,0.0,0.0,0.0,0.0,0.0,0.0,0.0,0.0,0.0,0.0,0.0,0.0,0.0,0.0,0.0,0.0,0.0,0.0,0.0,0.0,0.0,0.0,0.0,0.0,0.0,0.0,0.0,0.0,0.0,0.0,0.0,0.0,0.0,0.0,0.0,0.0,0.0,0.0,0.0,0.0,0.0,0.0,0.0,0.0,0.0,0.0,0.0,0.0,0.0,0.0,0.0,0.0,0.0,0.0,0.0,0.0,0.0,0.0,0.0,0.0,0.0,0.0,0.0,0.0,0.0,0.0,0.0,0.0,0.0,0.0,0.0,0.0,0.0,0.0,0.0,0.0,0.0,0.0,0.0,0.0,0.0,0.0,0.0,0.0,0.0,0.0,0.0,0.0,0.0,0.0,0.0,0.0,0.0,0.0,0.0,0.0,0.0,0.0,-0.6204,-0.6642,-0.6696,-0.7883,-0.9309,-1.0661,-1.0813,-1.1697,-1.3721,-1.4376,0.0,0.0,0.0,0.0,0.0,0.0,0.0,0.0,0.0,0.0,0.0,0.0,0.0,0.0,0.0,0.0,0.0,0.0,0.0,0.0,0.0,0.0,0.0,0.0,0.0,0.0,0.0,0.0,0.0,0.0,0.0,0.0,0.0,0.0,0.0,0.0,0.0,0.0,0.0,0.0,0.0,0.0,0.0,0.0,0.0,0.0,0.0,0.0,0.0,0.0,0.0,0.0,0.0,0.0,0.0,0.0,0.0,0.0,0.0,0.0,0.0,0.0,0.0,0.0,0.0,0.0,0.0,0.0,0.0,0.0,0.0,0.0,0.0,0.0,0.0,0.0,0.0,0.0,0.0,0.0,0.0,0.0,0.0,0.0,0.0,0.0,0.0,0.0,0.0,0.0,0.0,0.0,0.0,0.0,0.0,0.0,0.0,0.0,0.0,0.0,0.0,0.0,-0.5878,-0.6588,0.0,-0.7503,-0.8817,-1.0661,-1.0813,-1.1648,-1.3674,0.0,0.0,0.0,0.0,0.0,0.0,0.0,0.0,0.0,0.0,0.0,0.0,0.0,0.0,0.0,0.0,0.0,0.0,0.0,0.0,0.0,0.0,0.0,0.0,0.0,0.0,0.0,0.0,0.0,0.0,0.0,0.0,0.0,0.0,0.0,0.0,0.0,0.0,0.0,0.0,0.0,0.0,0.0,0.0,0.0,0.0,0.0,0.0,0.0,0.0,0.0,0.0,0.0,0.0,0.0,0.0,0.0,0.0,0.0,0.0,0.0,0.0,0.0,0.0,0.0,0.0,0.0,0.0,0.0,0.0,0.0,0.0,0.0,0.0,0.0,0.0,0.0,0.0,0.0,0.0,0.0,0.0,0.0,0.0,0.0,0.0,0.0,0.0,0.0,0.0,0.0,0.0,0.0,0.0,0.0,0.0,0.0,0.0,0.0,0.0,0.0,0.0,-0.4736,-0.555,-0.6367,0.0,-0.7235,-0.8554,-1.061,-1.0813,-1.1566,-1.3409,0.0,0.0,0.0,0.0,0.0,0.0,0.0,0.0,0.0,0.0,0.0,0.0,0.0,0.0,0.0,0.0,0.0,0.0,0.0,0.0,0.0,0.0,0.0,0.0,0.0,0.0,0.0,0.0,0.0,0.0,0.0,0.0,0.0,0.0,0.0,0.0,0.0,0.0,0.0,0.0,0.0,0.0,0.0,0.0,0.0,0.0,0.0,0.0,0.0,0.0,0.0,0.0,0.0,0.0,0.0,0.0,0.0,0.0,0.0,0.0,0.0,0.0,0.0,0.0,0.0,0.0,0.0,0.0,0.0,0.0,0.0,0.0,0.0,0.0,0.0,0.0,0.0,0.0,0.0,0.0,0.0,0.0,0.0,0.0,0.0,0.0,0.0,0.0,0.0,0.0,0.0,0.0,0.0,0.0,0.0,0.0,0.0,0.0,0.0,0.0,0.0,0.0,-0.457,-0.5058,-0.576,-0.6529,-0.7235,-0.8547,-1.061,-1.0813,-1.1384,0.0,0.0,0.0,0.0,0.0,0.0,0.0,0.0,0.0,0.0,0.0,0.0,0.0,0.0,0.0,0.0,0.0,0.0,0.0,0.0,0.0,0.0,0.0,0.0,0.0,0.0,0.0,0.0,0.0,0.0,0.0,0.0,0.0,0.0,0.0,0.0,0.0,0.0,0.0,0.0,0.0,0.0,0.0,0.0,0.0,0.0,0.0,0.0,0.0,0.0,0.0,0.0,0.0,0.0,0.0,0.0,0.0,0.0,0.0,0.0,0.0,0.0,0.0,0.0,0.0,0.0,0.0,0.0,0.0,0.0,0.0,0.0,0.0,0.0,0.0,0.0,0.0,0.0,0.0,0.0,0.0,0.0,0.0,0.0,0.0,0.0,0.0,0.0,0.0,0.0,0.0,0.0,0.0,0.0,0.0,0.0,0.0,0.0,0.0,0.0,0.0,0.0,0.0,-0.457,-0.468,-0.5281,-0.648,-0.6804,-0.7806,-0.9909,-1.0517,-1.1358,-1.2754,0.0,0.0,0.0,0.0,0.0,0.0,0.0,0.0,0.0,0.0,0.0,0.0,0.0,0.0,0.0,0.0,0.0,0.0,0.0,0.0,0.0,0.0,0.0,0.0,0.0,0.0,0.0,0.0,0.0,0.0,0.0,0.0,0.0,0.0,0.0,0.0,0.0,0.0,0.0,0.0,0.0,0.0,0.0,0.0,0.0,0.0,0.0,0.0,0.0,0.0,0.0,0.0,0.0,0.0,0.0,0.0,0.0,0.0,0.0,0.0,0.0,0.0,0.0,0.0,0.0,0.0,0.0,0.0,0.0,0.0,0.0,0.0,0.0,0.0,0.0,0.0,0.0,0.0,0.0,0.0,0.0,0.0,0.0,0.0,0.0,0.0,0.0,0.0,0.0,0.0,0.0,0.0,0.0,0.0,0.0,0.0,0.0,0.0,0.0,0.0,0.0,0.0,-0.457,-0.4519,-0.5062,-0.6426,-0.6588,-0.7486,-0.9599,-1.0415,-1.1358,-1.2725,0.0,0.0,0.0,0.0,0.0,0.0,0.0,0.0,0.0,0.0,0.0,0.0,0.0,0.0,0.0,0.0,0.0,0.0,0.0,0.0,0.0,0.0,0.0,0.0,0.0,0.0,0.0,0.0,0.0,0.0,0.0,0.0,0.0,0.0,0.0,0.0,0.0,0.0,0.0,0.0,0.0,0.0,0.0,0.0,0.0,0.0,0.0,0.0,0.0,0.0,0.0,0.0,0.0,0.0,0.0,0.0,0.0,0.0,0.0,0.0,0.0,0.0,0.0,0.0,0.0,0.0,0.0,0.0,0.0,0.0,0.0,0.0,0.0,0.0,0.0,0.0,0.0,0.0,0.0,0.0,0.0,0.0,0.0,0.0,0.0,0.0,0.0,0.0,0.0,0.0,0.0,0.0,0.0,0.0,0.0,0.0,0.0,0.0,0.0,0.0,0.0,0.0,-0.4519,-0.4519,-0.5062,-0.6426,-0.6588,-0.7433,-0.9555,-1.0364,-1.1349,-1.2715,0.0,0.0,0.0,0.0,0.0,0.0,0.0,0.0,0.0,0.0,0.0,0.0,0.0,0.0,0.0,0.0,0.0,0.0,0.0,0.0,0.0,0.0,0.0,0.0,0.0,0.0,0.0,0.0,0.0,0.0,0.0,0.0,0.0,0.0,0.0,0.0,0.0,0.0,0.0,0.0,0.0,0.0,0.0,0.0,0.0,0.0,0.0,0.0,0.0,0.0,0.0,0.0,0.0,0.0,0.0,0.0,0.0,0.0,0.0,0.0,-0.6534,0.0,0.0,0.0,0.0,0.0,0.0,0.0,0.0,0.0,0.0,0.0,0.0,0.0,0.0,0.0,0.0,0.0,0.0,0.0,0.0,0.0,0.0,0.0,0.0,0.0,0.0,0.0,0.0,0.0,0.0,0.0,0.0,0.0,0.0,0.0,0.0,0.0,0.0,0.0,0.0,0.0,-0.4473,-0.4522,-0.5062,-0.6426,-0.6588,-0.7235,-0.8896,-1.0115,-1.1332,-1.2638,-1.3846,0.0,0.0,0.0,0.0,0.0,0.0,0.0,0.0,0.0,0.0,0.0,0.0,0.0,0.0,0.0,0.0,0.0,0.0,0.0,0.0,0.0,0.0,0.0,0.0,0.0,0.0,0.0,0.0,0.0,0.0,0.0,0.0,0.0,0.0,0.0,0.0,0.0,0.0,0.0,0.0,0.0,0.0,0.0,0.0,0.0,0.0,0.0,0.0,0.0,0.0,0.0,0.0,0.0,0.0,0.0,0.0,0.0,0.0,0.0,0.0,-0.7979,0.0,0.0,0.0,0.0,0.0,0.0,0.0,0.0,0.0,0.0,0.0,0.0,0.0,0.0,0.0,0.0,0.0,0.0,0.0,0.0,0.0,0.0,0.0,0.0,0.0,0.0,0.0,0.0,0.0,0.0,0.0,0.0,0.0,0.0,0.0,0.0,0.0,0.0,0.0,0.0,-0.4477,-0.4525,-0.5062,-0.6426,-0.6588,-0.7182,-0.8699,-1.0012,-1.1232,-1.2164,-1.3799,0.0,0.0,0.0,0.0,0.0,0.0,0.0,0.0,0.0,0.0,0.0,0.0,0.0,0.0,0.0,0.0,0.0,0.0,0.0,0.0,0.0,0.0,0.0,0.0,0.0,0.0,0.0,0.0,0.0,0.0,0.0,0.0,0.0,0.0,0.0,0.0,0.0,0.0,0.0,0.0,0.0,0.0,0.0,0.0,0.0,0.0,0.0,0.0,0.0,0.0,0.0,0.0,0.0,-0.5864,-0.6244,-0.7509,-0.7616,-0.8049,-0.8639,-0.896,-0.9044,-0.9096,0.0,0.0,0.0,0.0,0.0,0.0,0.0,0.0,0.0,0.0,0.0,0.0,0.0,0.0,0.0,0.0,0.0,0.0,0.0,0.0,0.0,0.0,0.0,0.0,0.0,-1.2444,-1.3331,0.0,0.0,0.0,0.0,0.0,0.0,0.0,0.0,0.0,0.0,0.0,0.0,-0.448,-0.4473,-0.5066,-0.6426,-0.6588,-0.7182,-0.8699,-1.0012,-1.1048,-1.1653,-1.3611,-1.4971,0.0,0.0,0.0,0.0,0.0,0.0,0.0,0.0,0.0,0.0,0.0,0.0,0.0,0.0,0.0,0.0,0.0,0.0,0.0,0.0,0.0,0.0,0.0,0.0,0.0,0.0,0.0,0.0,0.0,0.0,0.0,0.0,-0.5796,-0.5711,0.0,0.0,0.0,0.0,0.0,0.0,0.0,0.0,0.0,0.0,0.0,0.0,0.0,-0.7014,-0.7453,-0.7344,-0.6874,-0.6009,-0.5901,-0.618,-0.675,-0.7396,-0.7777,-0.7937,-0.9732,0.0,-1.0551,-1.0602,0.0,0.0,0.0,0.0,0.0,0.0,0.0,0.0,0.0,0.0,0.0,0.0,0.0,0.0,0.0,0.0,0.0,0.0,0.0,0.0,0.0,0.0,-1.0965,-1.1516,-1.2745,-1.3721,0.0,-1.3433,-1.3402,-1.3307,-1.2839,0.0,0.0,0.0,0.0,0.0,0.0,0.0,-0.4494,-0.4484,-0.5022,-0.6426,-0.6588,-0.7182,-0.8699,-1.0012,-1.1048,-1.1653,-1.3611,-1.4971,-1.5588,-1.6194,0.0,0.0,0.0,0.0,0.0,0.0,0.0,0.0,0.0,0.0,0.0,0.0,0.0,0.0,0.0,0.0,0.0,0.0,0.0,0.0,0.0,0.0,0.0,0.0,0.0,0.0,0.0,0.0,0.0,-0.5216,-0.5635,-0.7182,-0.6268,-0.5651,0.0,0.0,0.0,0.0,0.0,0.0,0.0,0.0,0.0,-0.5433,-0.6213,-0.6732,-0.6942,-0.6123,-0.5214,-0.4265,-0.4831,-0.5441,-0.5982,-0.6303,-0.6902,-0.7777,-0.9058,-1.0084,-1.0864,-1.1633,-1.2147,-1.2295,0.0,0.0,0.0,0.0,-0.7492,-0.7235,-0.7235,-0.7509,0.0,-0.8283,0.0,0.0,0.0,0.0,0.0,0.0,0.0,0.0,0.0,0.0,0.0,-1.0956,-1.2239,-1.3321,-1.3721,-1.4029,-1.425,0.0,-1.4032,-1.3496,-1.2503,0.0,0.0,0.0,0.0,0.0,-0.4487,-0.4484,-0.5022,-0.6426,-0.6588,-0.7182,-0.8699,-1.0012,-1.0906,-1.119,-1.31,-1.4457,-1.505,-1.5688,-1.6312,0.0,0.0,0.0,0.0,0.0,0.0,0.0,0.0,0.0,0.0,0.0,0.0,0.0,0.0,0.0,0.0,0.0,0.0,0.0,0.0,0.0,0.0,0.0,0.0,0.0,0.0,0.0,0.0,-0.4488,-0.5136,-0.7722,-0.6544,-0.5814,0.0,0.0,0.0,0.0,0.0,0.0,-0.3741,-0.4849,-0.4948,-0.3773,-0.4882,-0.5686,-0.6073,-0.4974,-0.3677,-0.2227,-0.3799,-0.475,-0.5277,-0.5433,-0.6086,-0.7171,-0.8265,-0.9304,-1.0399,-1.199,-1.2608,-1.251,-1.1475,-1.0375,-0.9327,-0.833,-0.7711,-0.745,-0.7616,-0.8049,-0.8639,-0.9309,0.0,-0.9718,-1.0517,0.0,0.0,0.0,0.0,-0.5651,-0.6421,-0.7635,-0.894,-1.0033,-1.129,-1.2531,-1.3369,-1.3888,-1.4365,0.0,-1.4789,-1.4411,-1.3443,0.0,0.0,0.0,0.0,-0.4369,-0.3971,-0.4255,-0.5026,-0.6426,-0.6588,-0.7182,-0.8699,-0.9865,-1.0618,-1.0762,-1.2531,-1.3805,-1.4422,-1.5186,-1.6015,-1.6841,0.0,0.0,0.0,0.0,0.0,0.0,0.0,0.0,0.0,0.0,0.0,0.0,0.0,0.0,0.0,0.0,0.0,0.0,0.0,0.0,0.0,0.0,0.0,0.0,0.0,0.0,0.0,0.0,0.0,-0.5842,-0.5751,0.0,0.0,0.0,0.0,-0.4477,-0.4515,-0.3663,-0.1775,-0.344,-0.3605,-0.172,-0.2169,-0.3132,-0.457,-0.4511,-0.3028,-0.0167,-0.3135,-0.4543,-0.4588,-0.5226,-0.5542,-0.5701,-0.7776,-0.8731,-0.8985,-1.099,-1.1864,-1.1864,-1.1765,-1.0527,-0.8731,-0.8678,-0.7794,-0.675,-0.7456,-0.7723,-0.7883,-0.8586,-0.8857,-0.9106,-1.0415,-0.8835,0.0,0.0,-0.6573,-0.5651,-0.6421,-0.7635,-0.8731,-0.8783,-0.9872,-1.1258,-1.258,-1.287,-1.3433,0.0,-1.5107,-1.4698,-1.4606,0.0,-0.9387,-0.8659,-0.6253,-0.3981,-0.251,-0.3583,-0.5037,-0.6426,-0.6588,-0.7182,-0.8699,-0.9465,-1.0115,-1.0762,-1.2083,-1.3168,-1.3815,-1.4949,-1.5632,-1.5664,-1.6225,0.0,0.0,0.0,0.0,0.0,0.0,0.0,0.0,0.0,0.0,0.0,0.0,0.0,0.0,0.0,0.0,0.0,0.0,0.0,0.0,0.0,0.0,0.0,0.0,0.0,0.0,0.0,0.0,-0.3739,-0.5003,0.0,-0.6119,-0.5136,-0.4082,-0.307,-0.301,-0.3123,-0.3416,-0.2227,-0.1278,-0.0559,-0.067,-0.1062,-0.1625,-0.1625,-0.1064,-0.0,-0.2065,-0.3522,-0.4536,-0.4739,-0.5109,-0.5542,-0.6288,-0.7132,-0.8029,-0.8802,-0.9629,-1.041,-0.9959,-0.9075,-0.7929,-0.7528,-0.7009,-0.6642,-0.6912,-0.6966,-0.7176,-0.8336,-0.9332,-1.0012,-0.957,-0.841,-0.7095,-0.646,-0.5601,-0.5003,-0.5706,-0.6622,-0.7587,-0.8469,-0.9422,-1.0415,-1.1299,-1.1499,-1.1984,-1.3507,-1.4297,-1.4457,-1.3643,-1.13,-0.9227,-0.8174,-0.5462,-0.3572,-0.368,-0.4138,-0.5026,-0.6426,-0.6588,-0.7182,-0.8699,-0.9413,-0.9917,-1.0167,-1.1408,-1.2444,-1.312,-1.4354,-1.5365,-1.6089,-1.6714,-1.7188,0.0,0.0,0.0,0.0,0.0,0.0,0.0,0.0,0.0,0.0,0.0,0.0,0.0,0.0,0.0,0.0,0.0,0.0,0.0,0.0,0.0,0.0,0.0,0.0,0.0,0.0,0.0055,-0.2366,-0.4291,-0.5618,-0.6096,-0.4236,-0.2563,-0.156,-0.1002,-0.0947,-0.1449,-0.0056,0.1003,0.151,0.1005,0.0503,0.0,0.0,0.0,-0.0,-0.1004,-0.2512,-0.449,-0.4473,-0.4739,-0.5171,-0.5382,-0.6018,-0.6919,-0.7138,-0.7659,-0.8325,-0.8593,-0.8019,-0.6993,-0.6712,-0.6287,-0.5891,-0.5873,-0.6199,-0.6799,-0.7941,-0.8992,-0.9577,-0.8619,-0.7829,-0.7036,-0.5806,-0.5003,-0.4625,-0.5058,-0.571,-0.6524,-0.7688,-0.8541,-0.9287,-0.9931,-1.0305,-1.0704,-1.1612,-1.2425,-1.2964,-1.2812,-1.0464,-0.832,-0.7594,-0.5245,-0.3738,-0.4411,-0.475,-0.5407,-0.648,-0.6804,-0.745,-0.8699,-0.9211,-0.9562,-0.9762,-1.0864,-1.1756,-1.2434,-1.369,-1.4869,-1.5828,-1.6629,-1.7394,-1.8106,0.0,0.0,0.0,0.0,0.0,0.0,0.0,0.0,0.0,0.0,0.0,0.0,0.0,0.0,0.0,0.0,0.0,0.0,0.0,0.0,0.0,0.0,0.0,0.5097,0.3643,0.1701,-0.1707,-0.3453,-0.4882,-0.6289,-0.25,0.0056,0.0111,0.1448,0.2903,0.4425,0.307,0.2959,0.448,0.307,0.1562,0.0168,0.0056,0.0,0.0,0.0056,-0.151,-0.4343,-0.4376,-0.4421,-0.4536,-0.5171,-0.5487,-0.5542,-0.6258,-0.6095,-0.5651,-0.7806,-0.749,-0.5914,-0.6394,-0.5673,-0.449,-0.4501,-0.542,-0.6686,-0.7298,-0.7581,-0.7664,-0.7564,-0.7095,-0.6426,-0.5651,-0.5003,-0.4519,-0.4519,-0.5003,-0.5651,-0.6367,-0.7128,-0.7818,-0.8475,-0.9221,-0.9747,-0.9688,-0.9629,-1.0234,-1.2308,-0.9321,-0.6753,-0.718,-0.5655,0.0,-0.448,-0.5305,-0.6064,-0.6534,-0.7235,-0.7996,-0.8752,-0.8804,-0.9113,-0.9762,-1.0415,-1.1116,-1.1765,-1.3082,-1.4097,-1.4709,-1.5876,-1.7034,-1.8106,0.0,0.0,0.0,0.0,0.0,0.0,0.0,0.0,0.0,0.0,0.0,0.0,0.0,0.0,0.0,0.0,0.0,0.0,0.0,0.0,0.0,0.0,0.9009,0.6853,0.5105,0.3172,0.0773,-0.0555,-0.1392,-0.1778,-0.0723,0.089,0.3074,0.3641,0.4036,0.449,0.4086,0.4086,0.449,0.4086,0.3694,0.3256,0.1118,0.0,0.0,0.1061,0.0613,-0.1285,-0.2004,-0.3123,-0.449,-0.4705,-0.4757,-0.4812,-0.4978,-0.4974,-0.4908,-0.5932,-0.5773,-0.4908,-0.5026,-0.4805,-0.4525,-0.4512,-0.5054,-0.5814,-0.6023,-0.6465,-0.6799,-0.6239,-0.6095,-0.59,-0.5022,-0.4643,-0.4487,-0.4487,-0.4625,-0.4816,-0.5035,-0.6027,-0.6961,-0.7111,-0.7759,-0.8396,-0.8881,-0.8146,-0.7935,-0.9533,-0.8436,-0.702,-0.6122,-0.5167,0.0,-0.4522,-0.5171,-0.5878,-0.6534,-0.7235,-0.7996,-0.8752,-0.8804,-0.9113,-0.9762,-1.0415,-1.1116,-1.1765,-1.3082,-1.4272,-1.532,-1.6058,-1.6983,0.0,0.0,0.0,0.0,0.0,0.0,0.0,0.0,0.0,0.0,0.0,0.0,0.0,0.0,0.0,0.0,0.0,0.0,0.0,0.0,0.0,0.0,1.0813,0.9913,0.8153,0.6294,0.4508,0.295,0.167,0.1169,0.1842,0.1895,0.2619,0.4376,0.4545,0.4579,0.4579,0.4633,0.4667,0.4674,0.4612,0.4561,0.452,0.2745,0.1225,0.0,0.0874,0.1505,0.1831,-0.0057,-0.1525,0.0,-0.3246,-0.3527,-0.3527,-0.3527,-0.3524,0.0,0.0,0.0,0.0,0.0,-0.4473,-0.4525,-0.4525,-0.4739,-0.5058,-0.5058,-0.5546,-0.5982,-0.5273,-0.5391,-0.5563,-0.4746,-0.4477,-0.4484,-0.4484,-0.4519,-0.4549,-0.4875,-0.5538,-0.6145,-0.6145,-0.6745,-0.7278,-0.7357,-0.6945,0.0,-0.725,-0.6763,-0.6122,-0.5592,-0.4948,-0.4519,-0.4519,-0.5109,-0.576,-0.6529,-0.7235,-0.7996,-0.8752,-0.8804,0.0,0.0,0.0,-1.1225,-1.2236,-1.3246,0.0,0.0,0.0,-1.6506,-1.7395,0.0,0.0,0.0,-1.936,-1.9667,0.0,0.0,0.0,0.0,0.0,0.0,0.0,0.0,0.0,0.0,0.0,0.0,0.0,0.0,0.0,0.0,1.1528,1.1158,0.8969,0.7149,0.5703,0.4629,0.3215,0.2941,0.4442,0.4541,0.4587,0.4528,0.4646,0.4718,0.4718,0.0,0.0,0.0,0.0,0.4626,0.4262,0.4399,0.2966,0.0,0.0,0.1401,0.3935,0.1591,0.0347,-0.0056,-0.1397,-0.1952,-0.1952,-0.212,-0.2289,-0.2569,-0.3981,-0.449,-0.4484,-0.4494,-0.449,-0.448,-0.448,0.0,0.0,-0.4522,-0.4897,-0.5273,-0.468,-0.4897,-0.5273,-0.468,-0.4522,-0.4522,-0.4522,-0.4522,-0.4629,-0.5218,-0.5378,-0.5378,-0.5378,-0.5982,-0.6258,-0.5651,-0.6036,-0.6258,-0.5597,-0.5003,-0.4787,-0.5328,-0.4897,-0.4519,-0.4519,-0.5109,-0.576,-0.6529,0.0,0.0,-0.8752,-0.8804,-0.8857,-0.891,-1.0115,-1.1375,-1.2725,-1.3314,-1.3674,-1.3815,-1.4858,-1.5696,-1.6293,-1.6912,-1.7693,-1.8598,-1.9647,-2.04,0.0,0.0,0.0,0.0,0.0,0.0,0.0,0.0,0.0,0.0,0.0,0.0,0.0,0.0,0.0,1.2799,1.2666,1.1642,0.8946,0.7661,0.6464,0.4912,0.3746,0.3563,0.4853,0.4973,0.4966,0.4836,0.486,0.4874,0.4874,0.4904,0.0,0.4918,0.4806,0.4125,0.2644,0.3896,0.2966,0.0,0.0,0.0,0.0917,0.2803,0.2289,-0.0,-0.0283,-0.0448,-0.0504,-0.1682,-0.2921,-0.4107,-0.4386,-0.4494,-0.4494,-0.4497,-0.4494,-0.4494,-0.4494,-0.449,-0.449,-0.449,-0.4595,-0.4695,-0.4532,-0.4584,0.0,-0.4532,-0.4484,-0.449,-0.449,-0.4484,-0.4532,-0.4639,-0.4684,-0.4677,-0.4677,-0.5218,-0.5651,-0.5538,-0.5597,-0.5651,-0.5542,-0.5378,-0.5164,-0.4732,-0.457,-0.4519,-0.4519,-0.5109,-0.576,-0.6529,-0.7235,-0.7996,-0.8752,-0.8804,-0.9008,-0.9562,-1.0364,-1.1166,-1.1972,-1.211,-1.2696,-1.3768,-1.4039,-1.4653,-1.568,-1.628,-1.6796,-1.7303,-1.8503,-1.9316,0.0,0.0,0.0,0.0,0.0,0.0,0.0,0.0,0.0,0.0,0.0,1.1146,0.0,0.0,1.3551,1.3329,1.2928,1.1723,0.9136,0.8148,0.7052,0.5197,0.4427,0.4366,0.5064,0.5057,0.4989,0.4918,0.4986,0.5057,0.5138,0.5213,0.5254,0.5254,0.5133,0.4375,0.2887,0.2444,0.148,0.0,0.0,0.0,0.0063,0.1555,0.1408,0.0,0.0,0.0,-0.0059,-0.0766,-0.1532,-0.2294,-0.3069,-0.3357,-0.3357,-0.3357,-0.3357,-0.3357,-0.3357,-0.3357,-0.3357,-0.3357,-0.3355,-0.3519,-0.4258,-0.4487,-0.4487,-0.448,-0.4484,-0.4487,-0.448,-0.4477,-0.4525,-0.4525,-0.4522,-0.4519,-0.4519,-0.4787,-0.5003,-0.5003,-0.5003,-0.5003,-0.5003,-0.5003,-0.4893,-0.457,-0.4519,-0.4519,-0.4519,-0.4787,-0.5277,-0.5982,-0.6691,-0.7456,-0.8209,-0.8593,-0.9113,-0.9762,-1.0115,-1.0618,-1.1266,-1.1316,-1.1756,-1.2793,-1.313,-1.3726,-1.4642,-1.5241,-1.5636,-1.5831,-1.6464,-1.7384,0.0,0.0,0.0,0.0,0.0,0.0,0.0,0.0,0.9127,1.0079,1.1085,1.1913,1.2386,1.3455,1.4033,1.3327,1.2814,1.1621,0.9325,0.8586,0.7578,0.5624,0.522,0.5094,0.5234,0.5137,0.506,0.5087,0.5172,0.5287,0.544,0.5562,0.5616,0.5589,0.5461,0.49,0.3949,0.2007,0.087,0.0536,0.0202,0.0,0.0,0.0,0.0,0.0,0.0,0.0,0.0,0.0,0.0,-0.0123,-0.1322,-0.1754,-0.1761,-0.1794,-0.1786,-0.1786,-0.1786,-0.1786,-0.1786,-0.1786,-0.1785,-0.2009,-0.3246,-0.3814,-0.4042,-0.4061,-0.4294,-0.4524,-0.4511,-0.4511,-0.4504,-0.4525,-0.4522,-0.4522,-0.4519,-0.4519,-0.4522,-0.4519,-0.4519,-0.4519,-0.4519,-0.4519,-0.4519,-0.4519,-0.4519,-0.4519,-0.4519,-0.4519,-0.4732,-0.5433,-0.6036,-0.6691,-0.745,-0.8049,-0.8626,-0.9131,-0.9287,-0.9695,-1.0348,-1.0509,-1.0914,-1.1616,-1.2141,-1.2677,-1.3226,-1.3831,-1.4064,-1.3924,-1.4064,-1.5166,-0.6315,-0.254,0.0,0.709,0.8218,0.8685,0.0,0.0,0.9959,1.1308,1.2406,1.3186,1.3125,1.4048,1.4326,1.286,1.2639,1.1853,0.9437,0.8905,0.812,0.6525,0.5956,0.5701,0.5705,0.5589,0.5566,0.5694,0.5599,0.5599,0.5745,0.5769,0.5722,0.5593,0.5461,0.5323,0.5176,0.4909,0.3961,0.2409,0.0737,0.0,0.0,0.0,0.0,0.0,0.0,0.0,0.0,0.0,0.0,-0.0,-0.0184,-0.0245,-0.0243,-0.0229,-0.0224,-0.0224,-0.0224,-0.0224,-0.0224,-0.0224,-0.0224,-0.0279,-0.0447,-0.1395,-0.2471,-0.2429,-0.3447,-0.4516,-0.4503,-0.451,-0.448,-0.4497,-0.4477,-0.4487,-0.4522,-0.4525,-0.4473,-0.4519,-0.4519,-0.4519,-0.4519,-0.4519,-0.4519,-0.4519,-0.4519,-0.4519,-0.4519,-0.4519,-0.4732,-0.5433,-0.5597,-0.5923,-0.6642,-0.6804,-0.6858,-0.6961,-0.7551,-0.8237,-0.8888,-0.9585,-1.0218,-1.0914,-1.1015,-1.1057,-1.1157,-1.172,-1.176,-1.1258,-1.1769,-1.3087,-0.1686,0.0,0.0,0.0,0.9695,0.9982,1.036,1.09,1.1576,1.2535,1.318,1.3825,1.4894,1.4492,1.3785,0.0,1.2534,1.1345,0.8899,0.8492,0.7994,0.6624,0.6386,0.6224,0.5959,0.58,0.5739,0.5796,0.5745,0.5779,0.5925,0.5935,0.5908,0.5847,0.5691,0.5577,0.5504,0.5423,0.5043,0.4292,0.3487,0.2613,0.1538,0.1588,0.0989,0.0,0.0,0.0,0.0,0.0,0.0,0.0,0.0,0.0,0.0,0.0,0.0,0.0,0.0,0.0,0.0,0.0,0.0,0.0,0.0,-0.0403,-0.0927,-0.0897,-0.1369,-0.2062,-0.294,-0.3823,-0.4248,-0.3385,-0.386,-0.4265,-0.3347,-0.3858,-0.4487,-0.4473,-0.4473,-0.4525,-0.4519,-0.4519,-0.4519,-0.4519,-0.4519,-0.4519,-0.4519,-0.4519,-0.4732,-0.5433,-0.5487,-0.5814,-0.6534,-0.6588,-0.6588,-0.6588,-0.6912,-0.7176,-0.7481,-0.7747,-0.8559,-0.9841,-0.9658,-1.0081,-1.1083,-1.1158,-1.1048,-1.0813,-1.1048,-1.1704,0.2642,0.0,0.0,1.0322,1.0889,1.0968,1.0637,1.1458,1.2405,1.2945,1.322,1.3722,1.498,1.4132,0.0,1.2597,1.199,1.0806,0.8591,0.8243,0.7867,0.6774,0.6658,0.6573,0.6247,0.604,0.5945,0.5983,0.5911,0.5932,0.6084,0.6095,0.6074,0.603,0.5922,0.5776,0.5593,0.5488,0.5437,0.5437,0.5406,0.4742,0.3494,0.347,0.27,0.1406,0.0402,0.0,0.0,0.0,0.0,0.0,0.0,0.0,0.0,0.0,0.0,0.0,0.0,0.0,0.0,0.0,0.0,0.0,0.0,0.0,0.0,0.0,0.0,-0.0242,-0.13,-0.2412,-0.3096,-0.2342,-0.2768,-0.3058,-0.2348,-0.2738,-0.336,-0.3802,-0.42,-0.448,-0.4525,-0.4522,-0.4522,-0.4519,-0.4519,-0.4519,-0.4519,-0.4519,-0.4677,-0.5164,-0.5218,-0.5437,-0.5991,-0.6046,-0.6046,-0.6046,-0.6204,-0.6312,-0.6312,-0.648,-0.7225,-0.8564,-0.854,-0.922,-1.0521,-1.0501,-1.0498,-1.0491,-1.0397,-1.0537,0.0,0.0,1.2236,1.2377,1.2163,1.2028,1.2659,1.221,1.1809,1.2092,1.2473,1.2669,1.2247,1.2654,1.2558,1.0971,1.0848,1.0396,0.8632,0.8437,0.8013,0.6997,0.679,0.6695,0.0,0.6417,0.6302,0.6441,0.6186,0.6091,0.6244,0.6254,0.6183,0.6034,0.6023,0.5884,0.5593,0.5586,0.5583,0.5583,0.5443,0.5456,0.5581,0.5387,0.5254,0.5052,0.154,0.0,0.0,0.0,0.0,0.0,0.0,0.0,0.0,0.0,0.0,0.0,0.0,0.0,0.0,0.0,0.0,0.0,0.0,0.0,0.0,0.0,0.0,-0.0,-0.0064,-0.0129,-0.0507,-0.1844,-0.1114,-0.0524,-0.1911,-0.1115,-0.0558,-0.2007,-0.3471,-0.4494,-0.448,-0.448,-0.4473,-0.4519,-0.4519,-0.4519,-0.4519,-0.4519,-0.4519,-0.4515,-0.4515,-0.4519,-0.4574,-0.457,-0.457,-0.457,-0.5164,-0.5538,-0.5538,-0.6204,-0.6743,-0.6956,-0.7813,-0.833,-0.8516,-0.935,-0.9711,-0.9704,-0.9415,-0.9435,0.0,0.0,1.3362,1.2896,1.295,1.296,1.2283,1.2282,1.2433,1.2554,1.2364,1.2173,1.236,1.215,1.1493,0.9931,1.0095,0.9746,0.7812,0.7498,0.7375,0.6939,0.6966,0.0,0.0,0.0,0.0,0.6468,0.638,0.6305,0.6264,0.6338,0.6237,0.6183,0.6084,0.5983,0.5881,0.5783,0.5732,0.5728,0.5681,0.5711,0.5734,0.5688,0.5644,0.5527,0.4166,0.2202,0.0,0.0,0.0,0.0,0.0,0.0,0.0,0.0,0.0,0.0,0.0,0.0,0.0,0.0,0.0,0.0,0.0,0.0,0.0,0.0,0.0,0.0,0.0,0.0,-0.0125,-0.0625,-0.037,-0.0121,-0.0641,-0.0347,-0.0172,-0.0617,-0.1956,-0.2968,-0.2959,-0.3802,-0.4477,-0.4519,-0.4519,-0.4519,-0.4519,-0.4519,-0.4556,-0.4602,-0.4613,-0.4657,-0.4758,-0.4674,-0.4613,-0.4613,-0.4737,-0.489,-0.4944,-0.5235,-0.5711,-0.6554,-0.6676,-0.7121,-0.7817,-0.7909,-0.8246,-0.8832,-0.874,-0.9143,0.0,1.3467,1.3744,1.3295,1.3144,1.2845,1.2089,1.1745,1.168,1.1912,1.1279,1.083,1.1229,1.0923,1.0118,0.8783,0.9032,0.8808,0.7211,0.6983,0.697,0.6932,0.701,0.0,0.0,0.0,0.0,0.6634,0.6583,0.6515,0.6424,0.6366,0.6335,0.6335,0.619,0.6084,0.603,0.5932,0.5857,0.5803,0.5911,0.5908,0.5803,0.5857,0.5857,0.5731,0.5594,0.4214,0.1903,0.0544,0.0,0.0,0.0,0.0,0.0,0.0,0.0,0.0,0.0,0.0,0.0,0.0,0.0,0.0,0.0,0.0,0.0,0.0,0.0,0.0,0.0,0.0,0.0,0.0,0.0,0.0,0.0,0.0,0.0,0.0,-0.079,-0.1398,-0.1395,-0.3215,-0.4635,-0.4623,-0.4626,-0.4606,-0.4551,-0.4592,-0.4663,-0.4762,-0.4772,-0.4813,-0.4911,-0.483,-0.4772,-0.4772,-0.468,-0.467,-0.4769,-0.4772,-0.5125,-0.5939,-0.6084,-0.6485,-0.7239,-0.7355,-0.7716,-0.826,-0.8477,-0.8999,1.2147,1.2824,1.3575,1.3544,1.2658,1.1814,1.2012,1.0712,0.9604,1.0213,0.9401,0.8669,0.0,0.0,0.8724,0.7638,0.7681,0.756,0.6847,0.6722,0.6776,0.0,0.0,0.0,0.0,0.0,0.0,0.6939,0.0,0.6709,0.6702,0.6563,0.6481,0.6471,0.6342,0.6196,0.6044,0.604,0.5969,0.5827,0.6122,0.6108,0.583,0.5976,0.5962,0.5817,0.5758,0.5701,0.5431,0.1785,0.0205,0.0,0.0,0.0,0.0,0.0,0.0,0.0,0.0,0.0,0.0,0.0,0.0,0.0,0.0,0.0,0.0,0.0,0.0,0.0,0.0,0.0,0.0,0.0,0.0,0.0,0.0,0.0,0.0,0.0,0.0,-0.0056,-0.0112,-0.2649,-0.471,-0.4789,-0.487,-0.4874,-0.4721,-0.483,-0.4921,-0.4928,-0.4928,-0.4935,-0.4942,-0.4935,-0.4928,-0.4928,-0.4921,-0.4921,-0.4928,-0.4928,-0.4996,-0.5138,-0.5899,-0.6421,-0.6654,-0.7437,-0.7897,-0.8021,-0.8493,-0.8953,1.3345,1.3459,1.3393,1.3043,1.192,1.0895,1.0528,0.9706,0.8974,0.9069,0.8672,0.8346,0.0,0.0,0.0,0.7539,0.7998,0.0,0.7173,0.7027,0.0,0.0,0.0,0.7085,0.7085,0.7085,0.0,0.0,0.6953,0.682,0.6705,0.6664,0.659,0.6474,0.6437,0.6349,0.6203,0.6203,0.6183,0.6146,0.6224,0.622,0.6146,0.6183,0.6179,0.6135,0.5986,0.5808,0.5594,0.4736,0.2586,0.0,0.0,0.0,0.0,0.0,0.0,0.0,0.0,0.0,0.0,0.0,0.0,0.0,0.0,0.0,0.0,0.0,0.0,0.0,0.0,0.0,0.0,0.0,0.0,0.0,0.0,0.0,0.0,0.0,0.0,-0.0421,-0.1801,-0.272,-0.3595,-0.4732,-0.4947,-0.5023,-0.4877,-0.4894,-0.4958,-0.5064,-0.5077,-0.5125,-0.524,-0.5142,-0.5077,-0.5077,-0.4975,-0.4965,-0.5074,-0.5077,-0.5148,-0.5298,-0.5563,-0.5712,-0.5752,-0.5951,-0.6728,-0.8021,-0.8158,-0.8937,1.3743,1.35,1.2922,1.2169,1.1188,1.0159,0.9494,0.8644,0.8054,0.8014,0.7826,0.0,0.0,0.0,0.0,0.0,0.0,0.0,0.7001,0.6946,0.6997,0.0,0.72,0.0,0.7146,0.7204,0.7214,0.0,0.7065,0.6956,0.681,0.6736,0.663,0.6478,0.6413,0.6342,0.6338,0.6322,0.6322,0.6338,0.6325,0.6322,0.6338,0.6338,0.6338,0.6251,0.0,0.5952,0.5935,0.5749,0.4477,0.2553,0.0712,0.0,0.0,0.0,0.0,0.0,0.0,0.0,0.0,0.0,0.0,0.0,0.0,0.0,0.0,0.0,0.0,0.0,0.0,0.0,0.0,0.0,0.0,0.0,0.0,0.0,0.0,0.0,0.0,-0.0805,-0.3456,-0.3901,-0.4165,-0.4985,-0.5182,-0.5203,-0.5125,-0.5118,-0.5152,-0.523,-0.524,-0.5274,-0.5422,-0.5281,-0.5233,-0.5233,-0.5159,-0.5148,-0.523,-0.5233,-0.5274,-0.5425,-0.5428,-0.5428,-0.5428,-0.5428,-0.6075,-0.7437,-0.7827,-0.8742,1.3545,1.3096,1.2161,1.127,1.0281,0.9357,0.8709,0.7735,0.6952,0.7086,0.0,0.0,0.6839,0.0,0.6928,0.714,0.0,0.6407,0.6742,0.679,0.6892,0.717,0.7319,0.735,0.7214,0.7302,0.7316,0.718,0.7153,0.7088,0.6963,0.6831,0.6692,0.6536,0.6393,0.6318,0.6318,0.6441,0.643,0.6291,0.6434,0.6417,0.6338,0.6281,0.6278,0.6254,0.0,0.0,0.6227,0.5703,0.5673,0.5442,0.1549,0.0,0.0,0.0,0.0,0.0,0.0,0.0,0.0,0.0,0.0,0.0,0.0,0.0,0.0,0.0,0.0,0.0,0.0,0.0,0.0,0.0,0.0,0.0,0.0,0.0,-0.0129,-0.0628,-0.0687,-0.1701,-0.4874,-0.541,-0.537,-0.5425,-0.5369,-0.5428,-0.5428,-0.5372,-0.5376,-0.5376,-0.5376,-0.5372,-0.5428,-0.5428,-0.5428,-0.5428,-0.5428,-0.5428,-0.5428,-0.5428,-0.5428,-0.5428,-0.5428,-0.5428,-0.5428,-0.5428,-0.5881,-0.6915,-0.7632,-0.8549,1.3162,1.2038,1.082,1.0815,0.9306,0.7838,0.8293,0.7219,0.0,0.0,0.0,0.6021,0.6602,0.626,0.0,0.7305,0.0,0.0,0.0,0.0,0.7322,0.0,0.0,0.0,0.0,0.0,0.0,0.0,0.0,0.7129,0.7105,0.7078,0.6997,0.6854,0.6702,0.6624,0.6624,0.6647,0.6583,0.6437,0.6586,0.6522,0.6342,0.6383,0.6373,0.6335,0.6244,0.0,0.6081,0.612,0.5025,0.3079,0.0896,0.0,0.0,0.0,0.0,0.0,0.0,0.0,0.0,0.0,0.0,0.0,0.0,0.0,0.0,0.0,0.0,0.0,0.0,0.0,0.0,0.0,0.0,0.0,0.0,0.0,-0.0868,-0.386,-0.4458,-0.4662,-0.5279,-0.5411,-0.5415,-0.5428,-0.5428,-0.5432,-0.5376,-0.5369,-0.5432,-0.5432,-0.5432,-0.5428,-0.5428,-0.5428,-0.5428,-0.5428,-0.5428,-0.5428,-0.5428,-0.5428,-0.5428,-0.5428,-0.5428,-0.5428,-0.5428,-0.5428,-0.621,-0.7762,-0.7962,-0.8865,1.1873,1.0894,0.9755,0.9588,0.8627,0.7703,0.733,0.0,0.0,0.0,0.0,0.6305,0.6605,0.0,0.0,0.0,0.0,0.0,0.0,0.0,0.0,0.0,0.0,0.0,0.0,0.0,0.0,0.0,0.0,0.7193,0.7037,0.6956,0.6878,0.6814,0.6739,0.6702,0.6702,0.678,0.6742,0.6593,0.6746,0.6705,0.6491,0.6569,0.6488,0.6421,0.6354,0.0,0.6152,0.6248,0.4318,0.1213,0.0311,0.0,0.0,0.0,0.0,0.0,0.0,0.0,0.0,0.0,0.0,0.0,0.0,0.0,0.0,0.0,0.0,0.0,0.0,0.0,0.0,0.0,-0.1661,-0.3216,-0.2887,-0.2081,-0.1913,-0.3641,-0.4785,-0.5399,-0.5382,-0.5379,-0.5376,-0.5428,-0.5428,-0.5428,-0.5369,-0.5432,-0.5428,-0.5369,-0.5369,-0.5369,-0.5428,-0.5428,-0.5428,-0.5428,-0.5428,-0.5428,-0.5428,-0.5428,-0.5428,-0.5428,-0.5428,-0.5428,-0.5428,-0.5881,-0.6841,-0.8195,-0.8544,-0.9461,1.0496,0.9825,0.8937,0.8435,0.7752,0.7028,0.6463,0.5032,0.0,0.0,0.0,0.0,0.0,0.0,0.0,0.0,0.0,0.0,0.0,0.0,0.0,0.0,0.0,0.0,0.0,0.0,0.0,0.0,0.0,0.0,0.699,0.6861,0.6797,0.6797,0.6797,0.6797,0.6797,0.6912,0.6898,0.6753,0.6909,0.6885,0.6712,0.6679,0.6425,0.5877,0.6201,0.0,0.0,0.5102,0.3493,0.1277,0.0324,0.0,0.0,0.0,0.0,0.0,0.0,0.0,0.0,0.0,0.0,0.0,0.0,0.0,-0.0226,-0.1109,-0.1323,-0.1324,-0.1332,-0.1036,-0.0665,-0.0661,-0.3235,-0.5577,-0.5577,-0.4385,-0.336,-0.3421,-0.458,-0.5552,-0.5471,-0.5467,-0.5457,-0.5416,-0.541,-0.5466,-0.5432,-0.5428,-0.5432,-0.5372,-0.5376,-0.5372,-0.5428,-0.5428,-0.5428,-0.5428,-0.5428,-0.5442,-0.541,-0.541,-0.5423,-0.5454,-0.5457,-0.5457,-0.5454,-0.638,-0.7386,-0.8492,-0.9124,-1.0071,0.9606,0.8941,0.8363,0.8286,0.5904,0.408,0.5902,0.0,0.0,0.0,0.5453,0.5491,0.0,0.0,0.0,0.0,0.0,0.0,0.0,0.0,0.0,0.0,0.0,0.0,0.0,0.0,0.0,0.0,0.0,0.0,0.7129,0.7105,0.7099,0.7099,0.7099,0.7099,0.7099,0.7112,0.6964,0.6751,0.6991,0.6924,0.6669,0.698,0.5746,0.3519,0.5466,0.0,0.0,0.1341,0.2599,0.5358,0.1475,0.0,0.0,0.0,0.0,0.0,0.0,0.0,0.0,0.0,0.0,0.0,0.0,0.0,-0.0832,-0.4631,-0.5705,-0.5724,-0.5696,-0.429,-0.2778,-0.2797,-0.3085,-0.3891,-0.5795,-0.5833,-0.5525,-0.5639,-0.5854,-0.5922,-0.5766,-0.5762,-0.5718,-0.5589,-0.5569,-0.5518,-0.5446,-0.5428,-0.5428,-0.5428,-0.5428,-0.5428,-0.5428,-0.5428,-0.5428,-0.5428,-0.5428,-0.5423,-0.5562,-0.5569,-0.563,-0.5759,-0.5762,-0.5762,-0.5762,-0.6742,-0.7728,-0.8594,-0.9552,-1.0529,0.859,0.7889,0.7134,0.708,0.6047,0.4602,0.2924,0.0,0.0,0.4861,0.5373,0.5369,0.5428,0.0,0.0,0.0,0.0,0.0,0.0,0.0,0.0,0.0,0.0,0.0,0.0,0.0,0.0,0.0,0.0,0.0,0.7079,0.7072,0.7183,0.7278,0.72,0.7115,0.7299,0.7125,0.7054,0.7004,0.5614,0.4963,0.4889,0.6377,0.6555,0.5428,0.3368,0.0,0.0,0.0343,0.1022,0.2357,0.0677,0.0,0.0,0.0,0.0,-0.0326,-0.2939,-0.3814,-0.3607,-0.2282,-0.1877,-0.211,-0.3418,-0.3801,-0.3878,-0.426,-0.4409,-0.4653,-0.5973,-0.5662,-0.5007,-0.5041,-0.5024,-0.522,-0.5929,-0.604,-0.5928,-0.5902,-0.5882,-0.5882,-0.5803,-0.58,-0.5752,-0.561,-0.5589,-0.5535,-0.5449,-0.5443,-0.5498,-0.5498,-0.5498,-0.546,-0.5435,-0.5525,-0.5589,-0.5504,-0.5579,-0.5654,-0.5715,-0.5718,-0.5742,-0.58,-0.6365,-0.6718,-0.6718,-0.8267,-0.926,-0.9828,-1.0526,-1.1171,0.7472,0.6946,0.6311,0.6335,0.5393,0.3682,0.0,0.0,0.0,0.3283,0.468,0.5376,0.5369,0.5491,0.0,0.0,0.0,0.0,0.0,0.0,0.0,0.0,0.0,0.0,0.0,0.0,0.0,0.0,0.0,0.0,0.0,0.6124,0.6409,0.726,0.7228,0.6931,0.6279,0.6158,0.6376,0.7111,0.5468,0.3937,0.2592,0.422,0.5041,0.4855,0.0,0.0,0.0,0.0,0.0,0.0,0.0,0.0,0.0,0.0,0.0,-0.0586,-0.4846,-0.6411,-0.6251,-0.4592,-0.4008,-0.4346,-0.5843,-0.6349,-0.6051,-0.4474,-0.4086,-0.4513,-0.5997,-0.6413,-0.6403,-0.6359,-0.6342,-0.6295,-0.6142,-0.6105,-0.6064,-0.5959,-0.5939,-0.5939,-0.5939,-0.5901,-0.5833,-0.5735,-0.5681,-0.5613,-0.5504,-0.5586,-0.565,-0.565,-0.5694,-0.5657,-0.5504,-0.5681,-0.5759,-0.5657,-0.5745,-0.5964,-0.6295,-0.6299,-0.6462,-0.6803,-0.7526,-0.7884,-0.7884,-0.9537,-1.042,-1.067,-1.1352,-1.1797,0.605,0.6043,0.6335,0.6335,0.3154,0.0067,0.0,0.0,0.0,0.0064,0.2892,0.5379,0.5379,0.5494,0.5637,0.5776,0.0,0.0,0.0,0.0,0.0,0.0,0.0,0.0,0.0,0.0,0.0,0.0,0.0,0.0,0.0,0.374,0.475,0.7064,0.7406,0.6291,0.3684,0.3609,0.4837,0.7135,0.7045,0.4589,0.0,0.009,0.009,0.0,0.0,0.0,0.0,0.0,0.0,0.0,0.0,0.0,0.0,0.0,0.0,-0.0587,-0.4856,-0.6651,-0.6975,-0.6479,-0.6235,-0.6244,-0.6325,-0.6472,-0.6655,-0.6339,-0.6396,-0.6616,-0.6664,-0.6698,-0.6658,-0.6505,-0.6471,-0.643,-0.6288,-0.6257,-0.6257,-0.6331,-0.6331,-0.6331,-0.6331,-0.6129,-0.6027,-0.6027,-0.5895,-0.5796,-0.5796,-0.5796,-0.58,-0.58,-0.5935,-0.5962,-0.581,-0.58,-0.58,-0.58,-0.58,-0.6299,-0.7409,-0.7491,-0.8022,-0.921,-0.9291,-0.9291,-0.9291,-1.0335,-1.0777,-1.0858,-1.1835,-1.2291,0.4298,0.5081,0.5,-0.0366,-0.2364,-0.2566,-0.0468,0.0,0.0,0.0,0.092,0.2477,0.4913,0.5454,0.5565,0.5755,0.6081,0.0,0.0,0.0,0.0,0.0,0.0,0.0,0.0,0.0,0.0,0.0,0.0,0.0,0.0,0.3783,0.3917,0.4662,0.6371,0.7069,0.6596,0.2937,0.1545,0.2247,0.2276,0.1456,0.0,0.0,0.0,0.0,0.0,0.0,0.0,0.0,-0.1887,-0.4858,-0.4825,-0.3909,-0.2472,-0.2422,-0.2424,-0.2876,-0.5647,-0.6766,-0.6841,-0.6519,-0.6519,-0.6512,-0.6342,-0.6386,-0.6445,-0.6407,-0.6451,-0.6596,-0.6661,-0.6702,-0.6688,-0.6637,-0.6627,-0.6586,-0.6437,-0.6407,-0.6376,-0.6281,-0.6338,-0.6338,-0.6338,-0.622,-0.6152,-0.6047,-0.5989,-0.5918,-0.5817,-0.5891,-0.5959,-0.5959,-0.6689,-0.6824,-0.5895,-0.6651,-0.7104,-0.6976,-0.7747,-0.8375,-0.8736,-0.874,-0.892,-0.9296,-0.9965,-1.034,-1.034,-1.1316,-1.1848,-1.1842,-1.215,-1.2305,0.0,0.3738,0.2457,-0.3538,-0.4788,0.0,0.0,0.0,0.0,0.0,0.0,0.0671,0.2924,0.389,0.446,0.4578,0.5197,0.0,0.0,0.0,0.0,0.0,0.0,0.0,0.0,0.0,0.0,0.0,0.0,0.0,0.0,0.2326,0.2289,0.2212,0.362,0.4631,0.4975,0.1672,0.0,0.0,0.0,0.0,0.0,0.0,0.0,0.0,0.0,0.0,0.0,-0.1704,-0.3136,-0.5844,-0.6754,-0.6201,-0.4912,-0.4941,-0.4956,-0.5075,-0.6367,-0.6816,-0.689,-0.6661,-0.6624,-0.6654,-0.6413,-0.6346,-0.6393,-0.659,-0.6644,-0.6678,-0.6827,-0.6865,-0.6854,-0.68,-0.6787,-0.6746,-0.659,-0.6512,-0.6444,-0.6359,-0.6298,-0.6338,-0.6338,-0.6213,-0.6162,-0.6122,-0.6067,-0.6017,-0.5979,-0.6428,-0.6712,-0.6712,-0.7711,-0.8063,-0.7155,-0.7868,-0.8335,-0.8202,-0.892,-0.9448,-0.982,-0.9895,-1.0045,-1.0421,-1.1019,-1.1391,-1.1391,-1.1996,-1.2445,-1.2806,-1.2806,-1.3018,0.0,0.2126,-0.1042,-0.3736,-0.4478,-0.4637,0.0,0.0,0.0,0.0,0.0,0.0,0.0,0.1353,0.2488,0.2473,0.3744,0.0,0.0,0.0,0.0,0.0,0.0,0.0,0.0,0.0,0.0,0.0,0.0,0.0,0.0,-0.0606,-0.0501,-0.0295,-0.0295,-0.0195,-0.0,0.0,0.0,0.0,0.0,-0.0181,-0.054,-0.054,0.0,0.0,0.0,0.0,0.0,-0.4743,-0.3837,-0.4011,-0.6275,-0.7101,-0.7098,-0.7098,-0.7098,-0.7078,-0.6924,-0.6964,-0.7034,-0.6827,-0.6712,-0.6658,-0.661,-0.6558,-0.6532,-0.6817,-0.6895,-0.7015,-0.7169,-0.7298,-0.7267,-0.7228,-0.7197,-0.7151,-0.6982,-0.6831,-0.6718,-0.6697,-0.6581,-0.649,-0.649,-0.6366,-0.6317,-0.6468,-0.6363,-0.6321,-0.6472,-0.7326,-0.7936,-0.7936,-0.8841,-0.9372,-0.9372,-0.9372,-0.9372,-0.9372,-0.9448,-0.9895,-1.0858,-1.0938,-1.1316,-1.2298,-1.2372,-1.2372,-1.2372,-1.2445,-1.2952,-1.3818,-1.3818,-1.4314,0.5084,0.0,-0.398,-0.328,-0.4056,-0.4951,0.0,0.0,0.0,0.0,0.0,0.0,0.0,0.0352,0.0656,0.066,0.0,0.0,0.0,0.0,0.0,0.0,0.0,0.0,0.0,0.0,0.0,0.0,0.0,0.0,0.0,-0.6078,-0.5142,-0.3095,-0.3095,-0.2065,-0.0,0.0,0.0,0.0,0.0,-0.1894,-0.544,-0.544,0.0,0.0,0.0,0.0,-0.6779,-0.6441,-0.6228,-0.6127,-0.6861,-0.7078,-0.7064,-0.7064,-0.7064,-0.7058,-0.7021,-0.7031,-0.7048,-0.7061,-0.6803,-0.6701,-0.7508,-0.7204,-0.6488,-0.6559,-0.7138,-0.7849,-0.8251,-0.8926,-0.954,-0.9651,-0.9761,-0.9662,-0.921,-0.9094,-0.9049,-0.8667,-0.8651,-0.8618,-0.8618,-0.8576,-0.8557,-0.8609,-0.8571,-0.8562,-0.8609,-0.8765,-0.8917,-0.8917,-0.9814,-1.0415,-1.0415,-1.0415,-1.0415,-1.0415,-1.1168,-1.17,-1.1922,-1.1922,-1.207,-1.2305,-1.3025,-1.3382,-1.3382,-1.4163,-1.4665,-1.4879,-1.4879,-1.495,0.1321,-0.2222,-0.4803,-0.3944,-0.4342,-0.4942,-0.5018,0.0,0.0,0.0,0.0,0.0,-0.0272,0.0,0.0,0.0,0.0,0.0,0.0,0.0,0.0,0.0,0.0,0.0,0.0,0.0,0.0,0.0,0.0,0.0,0.0,-0.7287,-0.7381,-0.5839,-0.5839,-0.4565,-0.1832,-0.1851,-0.1842,-0.1807,-0.1827,-0.3155,-0.5727,-0.662,-0.645,0.0,0.0,0.0,-0.6896,-0.7064,-0.7037,-0.6954,-0.7037,-0.7061,-0.7139,-0.7139,-0.7139,-0.7139,-0.7139,-0.7489,-0.8013,-0.8532,-0.8589,-0.8516,-0.9022,-0.8786,-0.8281,-0.8116,-0.8616,-0.9216,-0.9526,-1.0008,-1.0379,-1.0585,-1.0611,-1.0514,-1.0088,-0.9932,-0.9837,-0.9431,-0.9362,-0.9296,-0.9296,-0.9296,-0.9296,-0.9296,-0.9296,-0.9296,-0.9296,-0.9669,-0.9965,-0.9965,-1.087,-1.1465,-1.1465,-1.1658,-1.1677,-1.1477,-1.2127,-1.2723,-1.3237,-1.3163,-1.3379,-1.3881,-1.4387,-1.4686,-1.4686,-1.5031,-1.5446,-1.586,-1.586,-1.6079,-0.3604,-0.4903,-0.4617,-0.4915,-0.4931,-0.4846,0.0,0.0,0.0,0.0,0.0,0.0,0.0,0.0,0.0,0.0,0.0,0.0,0.0,0.0,0.0,0.0,0.0,0.0,0.0,0.0,0.0,0.0,0.0,0.0,0.0,-0.6753,-0.7985,-0.7982,-0.7982,-0.6895,-0.4594,-0.461,-0.458,-0.4602,-0.4602,-0.4594,-0.4672,-0.6397,-0.7178,0.0,0.0,0.0,-0.7048,-0.7054,-0.7132,-0.7109,-0.7305,-0.7404,-0.7401,-0.7573,-0.7661,-0.7661,-0.7661,-0.8273,-0.9323,-1.0265,-1.0585,-1.061,-1.0585,-1.0606,-1.0653,-1.0534,-1.0575,-1.0776,-1.0813,-1.0904,-1.1086,-1.1123,-1.1128,-1.1064,-1.0753,-1.0624,-1.0412,-1.0105,-0.9988,-0.9845,-0.9808,-0.9803,-0.9787,-0.9755,-0.975,-0.975,-0.975,-1.049,-1.1031,-1.1067,-1.1838,-1.2446,-1.2587,-1.2825,-1.2934,-1.2815,-1.3017,-1.3563,-1.4682,-1.4607,-1.4973,-1.5848,-1.6068,-1.615,-1.6142,-1.591,-1.6254,-1.7027,-1.7027,-1.7533,-0.4466,-0.4677,-0.484,-0.5257,-0.5206,-0.5071,0.0,0.0,0.0,0.0,0.0,0.0,0.0,0.0,0.0,0.0,0.0,0.0,0.0,0.0,0.0,0.0,0.0,0.0,0.0,0.0,0.0,0.0,0.0,0.0,0.0,-0.7772,-0.7965,-0.8048,-0.8048,-0.7773,-0.7227,-0.7368,-0.7434,-0.7412,-0.7412,-0.7343,-0.7121,-0.7495,-0.7537,0.0,0.0,-0.7032,-0.6976,-0.7024,-0.7001,-0.7059,-0.8222,-0.8627,-0.8715,-0.9744,-1.0091,-1.0091,-1.0091,-1.0178,-1.0351,-1.0524,-1.0479,-1.0569,-1.1455,-1.1786,-1.2035,-1.2833,-1.23,-1.1584,-1.1792,-1.2527,-1.3176,-1.351,-1.3561,-1.3484,-1.3118,-1.3016,-1.2988,-1.2705,-1.2621,-1.2511,-1.233,-1.2285,-1.2207,-1.1887,-1.1848,-1.1848,-1.1848,-1.1996,-1.2168,-1.2494,-1.2596,-1.3051,-1.3872,-1.3991,-1.4358,-1.5177,-1.4759,-1.4942,-1.607,-1.607,-1.6145,-1.6288,-1.7147,-1.7611,-1.7611,-1.8293,-1.8711,-1.8865,-1.8865,-1.9431,-0.448,-0.4637,-0.4797,-0.5571,-0.562,0.0,0.0,0.0,0.0,0.0,0.0,0.0,0.0,0.0,0.0,0.0,0.0,0.0,0.0,0.0,0.0,0.0,0.0,0.0,0.0,0.0,0.0,0.0,0.0,0.0,0.0,0.0,-0.8048,-0.8038,-0.8038,-0.8007,-0.7936,-0.7922,-0.7922,-0.794,-0.7925,-0.7922,-0.7845,-0.7687,-0.7907,-0.8394,0.0,-0.8404,-0.8936,-0.8943,-0.8926,-0.8936,-0.9538,-0.9836,-0.9923,-1.0438,-1.0611,-1.0697,-1.1295,-1.1552,-1.1643,-1.2254,-1.2433,-1.2506,-1.2931,-1.3104,-1.3284,-1.3715,-1.3444,-1.3042,-1.3163,-1.3541,-1.3915,-1.4055,-1.4088,-1.4008,-1.3707,-1.3559,-1.3716,-1.4023,-1.4045,-1.4222,-1.466,-1.4562,-1.4395,-1.4235,-1.3988,-1.3943,-1.419,-1.4213,-1.4342,-1.4676,-1.4782,-1.4934,-1.5312,-1.5562,-1.5739,-1.5988,-1.648,-1.6996,-1.7379,-1.8195,-1.8519,-1.83,-1.877,-1.9014,-1.9014,-1.974,-2.0124,-2.0124,-2.0603,-2.1086,-0.4368,-0.4793,-0.5002,-0.5722,0.0,0.0,0.0,0.0,0.0,0.0,0.0,0.0,0.0,0.0,0.0,0.0,0.0,0.0,0.0,0.0,0.0,0.0,0.0,0.0,0.0,0.0,0.0,0.0,0.0,0.0,0.0,0.0,-0.892,-0.892,-0.892,-0.8901,-0.886,-0.8901,-0.8565,-0.7865,-0.8276,-0.8432,-0.8425,-0.8568,-0.9083,-0.9855,-0.9655,-1.0,-1.0686,-1.0686,-1.0656,-1.0611,-1.0864,-1.1214,-1.1391,-1.1391,-1.1391,-1.1563,-1.2419,-1.2681,-1.2851,-1.3822,-1.4088,-1.4088,-1.4088,-1.4088,-1.4088,-1.4088,-1.4088,-1.4088,-1.4088,-1.4088,-1.4088,-1.4088,-1.4328,-1.4427,-1.4111,-1.4302,-1.4631,-1.5238,-1.542,-1.5615,-1.6368,-1.6271,-1.6063,-1.598,-1.5657,-1.5582,-1.593,-1.5963,-1.6105,-1.6463,-1.6505,-1.6581,-1.6809,-1.7312,-1.7432,-1.7063,-1.8032,-1.8661,-1.8815,-1.9985,-2.041,-2.0078,-2.0276,-2.0426,-2.0426,-2.1094,-2.1428,-2.1428,-2.2195,-2.2614,-0.4535,-0.5095,-0.5677,-0.5567,0.0,0.0,0.0,0.0,0.0,0.0,0.0,0.0,0.0,0.0,0.0,0.0,0.0,0.0,0.0,0.0,0.0,0.0,0.0,0.0,0.0,0.0,0.0,0.0,0.0,0.0,0.0,0.0,0.0,-1.1653,-1.1653,-1.1554,-1.1442,-1.1554,-1.0378,-0.8021,-0.9209,-0.9903,-0.9899,-1.1039,-1.1591,-1.1487,-1.1551,-1.1303,-1.1097,-1.1097,-1.0885,-1.0697,-1.1724,-1.2857,-1.3822,-1.3822,-1.3822,-1.3828,-1.3913,-1.3997,-1.3997,-1.4088,-1.4088,-1.4088,-1.4088,-1.4088,-1.4088,-1.4088,-1.4088,-1.4088,-1.4088,-1.4088,-1.4088,-1.4088,-1.4894,-1.5613,-1.5591,-1.6324,-1.705,-1.7106,-1.7098,-1.7064,-1.6868,-1.6863,-1.6729,-1.638,-1.6313,-1.6305,-1.633,-1.633,-1.648,-1.6846,-1.6888,-1.7208,-1.8077,-1.9117,-1.9667,-1.9628,-1.9242,-1.9395,-2.0362,-2.0547,-2.0547,-2.0518,-2.14,-2.1834,-2.1834,-2.2837,-2.3341,-2.3341,-2.3341,-2.3933,-0.4646,-0.5526,-0.652,-0.6251,0.0,0.0,0.0,0.0,0.0,0.0,0.0,0.0,0.0,0.0,0.0,0.0,0.0,0.0,0.0,0.0,0.0,0.0,0.0,0.0,0.0,0.0,0.0,0.0,0.0,0.0,0.0,0.0,0.0,-1.1945,-1.1945,-1.1905,-1.1819,-1.1905,-1.1361,-1.0386,-1.0974,-1.1099,-1.0967,-1.1542,-1.2089,-1.2514,-1.2612,-1.2968,-1.3505,-1.3334,-1.3118,-1.3095,-1.3278,-1.373,-1.4088,-1.4088,-1.4088,-1.4088,-1.4088,-1.4088,-1.4088,-1.4088,-1.4088,-1.425,-1.4894,-1.5274,-1.5551,-1.5929,-1.6277,-1.6141,-1.4544,-1.4573,-1.5054,-1.5054,-1.5951,-1.6683,-1.6683,-1.7009,-1.7496,-1.823,-1.839,-1.8506,-1.9063,-1.8979,-1.8757,-1.86,-1.8369,-1.8295,-1.8544,-1.8581,-1.8739,-1.9145,-1.9192,-1.9357,-1.9686,-2.0665,-2.1186,-2.1186,-2.0439,-2.0167,-2.0566,-2.1155,-2.1441,-2.1441,-2.2403,-2.2925,-2.2925,-2.3963,-2.4409,-2.442,-2.5063,-2.5581,-0.5277,-0.6197,-0.7223,0.0,0.0,0.0,0.0,0.0,0.0,0.0,0.0,0.0,0.0,0.0,0.0,0.0,0.0,0.0,0.0,0.0,0.0,0.0,0.0,0.0,0.0,0.0,0.0,0.0,0.0,0.0,0.0,0.0,0.0,0.0,-1.3108,-1.3108,-1.3108,-1.3108,-1.3108,-1.3108,-1.3108,-1.2822,-1.2273,-1.2758,-1.3333,-1.3915,-1.4013,-1.4441,-1.5084,-1.4877,-1.4689,-1.4489,-1.4202,-1.4088,-1.4088,-1.4088,-1.4088,-1.4186,-1.4599,-1.4733,-1.4671,-1.5183,-1.5295,-1.5464,-1.6194,-1.6752,-1.7132,-1.758,-1.7946,-1.7741,-1.6,-1.586,-1.6191,-1.6191,-1.7009,-1.7827,-1.7827,-1.806,-1.855,-1.9362,-1.952,-1.9756,-2.0479,-2.0312,-2.0117,-2.0117,-1.9873,-1.9795,-2.0078,-2.0117,-2.0234,-2.0537,-2.0857,-2.1001,-2.1001,-2.1886,-2.2478,-2.2478,-2.1886,-2.1527,-2.1527,-2.2113,-2.2478,-2.2478,-2.3441,-2.3963,-2.3963,-2.4992,-2.5441,-2.5511,-2.6176,-2.6533,-0.6588,-0.7133,0.0,0.0,0.0,0.0,0.0,0.0,0.0,0.0,0.0,0.0,0.0,0.0,0.0,0.0,0.0,0.0,0.0,0.0,0.0,0.0,0.0,0.0,0.0,0.0,0.0,0.0,0.0,0.0,0.0,0.0,0.0,0.0,-1.5832,-1.5832,-1.5832,-1.5832,-1.5832,-1.5832,-1.5832,-1.514,-1.3968,-1.5242,-1.5832,-1.5825,-1.5832,-1.5665,-1.5398,-1.5391,-1.5044,-1.4489,-1.4202,-1.4088,-1.4088,-1.4088,-1.4088,-1.4382,-1.5823,-1.6057,-1.6012,-1.7513,-1.7971,-1.7971,-1.8054,-1.8304,-1.8587,-1.8587,-1.8587,-1.8673,-1.8587,-1.7971,-1.7342,-1.7342,-1.8149,-1.9036,-1.9036,-1.9835,-2.0566,-2.0566,-2.0566,-2.0566,-2.0566,-2.0566,-2.0566,-2.0566,-2.0644,-2.0644,-2.0644,-2.0644,-2.0644,-2.0644,-2.1451,-2.2027,-2.2038,-2.2925,-2.3526,-2.3526,-2.3526,-2.3526,-2.3514,-2.3514,-2.3514,-2.3514,-2.448,-2.5004,-2.5016,-2.6025,-2.6533,-2.6533,-2.6533,-2.6533,-0.675,0.0,0.0,0.0,0.0,0.0,0.0,0.0,0.0,0.0,0.0,0.0,0.0,0.0,0.0,0.0,0.0,0.0,0.0,0.0,0.0,0.0,0.0,0.0,0.0,0.0,0.0,0.0,0.0,0.0,0.0,0.0,0.0,0.0,-1.5832,-1.5832,-1.5832,-1.5832,-1.5832,-1.5832,-1.5832,-1.553,-1.4958,-1.5543,-1.5718,-1.5538,-1.5738,-1.5778,-1.5671,-1.5257,-1.4863,-1.4489,-1.4202,-1.4573,-1.5242,-1.5544,-1.6132,-1.6944,-1.7701,-1.7835,-1.7855,-1.8302,-1.8429,-1.8591,-1.9353,-1.988,-2.0309,-2.0829,-2.1128,-2.1287,-2.0997,-2.0447,-1.9876,-1.9119,-1.9565,-2.0167,-2.0167,-2.0401,-2.0566,-2.0566,-2.0566,-2.0566,-2.0566,-2.0566,-2.0566,-2.0566,-2.1155,-2.1821,-2.2563,-2.2638,-2.2638,-2.2638,-2.285,-2.3216,-2.3621,-2.4539,-2.514,-2.514,-2.5757,-2.5373,-2.361,-2.4192,-2.4564,-2.4564,-2.5511,-2.6025,-2.6025,-2.6383,-2.6533,-2.6533,-2.6854,-2.703,-0.7616,0.0,0.0,0.0,0.0,0.0,0.0,0.0,0.0,0.0,0.0,0.0,0.0,0.0,0.0,0.0,0.0,0.0,0.0,0.0,0.0,0.0,0.0,0.0,0.0,0.0,0.0,0.0,0.0,0.0,0.0,0.0,0.0,0.0,-1.5832,-1.5832,-1.5832,-1.5832,-1.6015,-1.6574,-1.6574,-1.675,-1.7018,-1.6209,-1.5732,-1.5571,-1.5631,-1.5926,-1.6237,-1.5631,-1.5689,-1.6023,-1.5793,-1.6148,-1.6867,-1.7148,-1.7661,-1.8397,-1.9196,-1.9393,-1.9375,-1.9968,-2.0107,-2.0287,-2.0893,-2.1427,-2.1891,-2.2272,-2.2568,-2.2705,-2.2451,-2.207,-2.1525,-2.0677,-2.0652,-2.083,-2.083,-2.0967,-2.1035,-2.0859,-2.0967,-2.1035,-2.0859,-2.1202,-2.1356,-2.1185,-2.2195,-2.3134,-2.3731,-2.406,-2.4183,-2.4183,-2.4471,-2.4883,-2.5194,-2.6137,-2.6749,-2.6749,-2.7294,-2.6929,-2.5392,-2.5709,-2.6007,-2.6214,-2.6822,-2.7118,-2.7118,-2.7118,-2.7118,-2.7118,-2.7857,-2.7939,0.0,0.0,0.0,0.0,0.0,0.0,0.0,0.0,0.0,0.0,0.0,0.0,0.0,0.0,0.0,0.0,0.0,0.0,0.0,0.0,0.0,0.0,0.0,0.0,0.0,0.0,0.0,0.0,0.0,0.0,0.0,0.0,0.0,-1.5832,-1.592,-1.592,-1.5832,-1.6015,-1.6662,0.0,-1.7777,-1.8411,-1.9405,-1.7203,-1.6103,-1.6089,-1.591,-1.6324,-1.7153,-1.6613,-1.722,-1.8432,-1.8153,-1.8296,-1.8759,-1.8793,-1.8896,-1.9118,-2.0634,-2.0793,-2.0725,-2.2082,-2.2568,-2.2568,-2.2568,-2.2832,-2.3135,-2.3135,-2.3135,-2.3135,-2.3135,-2.2822,-2.2432,-2.208,-2.1641,-2.1289,-2.1289,-2.1611,-2.1768,-2.1448,-2.1765,-2.1912,-2.1589,-2.2343,-2.2791,-2.238,-2.3621,-2.4525,-2.4555,-2.5074,-2.5481,-2.5481,-2.6235,-2.6776,-2.6824,-2.7619,-2.8185,-2.8185,-2.8185,-2.8185,-2.8185,-2.7657,-2.7595,-2.8097,-2.8109,-2.8109,-2.8109,-2.8109,-2.817,-2.8243,-2.9177,-2.9203,0.0,0.0,0.0,0.0,0.0,0.0,0.0,0.0,0.0,0.0,0.0,0.0,0.0,0.0,0.0,0.0,0.0,0.0,0.0,0.0,0.0,0.0,0.0,0.0,0.0,0.0,0.0,0.0,0.0,0.0,0.0,0.0,0.0,-1.5832,-1.6756,-1.685,-1.5832,-1.7755,-1.8411,0.0,-1.868,-1.9222,-1.9497,-1.894,-1.8672,-1.8664,-1.8684,-1.8736,-1.8977,-1.8637,-1.8682,-1.8899,-1.8612,-1.9025,-1.9894,-2.0291,-2.0943,-2.1722,-2.2399,-2.2573,-2.2515,-2.2882,-2.2998,-2.2998,-2.2998,-2.3066,-2.3135,-2.3135,-2.3135,-2.3135,-2.3135,-2.2822,-2.2578,-2.2812,-2.2295,-2.1748,-2.1748,-2.1816,-2.2093,-2.2827,-2.313,-2.3402,-2.4179,-2.4548,-2.4745,-2.4974,-2.5632,-2.6217,-2.6577,-2.7152,-2.7484,-2.7484,-2.7644,-2.7965,-2.8387,-2.8587,-2.875,-2.875,-2.875,-2.875,-2.875,-2.8222,-2.7984,-2.8109,-2.8109,-2.8109,-2.8109,-2.8109,-2.8507,-2.9196,-2.9868,-3.0495,0.0,0.0,0.0,0.0,0.0,0.0,0.0,0.0,0.0,0.0,0.0,0.0,0.0,0.0,0.0,0.0,0.0,0.0,0.0,0.0,0.0,0.0,0.0,0.0,0.0,0.0,0.0,0.0,0.0,0.0,0.0,-1.7576,-1.7576,-1.7576,-1.8218,-1.8218,-1.7569,-1.8856,-1.9488,-1.9397,-2.0034,-2.0666,-2.1221,-2.0042,-1.9497,-1.948,-1.9405,-1.9592,-2.0013,-1.9722,-2.0026,-2.0716,-2.0508,-2.0964,-2.1597,-2.1823,-2.2265,-2.2842,-2.3066,-2.3135,-2.3135,-2.3135,-2.3135,-2.3135,-2.3135,-2.3135,-2.3135,-2.3135,-2.3135,-2.3135,-2.3135,-2.3391,-2.3679,-2.3826,-2.3466,-2.298,-2.298,-2.3546,-2.4196,-2.4519,-2.4545,-2.4705,-2.5352,-2.5501,-2.5784,-2.6749,-2.7127,-2.7533,-2.7999,-2.8561,-2.8913,-2.8913,-2.8913,-2.9026,-2.9315,-2.934,-2.934,-2.934,-2.934,-2.934,-2.934,-2.9063,-2.8913,-2.8913,-2.8913,-2.9112,-2.958,-2.958,-3.0079,-3.0983,-3.1789,-3.2151,0.0,0.0,0.0,0.0,0.0,0.0,0.0,0.0,0.0,0.0,0.0,0.0,0.0,0.0,0.0,0.0,0.0,0.0,0.0,0.0,0.0,0.0,0.0,0.0,0.0,0.0,0.0,0.0,0.0,0.0,-1.9405,-1.9497,-1.9497,-1.9497,-1.967,-1.967,-1.9497,-1.9943,-2.0486,-2.1293,-2.148,-2.212,-2.3047,-2.1042,-2.0133,-2.0116,-1.9898,-2.029,-2.1058,-2.0741,-2.1429,-2.2617,-2.2539,-2.2773,-2.3135,-2.3135,-2.3135,-2.3135,-2.3135,-2.3135,-2.3135,-2.3135,-2.3135,-2.3135,-2.3135,-2.3222,-2.3387,-2.3387,-2.356,-2.3724,-2.3724,-2.4382,-2.5126,-2.5126,-2.4994,-2.4798,-2.4644,-2.5607,-2.6442,-2.6256,-2.6246,-2.6337,-2.6496,-2.65,-2.6895,-2.8038,-2.8335,-2.8524,-2.8888,-2.944,-2.9792,-2.9792,-2.9792,-2.9792,-2.9792,-2.9792,-2.9792,-2.9792,-2.9792,-2.9856,-2.9998,-3.0075,-3.0139,-3.0292,-3.0139,-3.0419,-3.118,-3.1389,-3.1888,-3.289,-3.3671,-3.3671,0.0,0.0,0.0,0.0,0.0,0.0,0.0,0.0,0.0,0.0,0.0,0.0,0.0,0.0,0.0,0.0,0.0,0.0,0.0,0.0,0.0,0.0,0.0,0.0,0.0,0.0,0.0,0.0,0.0,0.0,-1.9488,-1.9497,-1.9497,-1.9497,-2.0477,-2.0576,-1.9488,-2.1587,-2.2217,-2.1293,-2.2403,-2.295,-2.3057,-2.2775,-2.2599,-2.2589,-2.262,-2.2688,-2.2746,-2.2331,-2.2494,-2.3018,-2.2656,-2.2773,-2.3135,-2.3135,-2.3135,-2.3135,-2.3135,-2.3135,-2.3135,-2.3135,-2.3135,-2.3135,-2.3135,-2.38,-2.4542,-2.4542,-2.5294,-2.6069,-2.6069,-2.6141,-2.6307,-2.6307,-2.6896,-2.7336,-2.6371,-2.6345,-2.6778,-2.7601,-2.8579,-2.9254,-2.9266,-2.9309,-2.9149,-2.88,-2.9252,-2.9415,-2.8988,-2.944,-2.9792,-2.9792,-2.9792,-2.9792,-2.9792,-2.9792,-2.9792,-2.9792,-2.9792,-3.0139,-3.097,-3.1044,-3.1402,-3.2177,-3.1402,-3.1106,-3.118,-3.2033,-3.289,-3.3808,-3.3945,-3.4394,0.0,0.0,0.0,0.0,0.0,0.0,0.0,0.0,0.0,0.0,0.0,0.0,0.0,0.0,0.0,0.0,0.0,0.0,0.0,0.0,0.0,0.0,0.0,0.0,0.0,0.0,0.0,0.0,0.0,-2.0755,-2.1489,-2.1498,-2.1498,-2.1498,-2.2041,-2.2041,-2.1498,-2.2589,-2.2862,-2.2306,-2.2862,-2.3135,-2.3135,-2.3135,-2.3135,-2.3135,-2.3135,-2.3135,-2.3125,-2.2939,-2.2969,-2.3125,-2.2939,-2.2969,-2.3135,-2.3135,-2.3135,-2.3135,-2.3135,-2.3551,-2.4049,-2.4049,-2.4467,-2.4978,-2.4978,-2.5389,-2.5714,-2.5714,-2.6141,-2.6483,-2.6483,-2.6964,-2.7371,-2.7371,-2.8267,-2.8937,-2.8462,-2.8383,-2.8366,-2.8533,-2.9232,-2.9691,-2.9365,-2.9315,-2.934,-2.9402,-2.9352,-2.934,-2.9402,-2.9641,-2.9792,-2.9792,-2.9792,-2.9792,-2.9792,-3.0279,-3.0558,-3.0558,-3.1057,-3.1549,-3.196,-3.196,-3.2177,-3.2593,-3.2177,-3.2249,-3.2749,-3.3171,-3.3891,-3.4839,-3.4839,-3.5067,0.0,0.0,0.0,0.0,0.0,0.0,0.0,0.0,0.0,0.0,0.0,0.0,0.0,0.0,0.0,0.0,0.0,0.0,0.0,0.0,0.0,0.0,0.0,0.0,0.0,0.0,0.0,0.0,0.0,-2.212,-2.3047,-2.3135,-2.3135,-2.3135,-2.3135,-2.3135,-2.3135,-2.3135,-2.3135,-2.3135,-2.3135,-2.3135,-2.3135,-2.3135,-2.3135,-2.3135,-2.3135,-2.3135,-2.3135,-2.3027,-2.3047,-2.3125,-2.3018,-2.3211,-2.3551,-2.3551,-2.3724,-2.3973,-2.3973,-2.4553,-2.521,-2.521,-2.5808,-2.6483,-2.6483,-2.6719,-2.6883,-2.6883,-2.7139,-2.7313,-2.7313,-2.7947,-2.8518,-2.8518,-2.9197,-2.9792,-2.9792,-2.9792,-2.9666,-2.9239,-2.9503,-2.9654,-2.9227,-2.9151,-2.9289,-2.9729,-2.9428,-2.9302,-2.9741,-2.9792,-2.9792,-2.9792,-2.9998,-3.0139,-3.0139,-3.1044,-3.1536,-3.1536,-3.2249,-3.2749,-3.2961,-3.2961,-3.3101,-3.3325,-3.3325,-3.3533,-3.4027,-3.4245,-3.4758,-3.5504,-3.5504,-3.5504,0.0,0.0,0.0,0.0,0.0,0.0,0.0,0.0,0.0,0.0,0.0,0.0,0.0,0.0,0.0,0.0,0.0,0.0,0.0,0.0,0.0,0.0,0.0,0.0,0.0,0.0,0.0,0.0,0.0,-2.3047,-2.3135,-2.3135,-2.3135,-2.3135,-2.3135,-2.3135,-2.3135,-2.3135,-2.3135,-2.3135,-2.3135,-2.3135,-2.3135,-2.3135,-2.3135,-2.3135,-2.3135,-2.3135,-2.3105,-2.2715,-2.2783,-2.3096,-2.2705,-2.3438,-2.4702,-2.4702,-2.5378,-2.6307,-2.6307,-2.6389,-2.6389,-2.6389,-2.6472,-2.6483,-2.6483,-2.7209,-2.8004,-2.8004,-2.8779,-2.9624,-2.9624,-2.9702,-2.9702,-2.9702,-2.9792,-2.9792,-2.9792,-2.9792,-2.9779,-2.9754,-2.9779,-2.9779,-2.9754,-2.9741,-2.9754,-2.9792,-2.9767,-2.9754,-2.9792,-2.9792,-2.9792,-2.9792,-3.0633,-3.1106,-3.1106,-3.196,-3.2522,-3.2522,-3.2593,-3.3031,-3.3876,-3.3945,-3.4394,-3.5359,-3.5359,-3.4905,-3.4027,-3.4986,-3.5439,-3.5504,-3.5504,-3.5504,0.0,0.0,0.0,0.0,0.0,0.0,0.0,0.0,0.0,0.0,0.0,0.0,0.0,0.0,0.0,0.0,0.0,0.0,0.0,0.0,0.0,0.0,0.0,0.0,0.0,0.0,0.0,0.0,0.0,0.0,-2.3135,-2.3135,-2.3135,-2.3135,-2.3135,-2.3135,-2.3135,-2.3135,-2.3135,-2.3135,-2.38,-2.4211,-2.4211,-2.4978,-2.5305,-2.5305,-2.5305,-2.4893,-2.42,-2.4036,-2.4492,-2.5294,-2.5123,-2.5416,-2.588,-2.588,-2.6141,-2.6483,-2.6483,-2.6964,-2.7522,-2.7522,-2.8039,-2.8633,-2.8633,-2.887,-2.9197,-2.9197,-2.9456,-2.9792,-2.9792,-2.9792,-2.9792,-2.9792,-2.9792,-2.9792,-2.9792,-2.9792,-2.9792,-2.9792,-2.9792,-2.9792,-2.9792,-2.9792,-2.9792,-2.9792,-2.9792,-2.9998,-3.062,-3.0696,-3.0908,-3.1549,-3.1901,-3.2105,-3.2105,-3.2961,-3.3518,-3.3518,-3.4109,-3.4624,-3.492,-3.4986,-3.5133,-3.5504,-3.5504,-3.5294,-3.4986,-3.5344,-3.5504,-3.5504,-3.5504,-3.5504,0.0,0.0,0.0,0.0,0.0,0.0,0.0,0.0,0.0,0.0,0.0,0.0,0.0,0.0,0.0,0.0,0.0,0.0,0.0,0.0,0.0,0.0,0.0,0.0,0.0,0.0,0.0,0.0,0.0,0.0,-2.3135,-2.3135,-2.3135,-2.3135,-2.3464,-2.3567,-2.3428,-2.3988,-2.4149,-2.391,-2.4893,-2.5378,-2.5378,-2.6141,-2.6483,-2.6483,-2.6483,-2.6058,-2.5378,-2.5378,-2.5797,-2.6483,-2.6483,-2.6719,-2.7046,-2.7046,-2.7302,-2.7637,-2.7637,-2.8039,-2.8688,-2.8688,-2.9197,-2.9792,-2.9792,-2.9792,-2.9792,-2.9792,-2.9792,-2.9792,-2.9792,-2.9792,-2.9792,-2.9792,-2.9792,-2.9792,-2.9792,-2.9792,-2.9792,-2.9792,-2.9792,-2.9792,-2.9792,-3.0075,-3.0279,-3.0279,-3.057,-3.0996,-3.1609,-3.1669,-3.1888,-3.2522,-3.289,-3.3101,-3.3101,-3.3959,-3.4476,-3.4476,-3.5133,-3.5504,-3.5504,-3.5504,-3.5504,-3.5504,-3.5504,-3.5504,-3.5504,-3.5504,-3.5504,-3.5504,-3.5504,-3.5504,0.0,0.0,0.0,0.0,0.0,0.0,0.0,0.0,0.0,0.0,0.0,0.0,0.0,0.0,0.0,0.0,0.0,0.0,0.0,0.0,0.0,0.0,0.0,0.0,0.0,0.0,0.0,0.0,0.0,-2.3222,-2.3222,-2.3222,-2.3222,-2.3222,-2.4286,-2.4567,-2.4064,-2.5628,-2.6192,-2.5641,-2.6225,-2.6543,-2.6554,-2.6554,-2.6565,-2.6565,-2.6565,-2.6565,-2.6554,-2.6565,-2.6565,-2.6565,-2.6565,-2.7197,-2.8176,-2.8176,-2.8846,-2.9792,-2.9792,-2.9792,-2.9792,-2.9792,-2.9792,-2.9792,-2.9792,-2.9792,-2.9792,-2.9792,-2.9792,-2.9792,-2.9792,-2.9792,-2.9792,-2.9792,-2.9792,-2.9792,-2.9792,-2.9792,-2.9869,-2.9792,-2.9792,-2.9792,-2.9869,-3.0633,-3.118,-3.1254,-3.2033,-3.2593,-3.2664,-3.2664,-3.2664,-3.2664,-3.3518,-3.4027,-3.4027,-3.492,-3.5504,-3.5504,-3.5504,-3.5504,-3.5504,-3.5504,-3.5504,-3.5504,-3.5504,-3.5504,-3.5504,-3.5504,-3.5504,-3.5504,-3.5504,-3.5504,-1.1824,0.0,0.0,0.0,0.0,0.0,0.0,0.0,0.0,0.0,0.0,0.0,0.0,0.0,0.0,0.0,0.0,0.0,0.0,0.0,0.0,0.0,0.0,0.0,0.0,0.0,0.0,0.0,-2.4955,-2.5568,-2.5568,-2.5568,-2.5568,-2.5568,-2.5459,-2.5289,-2.5157,-2.5258,-2.5418,-2.5641,-2.6576,-2.724,-2.7683,-2.853,-2.8882,-2.8882,-2.8882,-2.8882,-2.8791,-2.8028,-2.8119,-2.8882,-2.8882,-2.904,-2.9365,-2.9365,-2.9534,-2.9792,-2.9792,-2.9792,-2.9792,-2.9792,-2.9792,-2.9792,-2.9792,-2.9792,-2.9792,-2.9792,-2.9792,-2.9792,-2.9792,-2.9792,-2.9792,-2.9792,-2.9792,-2.9792,-2.9792,-3.0355,-3.062,-2.9934,-2.9792,-2.9998,-3.0696,-3.1044,-3.1462,-3.2105,-3.2464,-3.289,-3.3518,-3.3602,-3.3891,-3.4624,-3.492,-3.5067,-3.5067,-3.5359,-3.5504,-3.5504,-3.5504,-3.5504,-3.5504,-3.5504,-3.5504,-3.5504,-3.5504,-3.5504,-3.5504,-3.5504,-3.5504,-3.5504,-3.5504,-3.5504,0.0,0.0,0.0,0.0,0.0,0.0,-1.1969,-1.2729,0.0,0.0,0.0,0.0,0.0,0.0,0.0,0.0,0.0,0.0,0.0,0.0,0.0,0.0,0.0,0.0,0.0,0.0,0.0,-2.4772,-2.5864,-2.6483,-2.6483,-2.6483,-2.6382,-2.6169,-2.6268,-2.6073,-2.5572,-2.6252,-2.6588,-2.6682,-2.7765,-2.8553,-2.8858,-2.9534,-2.9792,-2.9792,-2.9792,-2.9792,-2.9792,-2.9106,-2.9197,-2.9792,-2.9792,-2.9792,-2.9792,-2.9792,-2.9792,-2.9792,-2.9792,-2.9792,-2.9792,-2.9792,-2.9792,-2.9792,-2.9792,-2.9792,-2.9792,-2.9792,-2.9792,-2.9792,-2.9792,-2.9792,-2.9792,-2.9792,-3.0075,-3.0419,-3.0419,-3.1119,-3.1549,-3.0558,-3.0709,-3.1119,-3.1683,-3.2105,-3.2522,-3.3101,-3.3533,-3.4041,-3.4543,-3.4624,-3.4839,-3.5439,-3.5504,-3.5504,-3.5504,-3.5504,-3.5504,-3.5504,-3.5504,-3.5504,-3.5504,-3.5504,-3.5639,-3.5908,-3.5908,-3.6043,-3.6297,-3.5774,-3.5504,-3.5519,-3.5789,-3.5774,0.0,0.0,0.0,0.0,0.0,0.0,-1.1912,-1.2846,-1.3735,0.0,0.0,0.0,0.0,0.0,0.0,0.0,0.0,0.0,0.0,0.0,0.0,0.0,0.0,0.0,0.0,-2.4779,-2.5881,-2.579,-2.6379,-2.6837,-2.6883,-2.678,-2.6483,-2.6052,-2.6886,-2.6888,-2.5956,-2.7829,-2.8624,-2.821,-2.9214,-2.9729,-2.9792,-2.9792,-2.9792,-2.9792,-2.9792,-2.9792,-2.9792,-2.9792,-2.9792,-2.9792,-2.9792,-2.9792,-2.9792,-2.9792,-2.9792,-2.9792,-2.9792,-2.9792,-2.9792,-2.9792,-2.9792,-2.9792,-2.9792,-2.9792,-2.9792,-2.9792,-2.9792,-2.9792,-2.9792,-2.9792,-2.9792,-2.9792,-3.0482,-3.118,-3.118,-3.2087,-3.2605,-3.1696,-3.2105,-3.2593,-3.2749,-3.3449,-3.4041,-3.4264,-3.5023,-3.5609,-3.5609,-3.5609,-3.5594,-3.5519,-3.5504,-3.5504,-3.5504,-3.5504,-3.5504,-3.5504,-3.5504,-3.5504,-3.5504,-3.5504,-3.5818,-3.6477,-3.6552,-3.6851,-3.7404,-3.6267,-3.5714,-3.5729,-3.6312,-3.6334,0.0,0.0,0.0,0.0,0.0,0.0,-1.3589,-1.3333,-1.3292,0.0,0.0,0.0,0.0,0.0,0.0,0.0,0.0,0.0,0.0,0.0,0.0,0.0,0.0,0.0,0.0,-2.6003,-2.7077,-2.7089,-2.7908,-2.8651,-2.9106,-2.8282,-2.816,-2.8934,-2.8337,-2.8052,-2.8288,-2.8225,-2.8436,-2.8775,-2.8988,-2.934,-2.9792,-2.9792,-2.9792,-2.9792,-2.9792,-2.9792,-2.9792,-2.9792,-2.9792,-2.9792,-2.9792,-2.9792,-2.9792,-2.9792,-2.9792,-2.9792,-2.9792,-2.9792,-2.9792,-2.9792,-2.9792,-2.9792,-2.9792,-2.9792,-2.9792,-2.9792,-2.9792,-2.9792,-2.9792,-2.9792,-2.9792,-2.9792,-3.0482,-3.118,-3.118,-3.298,-3.4339,-3.3618,-3.2961,-3.282,-3.3602,-3.3876,-3.4486,-3.5829,-3.6216,-3.6297,-3.6297,-3.6297,-3.6088,-3.5564,-3.5504,-3.5504,-3.5504,-3.5504,-3.5504,-3.5504,-3.5504,-3.5504,-3.5504,-3.5504,-3.5818,-3.6477,-3.6971,-3.7285,-3.7404,-3.7165,-3.7045,-3.7045,-3.7165,-3.754,0.0,0.0,0.0,-1.653,0.0,0.0,0.0,-1.5088,-1.4696,0.0,0.0,0.0,0.0,0.0,0.0,0.0,0.0,0.0,0.0,0.0,0.0,0.0,0.0,0.0,0.0,-2.7167,-2.813,-2.8206,-2.8611,-2.9176,-2.9767,-2.8988,-2.8775,-2.934,-2.8812,-2.8511,-2.8511,-2.8511,-2.8649,-2.8925,-2.9227,-2.9515,-2.9792,-2.9792,-2.9792,-2.9792,-2.9792,-2.9792,-2.9792,-2.9792,-2.9792,-2.9792,-2.9792,-2.9792,-2.9792,-2.9792,-2.9792,-2.9792,-2.9792,-2.9792,-2.9792,-2.9792,-2.9792,-2.9792,-2.9792,-2.9792,-2.9792,-2.9792,-3.0139,-3.0482,-3.0482,-3.0846,-3.1206,-3.1206,-3.1901,-3.2593,-3.2593,-3.3996,-3.5242,-3.5242,-3.4874,-3.4654,-3.5175,-3.5242,-3.5598,-3.6768,-3.6941,-3.6941,-3.6941,-3.6941,-3.6701,-3.6073,-3.5998,-3.5863,-3.5534,-3.5504,-3.5639,-3.5968,-3.5998,-3.6133,-3.6447,-3.6462,-3.6761,-3.7419,-3.8078,-3.8407,-3.8407,-3.8849,-3.8689,-3.8035,-3.882,-3.923,0.0,0.0,0.0,0.0,0.0,-1.8533,0.0,0.0,0.0,0.0,0.0,0.0,0.0,0.0,0.0,0.0,0.0,0.0,0.0,0.0,0.0,0.0,0.0,0.0,0.0,-2.8274,-2.9089,-2.9089,-2.8988,-2.9176,-2.9767,-2.9139,-2.8875,-2.9089,-2.8988,-2.8762,-2.8436,-2.8875,-2.9089,-2.9101,-2.9566,-2.9792,-2.9792,-2.9792,-2.9792,-2.9792,-2.9792,-2.9792,-2.9792,-2.9792,-2.9792,-2.9792,-2.9792,-2.9792,-2.9792,-2.9792,-2.9792,-2.9792,-2.9792,-2.9792,-2.9792,-2.9792,-2.9792,-2.9894,-3.0137,-3.024,-3.0342,-3.0663,-3.1248,-3.1856,-3.1736,-3.2291,-3.2925,-3.28,-3.3579,-3.4387,-3.4387,-3.5295,-3.6178,-3.6582,-3.6776,-3.6806,-3.6686,-3.6656,-3.6881,-3.7509,-3.7599,-3.7599,-3.7599,-3.7599,-3.736,-3.6731,-3.6656,-3.6447,-3.5908,-3.5878,-3.6103,-3.6626,-3.6656,-3.6881,-3.7389,-3.7524,-3.7853,-3.8377,-3.9065,-3.9424,-3.9424,-4.0432,-4.0318,-3.9129,-4.0563,-4.0954,0.0,0.0,0.0,0.0,-2.0341,0.0,0.0,0.0,0.0,0.0,0.0,0.0,0.0,0.0,0.0,0.0,0.0,0.0,0.0,0.0,0.0,0.0,0.0,0.0,0.0,0.0,-2.9691,-2.9691,-2.9214,-2.9176,-2.9767,-2.8775,-2.8662,-2.9666,-2.9202,-2.9151,-2.9591,-2.9666,-2.9691,-2.9691,-2.9767,-2.9792,-2.9792,-2.9792,-2.9792,-2.9792,-2.9792,-2.9792,-2.9792,-2.9792,-2.9792,-2.9792,-2.9792,-2.9792,-2.9792,-2.9792,-2.9792,-2.9792,-2.9792,-2.9792,-2.9792,-2.9792,-2.9792,-3.0099,-3.1472,-3.1922,-3.2243,-3.3649,-3.4162,-3.4112,-3.3473,-3.3822,-3.4247,-3.3605,-3.4696,-3.5769,-3.5769,-3.6958,-3.7913,-3.7404,-3.7778,-3.7988,-3.7404,-3.73,-3.7524,-3.8182,-3.8287,-3.8287,-3.8287,-3.8287,-3.8018,-3.7375,-3.73,-3.727,-3.7195,-3.7195,-3.7225,-3.73,-3.73,-3.7345,-3.7404,-3.7973,-3.8317,-3.8392,-3.9065,-3.9424,-3.9409,-4.1028,-4.1399,-4.0525,-4.145,-4.2296,0.0,0.0,0.0,0.0,0.0,0.0,0.0,0.0,-2.0765,0.0,0.0,0.0,0.0,0.0,0.0,0.0,0.0,0.0,0.0,0.0,0.0,0.0,0.0,0.0,0.0,0.0,0.0,0.0,0.0,-2.9176,-2.9767,-2.8725,-2.8624,-2.9754,-2.9227,-2.9202,-2.9779,-2.9792,-2.9792,-2.9792,-2.9792,-2.9792,-2.9792,-2.9792,-2.9792,-2.9792,-2.9792,-2.9792,-2.9792,-2.9792,-2.9792,-2.9792,-2.9792,-2.9792,-2.9792,-2.9792,-2.9792,-2.9792,-2.9792,-2.9792,-2.9856,-3.0419,-3.0866,-3.1341,-3.2172,-3.2989,-3.367,-3.3933,-3.4671,-3.5336,-3.5066,-3.564,-3.6156,-3.5865,-3.6307,-3.6807,-3.6807,-3.7322,-3.7853,-3.7958,-3.8197,-3.8422,-3.8556,-3.8242,-3.8212,-3.8886,-3.899,-3.899,-3.899,-3.899,-3.8721,-3.8048,-3.7973,-3.7823,-3.7434,-3.7404,-3.7569,-3.7958,-3.8362,-3.8571,-3.8571,-3.8841,-3.899,-3.899,-3.9783,-4.0185,-4.0185,-4.1869,-4.2583,-4.2252,-4.3092,-4.368,-2.2339,0.0,0.0,0.0,0.0,0.0,0.0,0.0,0.0,0.0,0.0,0.0,0.0,0.0,0.0,0.0,0.0,0.0,0.0,0.0,0.0,0.0,0.0,0.0,0.0,0.0,0.0,-2.8888,-2.8925,-2.9114,-2.9528,-2.8775,-2.8775,-2.9767,-2.939,-2.9365,-2.9792,-2.9792,-2.9792,-2.9792,-2.9792,-2.9792,-2.9792,-2.9792,-2.9792,-2.9792,-2.9792,-2.9792,-2.9792,-2.9792,-2.9792,-2.9792,-2.9792,-2.9792,-2.9792,-2.9792,-2.9792,-2.9869,-3.0062,-3.0355,-3.0735,-3.1588,-3.2219,-3.2704,-3.354,-3.4503,-3.5236,-3.5234,-3.6,-3.6923,-3.6733,-3.729,-3.7913,-3.7719,-3.7823,-3.7958,-3.7958,-3.7958,-3.8093,-3.8571,-3.8676,-3.8841,-3.9334,-3.9005,-3.8841,-3.9349,-3.9424,-3.9424,-3.9424,-3.9424,-3.923,-3.8721,-3.8676,-3.8482,-3.8003,-3.7958,-3.8167,-3.8631,-3.914,-3.9481,-3.9737,-3.9737,-3.9864,-4.013,-4.0945,-4.1346,-4.1346,-4.3053,-4.3883,-4.3943,-4.4598,-4.4891,0.0,0.0,0.0,-2.3229,0.0,0.0,0.0,0.0,-2.4021,0.0,0.0,0.0,0.0,0.0,-2.3246,-2.2815,0.0,0.0,0.0,0.0,0.0,0.0,0.0,0.0,0.0,0.0,0.0,-2.8888,-2.8925,-2.8938,-2.895,-2.8925,-2.9176,-2.9779,-2.9779,-2.9779,-2.9792,-2.9792,-2.9792,-2.9792,-2.9792,-2.9792,-2.9792,-2.9792,-2.9792,-2.9792,-2.9792,-2.9792,-2.9792,-2.9792,-2.9792,-2.9792,-2.9792,-2.9792,-2.9792,-2.9792,-2.9792,-2.9934,-3.0833,-3.1742,-3.2618,-3.3284,-3.3564,-3.3946,-3.6198,-3.6909,-3.7214,-3.875,-3.9262,-3.9128,-3.8456,-3.8856,-3.9185,-3.8512,-3.8871,-3.9364,-3.9364,-3.9364,-3.9364,-3.9379,-3.9394,-3.9394,-3.9424,-3.9394,-3.9394,-3.9424,-3.9424,-3.9424,-3.9424,-3.9424,-3.9409,-3.9394,-3.9394,-3.9379,-3.9364,-3.9364,-3.9364,-3.9394,-3.9409,-3.9809,-4.0622,-4.069,-4.108,-4.1933,-4.2653,-4.3039,-4.3055,-4.4671,-4.5412,-4.5458,-4.5589,-4.5669,0.0,0.0,-2.4563,-2.471,0.0,0.0,0.0,0.0,0.0,0.0,0.0,0.0,0.0,0.0,-2.3466,-2.3159,-2.2889,-2.2878,0.0,0.0,0.0,0.0,0.0,0.0,0.0,0.0,0.0,-2.9324,-2.8812,-2.8549,0.0,-2.8586,-2.8649,-2.9202,-2.9214,-2.9402,-2.9792,-2.9792,-2.9792,-2.9792,-2.9792,-2.9792,-2.9792,-2.9792,-2.9792,-2.9792,-2.9792,-2.9792,-2.9792,-2.9792,-3.0139,-3.0696,-3.0696,-3.1119,-3.1549,-3.0983,-3.0696,-3.0833,-3.1829,-3.2321,-3.2846,-3.4101,-3.4797,-3.544,-3.6858,-3.7908,-3.8646,-3.8725,-3.9065,-3.9364,-3.9125,-3.9245,-3.9364,-3.9125,-3.9245,-3.9424,-3.9424,-3.9424,-3.9424,-3.9424,-3.9424,-3.9424,-3.9424,-3.9424,-3.9424,-3.9424,-3.9424,-3.9424,-3.9424,-3.9424,-3.9424,-3.9424,-3.9424,-3.9424,-3.9424,-3.9424,-3.9681,-4.0239,-4.0239,-4.0363,-4.069,-4.1264,-4.1946,-4.2718,-4.3571,-4.4183,-4.4704,-4.5829,-4.6378,-4.6378,-4.692,-4.6904,-2.6087,-2.6002,0.0,-2.5465,-2.5635,0.0,-2.6076,0.0,0.0,0.0,0.0,0.0,0.0,0.0,-2.4769,-2.4484,-2.4046,-2.3804,0.0,-2.372,0.0,0.0,0.0,0.0,0.0,0.0,-2.664,-2.845,-2.8298,-2.8013,0.0,0.0,-2.8313,-2.8063,-2.8587,-2.9013,-2.9189,-2.939,-2.9478,-2.949,-2.9691,-2.9792,-2.9792,-2.9792,-2.9792,-2.9792,-2.9792,-2.9792,-2.9869,-3.0139,-3.062,-3.1254,-3.1609,-3.2105,-3.2522,-3.1888,-3.1888,-3.2321,-3.289,-3.3466,-3.4182,-3.547,-3.6321,-3.7034,-3.7893,-3.8736,-3.9379,-3.917,-3.926,-3.9469,-3.9709,-3.9589,-3.9424,-3.9424,-3.9424,-3.9424,-3.9424,-3.9424,-3.9424,-3.9424,-3.9424,-3.9424,-3.9424,-3.9424,-3.9424,-3.9424,-3.9424,-3.9424,-3.9424,-3.9424,-3.9424,-3.9424,-3.9424,-3.9643,-4.0198,-4.0552,-4.1102,-4.192,-4.1935,-4.207,-4.2389,-4.2928,-4.3717,-4.4769,-4.5338,-4.6029,-4.6745,-4.7305,-4.7581,-4.7581,-4.8071,-4.8054]}]]